GFSGBSN_sfc_30mbdewp_000.txt.gz
Dewpoint
58 56 54 54 55 55 54 54 53 53 53 53 53 52 52 52 52 53 53 53 51 50 50 49 49 49 50 45 35 41 54 56 49 32 28 25 24 24 24 23 12 12 7 10 6 2 8
57 55 53 54 55 55 54 55 55 52 53 53 52 51 51 51 52 52 52 52 51 50 49 49 49 49 46 30 31 43 47 44 36 32 30 26 23 24 21 10 13 11 5 7 12 5 4
56 55 54 53 55 55 55 55 55 52 53 52 52 51 51 52 52 52 52 52 50 49 49 49 49 49 48 30 34 37 38 34 35 33 27 29 25 22 21 11 7 6 3 6 9 11 8
56 55 55 54 54 54 54 55 54 52 52 52 52 51 51 52 51 51 51 50 49 49 49 49 50 49 35 37 39 36 27 20 29 31 27 24 30 24 12 13 13 8 9 1 8 14 16
56 56 55 55 54 54 54 54 54 52 52 52 52 51 51 51 51 51 50 49 49 49 48 50 48 48 28 31 28 22 20 18 20 23 24 22 22 16 11 9 8 10 7 9 9 16 16
56 56 55 55 55 55 54 54 53 52 52 52 52 51 52 53 52 50 49 49 49 50 49 49 49 41 31 23 27 20 19 19 21 21 19 21 18 14 14 6 4 5 7 10 10 15 26
56 55 55 55 55 55 54 54 53 52 52 52 52 53 54 54 53 49 48 48 44 42 48 25 26 27 32 29 26 18 20 22 24 22 19 21 15 12 14 14 9 12 11 10 14 22 30
56 55 55 55 55 54 54 53 54 54 54 54 53 53 54 54 52 50 49 48 39 42 35 40 39 35 34 33 20 20 28 21 21 19 21 19 16 18 24 23 19 19 17 21 24 28 30
55 55 55 55 55 54 54 53 55 54 53 53 53 53 54 53 52 50 48 43 48 44 35 26 34 31 26 28 20 23 27 26 21 19 19 17 19 23 24 23 21 24 19 20 24 29 30
55 54 54 54 54 54 53 53 55 54 53 52 53 53 54 52 49 48 44 43 51 44 20 21 20 20 25 25 22 25 26 25 23 20 22 24 27 23 22 23 24 21 25 24 27 26 23
55 54 54 54 54 53 52 53 54 53 52 52 52 53 53 50 48 51 48 56 51 35 13 19 20 25 23 25 20 24 31 25 21 22 23 24 24 23 22 22 26 25 25 24 22 21 21
54 54 53 53 53 51 51 53 52 52 51 52 52 53 52 50 49 48 53 45 34 24 13 17 22 20 22 25 25 27 28 30 27 26 26 25 27 26 25 27 25 27 28 28 28 25 18
54 53 53 52 51 51 51 52 52 51 51 52 52 53 51 50 50 57 50 31 20 22 24 19 20 21 23 25 26 26 26 26 23 22 23 24 24 26 26 26 25 27 25 22 21 21 20
54 53 53 52 50 50 51 52 51 51 51 51 52 52 52 51 52 51 36 21 19 26 22 21 23 22 22 26 27 27 25 24 26 26 25 21 19 23 24 24 23 23 25 21 18 19 22
53 52 52 51 50 50 51 51 51 50 51 52 52 51 50 56 53 48 30 18 25 27 23 22 23 22 25 26 26 26 25 24 27 27 24 22 21 24 24 26 26 23 19 25 24 24 21
53 52 51 50 50 50 51 51 50 50 51 53 50 49 48 55 48 38 28 23 36 36 29 25 20 24 23 25 25 26 27 31 28 31 28 26 18 24 24 27 26 24 26 16 20 10 10
52 51 50 50 50 50 50 50 50 50 51 53 46 35 37 53 35 28 24 25 37 38 32 23 24 25 24 24 27 28 28 32 34 32 31 26 22 22 25 24 23 24 21 24 24 21 9
51 50 49 49 50 50 50 48 50 50 52 52 36 28 49 36 25 33 25 36 38 30 30 32 29 26 25 30 30 30 28 31 36 36 26 29 25 22 21 26 29 25 23 19 5 13 22
50 49 49 49 50 50 49 49 50 51 53 49 36 48 51 33 22 24 28 33 35 28 29 30 31 32 35 33 30 34 34 35 30 32 28 27 24 21 20 21 24 24 27 25 24 25 22
49 49 49 49 49 49 50 50 50 50 52 46 43 39 44 36 31 22 23 24 31 33 32 32 33 34 34 35 36 34 35 34 31 34 36 30 26 19 10 17 22 20 25 25 21 17 18
49 49 49 49 48 48 49 50 50 50 51 48 39 38 42 38 32 25 24 32 31 30 32 32 31 32 32 32 34 34 36 32 33 36 37 28 21 26 27 27 25 20 20 26 22 21 18
48 48 49 48 47 47 48 49 50 50 50 45 41 34 33 35 37 34 31 25 32 32 32 30 29 34 33 31 30 32 32 27 22 37 34 30 23 24 26 30 27 22 22 23 26 25 25
48 48 47 47 47 48 49 49 49 49 47 43 47 44 34 34 35 35 35 35 33 33 36 35 33 34 33 36 38 37 37 36 36 33 30 26 24 17 9 26 22 13 18 21 22 24 24
48 47 47 47 49 49 48 49 49 49 47 45 48 46 36 29 30 34 35 36 35 33 32 38 37 34 39 40 37 35 36 38 37 36 33 26 23 17 14 16 6 12 25 26 24 28 30
48 48 49 49 48 48 48 48 49 48 49 50 51 45 39 28 29 29 37 38 39 41 40 40 42 40 39 32 32 30 29 29 34 37 31 29 23 17 11 13 12 13 27 28 26 23 33
48 48 48 48 48 48 47 47 48 48 48 50 51 46 42 31 30 35 38 39 36 37 38 42 44 40 34 26 23 26 24 25 24 34 35 30 24 15 20 8 1 7 26 31 28 23 33
48 48 47 47 48 48 47 47 48 49 50 49 52 51 44 41 44 40 36 37 39 37 37 41 40 39 34 24 21 20 18 26 18 22 29 32 28 19 17 14 15 18 31 30 21 16 35
48 47 47 47 47 47 48 49 49 50 50 51 51 53 44 45 46 47 43 39 40 39 35 40 38 37 31 27 23 24 26 27 27 28 29 26 24 22 22 19 12 25 30 27 28 30 34
47 47 48 48 47 47 47 48 49 50 51 50 49 54 50 44 45 47 47 47 45 40 41 41 36 38 35 31 26 31 29 32 28 20 32 24 24 19 21 16 25 28 31 32 33 31 35

GFSGBSN_sfc_30mbdewp_003.txt.gz
Dewpoint
59 58 58 57 54 53 55 55 54 52 52 53 53 52 52 51 51 52 51 51 52 51 50 50 50 49 48 45 37 44 57 56 52 32 27 25 24 25 24 24 15 12 8 10 4 11 22
59 59 58 56 55 53 55 55 55 54 53 53 53 52 52 51 51 51 51 51 52 51 50 49 48 49 46 31 33 48 51 47 38 30 28 26 22 25 23 17 15 10 9 9 6 6 6
59 59 57 56 54 53 55 55 54 55 53 52 52 51 51 51 51 51 50 51 52 50 49 48 49 49 47 32 35 44 39 37 35 31 28 28 26 23 21 7 8 8 7 9 13 11 13
59 58 57 55 54 53 54 54 54 54 54 52 52 51 51 50 51 50 51 51 50 49 48 48 51 49 37 41 41 39 35 28 33 33 29 26 27 22 15 14 13 8 9 5 10 16 16
58 58 57 55 55 54 54 54 54 54 53 52 52 51 51 51 51 50 51 49 48 48 48 51 48 47 31 36 30 27 21 17 22 29 29 27 23 18 12 11 10 11 3 7 10 24 17
58 57 56 56 55 55 54 54 54 54 52 52 51 51 51 51 51 51 49 48 48 50 50 50 49 42 35 26 32 20 19 20 21 21 22 20 17 14 11 8 4 6 9 9 11 21 27
57 57 56 56 55 55 55 55 55 54 52 52 51 51 51 52 52 49 48 48 44 43 47 32 32 29 29 32 26 18 21 22 23 22 15 21 11 8 11 9 8 9 10 11 15 28 31
54 58 56 56 55 55 55 55 54 54 52 52 52 51 52 52 51 48 49 46 38 38 34 44 41 38 36 33 19 19 28 20 20 17 20 17 15 18 24 21 18 19 18 22 26 29 31
52 55 56 56 55 55 55 55 54 53 52 53 52 52 52 52 50 48 47 48 49 45 37 29 38 31 27 30 20 22 26 24 20 19 18 16 18 24 24 24 22 23 21 22 24 28 29
51 53 56 56 55 55 55 54 53 53 54 53 51 52 52 51 47 48 45 46 49 45 22 22 22 22 25 24 23 27 29 24 22 19 24 24 25 22 22 24 23 20 24 28 27 25 21
51 51 56 55 55 55 54 54 53 53 54 52 51 51 52 49 48 47 48 55 47 33 10 21 20 24 27 21 22 26 30 24 20 21 23 23 23 22 21 23 26 25 28 26 22 21 21
51 50 54 55 55 55 54 53 52 53 53 51 50 51 52 50 49 50 50 45 34 24 16 18 22 22 24 27 27 28 27 29 27 26 26 25 27 25 24 26 26 29 27 27 28 25 18
50 50 49 55 54 54 53 52 51 52 52 50 50 52 50 51 47 52 52 32 22 20 24 19 20 21 24 26 26 26 26 25 23 21 22 23 24 25 26 25 26 27 26 23 21 20 17
48 50 49 54 54 53 52 51 51 52 51 49 50 51 50 50 51 50 35 23 18 23 21 21 22 23 23 27 27 25 25 25 27 25 24 17 18 21 25 24 23 24 25 20 14 18 20
48 50 50 53 53 53 51 51 51 52 50 49 51 49 49 50 51 50 31 20 19 23 22 22 23 22 25 26 26 26 25 25 26 27 21 21 20 24 25 25 25 21 19 26 24 23 21
46 50 50 53 53 52 51 50 51 51 49 50 49 48 47 53 53 38 28 20 27 32 30 24 18 23 24 25 25 25 25 30 27 31 29 24 18 23 25 26 26 23 25 18 21 14 16
47 49 50 53 52 51 50 50 51 51 49 51 49 44 41 51 39 32 25 21 32 37 33 23 23 24 25 25 27 26 26 32 33 31 29 23 22 22 25 23 22 23 20 23 23 21 7
47 49 50 53 51 50 50 51 51 50 50 50 42 33 47 37 29 31 25 29 37 34 31 32 25 26 25 29 29 29 27 31 36 35 28 28 25 23 21 25 28 24 21 19 5 9 20
48 49 48 52 50 50 50 50 49 50 51 50 36 46 50 35 22 25 29 31 35 30 28 30 31 31 34 32 28 33 33 34 31 31 28 27 25 21 19 20 23 23 25 23 23 25 19
47 46 48 51 50 50 50 49 49 51 52 46 45 40 45 34 30 23 24 25 25 33 32 32 34 35 35 34 36 34 34 34 32 34 35 29 25 20 15 14 21 21 26 24 20 14 16
46 47 50 50 49 50 49 49 49 51 52 48 40 38 43 35 25 24 21 24 24 30 32 31 32 32 32 33 34 34 35 31 35 37 35 27 21 24 26 26 24 19 23 23 19 19 16
48 50 50 49 49 49 49 49 50 50 52 47 36 36 36 37 31 24 23 31 28 31 32 29 31 34 33 31 30 32 32 27 25 36 32 30 23 25 25 28 26 22 21 23 25 24 21
48 49 49 48 48 48 48 49 50 50 51 45 47 41 33 34 36 26 26 27 30 33 36 35 32 34 33 36 37 37 35 34 34 32 29 27 25 20 13 24 21 14 17 21 23 25 25
49 48 48 48 47 47 48 49 50 50 50 46 47 40 33 30 34 28 32 34 29 33 32 37 36 34 40 40 37 36 37 37 35 33 31 24 19 17 13 15 4 11 26 24 22 23 25
48 48 47 47 47 49 49 49 50 50 50 51 50 41 34 30 32 32 36 36 39 40 39 40 42 41 41 34 33 31 30 31 34 33 29 27 22 16 12 14 12 10 18 25 24 17 28
47 47 48 49 48 48 48 49 49 49 50 50 51 45 39 30 31 32 38 38 36 36 39 41 41 39 33 27 28 27 25 26 23 33 35 28 23 16 18 8 2 8 20 33 28 21 27
49 49 48 48 47 47 47 48 49 48 49 50 51 47 43 36 41 39 34 37 38 37 38 38 38 38 33 24 25 25 24 27 20 18 27 30 26 20 16 14 15 18 28 30 16 13 30
47 47 47 47 47 47 47 47 48 48 49 51 51 52 44 44 45 46 42 38 39 39 36 40 38 37 31 28 26 26 25 26 24 26 28 22 21 20 20 17 10 24 30 24 25 31 31
47 47 47 47 48 47 48 48 48 47 48 52 50 53 49 45 45 47 47 46 45 40 41 40 37 37 35 31 27 29 29 30 27 20 31 22 26 21 21 17 23 26 31 32 33 31 32

GFSGBSN_sfc_30mbdewp_009.txt.gz
Dewpoint
55 56 60 59 58 58 57 56 55 55 54 54 54 52 53 53 53 53 52 52 52 52 53 51 50 49 48 42 35 50 55 54 41 37 28 20 19 18 13 13 13 15 15 14 9 11 22
52 55 55 60 59 58 58 57 56 54 55 55 54 52 53 53 53 53 52 51 52 52 52 50 49 49 46 35 30 41 40 38 32 31 23 21 20 16 14 14 15 15 17 7 15 19 26
51 52 55 57 59 58 58 57 55 55 55 55 54 52 53 53 52 52 52 52 52 52 50 49 48 47 43 33 32 40 37 30 29 27 20 20 21 20 21 20 18 12 7 6 20 20 24
50 51 54 55 59 58 58 57 55 55 55 54 54 52 53 52 52 51 51 52 51 50 49 48 49 47 37 35 34 33 37 34 33 30 26 28 28 26 23 17 13 9 9 17 22 17 11
50 50 51 54 55 58 57 56 55 54 54 54 54 52 52 52 51 51 51 50 49 48 47 48 49 47 34 36 29 27 30 27 28 30 30 28 28 26 23 15 9 6 6 11 14 10 1
48 50 51 51 54 57 58 56 55 54 54 54 54 52 52 51 51 52 50 49 48 48 48 48 47 46 35 21 27 23 26 23 25 29 26 25 24 23 19 11 8 9 6 7 4 6 3
46 47 49 51 54 56 58 57 55 54 54 54 53 52 52 51 51 51 48 47 45 45 44 35 32 29 25 26 28 22 20 20 25 26 18 23 19 15 15 13 13 9 2 1 5 9 6
46 47 48 49 53 55 58 57 55 54 54 54 53 52 52 52 53 50 48 41 41 47 38 33 34 32 31 29 24 18 21 18 19 16 18 19 19 19 16 13 9 7 6 8 12 16 21
47 47 48 49 51 54 57 57 56 55 54 54 52 53 52 52 51 48 46 41 48 48 42 32 31 29 25 29 19 16 19 17 16 17 16 16 17 20 16 11 8 8 5 15 14 21 21
47 47 48 49 50 52 55 57 56 55 54 53 52 52 52 51 47 46 43 42 41 45 34 23 25 26 26 25 19 23 22 20 18 13 20 21 22 18 12 11 16 12 19 18 15 19 12
44 46 47 48 50 52 53 56 56 55 54 53 52 52 52 49 51 42 49 51 48 51 21 20 21 26 24 21 21 22 27 19 17 17 19 19 21 15 13 20 22 28 23 20 19 19 15
43 46 46 47 49 51 52 54 55 55 53 53 52 51 52 50 48 49 51 55 53 37 19 19 20 21 22 20 20 23 17 22 23 19 17 21 24 21 22 25 24 26 24 21 18 16 15
45 46 46 46 48 50 51 53 55 54 53 53 52 51 51 49 44 51 55 53 35 23 20 15 15 18 19 17 19 20 17 16 11 16 16 18 19 25 24 22 24 22 19 13 11 13 12
43 46 46 46 47 49 50 53 54 54 53 52 51 51 51 49 49 55 55 45 25 19 18 16 14 17 17 17 18 20 15 12 14 17 16 14 18 21 24 21 18 20 15 14 9 10 8
39 44 46 46 47 48 50 53 54 53 52 51 51 50 50 50 52 53 48 35 25 13 18 17 15 15 17 18 18 22 20 14 14 17 16 14 16 24 25 25 20 17 19 20 19 22 18
39 43 44 45 46 48 50 52 53 53 52 50 48 48 46 50 52 51 42 31 24 23 20 18 14 15 16 18 16 19 19 21 23 26 26 18 16 21 25 26 26 23 22 18 16 12 13
40 40 44 45 46 48 50 52 53 52 51 50 47 43 41 51 52 43 36 31 23 28 27 20 15 15 17 17 16 17 19 26 27 26 24 19 18 23 25 22 16 23 17 18 20 23 17
39 41 44 44 45 46 49 51 53 51 50 49 47 39 54 55 39 41 36 30 25 28 32 25 25 17 19 19 19 16 15 19 29 27 19 20 22 25 22 25 26 24 21 20 17 15 19
40 40 42 44 43 45 48 50 52 51 50 47 44 42 56 52 37 41 33 26 26 29 28 27 22 21 20 20 18 18 19 36 36 31 23 28 21 22 21 24 23 19 20 20 17 24 14
41 42 43 43 42 41 47 50 51 50 49 48 40 37 48 49 40 34 30 25 26 31 28 27 22 25 27 25 27 26 27 34 35 33 32 30 21 21 19 19 21 21 17 19 18 16 14
43 44 42 42 43 41 47 50 51 50 49 48 40 35 39 40 39 34 29 26 22 26 30 31 30 25 24 24 27 28 31 34 35 36 31 31 25 23 24 24 20 18 17 18 16 15 13
42 42 43 44 44 44 46 49 51 50 49 47 39 34 37 39 37 32 28 23 22 25 29 30 26 24 25 25 27 24 31 32 31 35 34 33 28 29 29 25 23 20 18 14 16 16 11
43 42 43 44 45 45 47 48 50 50 49 46 45 45 38 40 36 30 29 23 22 27 37 31 26 29 27 34 39 38 37 35 33 35 34 34 34 28 21 27 26 23 25 20 15 16 15
43 43 44 45 46 46 47 45 50 50 49 44 45 40 39 37 35 30 26 24 22 27 31 34 33 30 41 39 38 36 35 33 32 34 36 36 32 31 23 23 16 15 20 18 19 17 16
43 44 45 46 46 45 46 46 50 49 49 47 50 44 39 39 33 27 24 21 24 34 36 38 41 41 40 38 35 34 35 36 34 29 29 31 31 28 29 18 14 12 12 16 17 14 19
44 45 45 45 47 46 46 46 49 49 49 51 54 49 39 38 32 27 24 22 33 36 42 43 43 42 41 41 39 29 27 26 30 33 31 29 33 26 25 23 18 22 23 29 26 12 21
44 44 46 46 47 47 48 49 49 49 49 51 52 55 35 29 29 29 26 25 27 34 37 42 42 41 41 42 37 32 28 29 25 26 32 32 33 29 27 28 25 21 24 28 16 21 26
44 45 46 48 48 46 48 48 48 49 49 50 52 54 38 30 37 34 28 30 30 32 42 42 40 42 40 38 37 34 36 32 29 28 31 28 30 29 32 30 20 21 26 23 31 29 28
43 47 47 48 48 48 48 48 48 49 49 50 50 53 52 36 47 48 49 48 39 37 38 42 34 40 40 35 41 43 36 36 35 28 32 29 29 29 26 25 28 26 25 27 31 30 30

GFSGBSN_sfc_30mbdewp_012.txt.gz
Dewpoint
51 53 54 55 59 59 58 58 57 56 55 55 54 54 53 52 52 52 52 52 51 52 52 52 51 50 48 43 39 48 54 48 37 36 31 21 15 15 16 16 13 12 15 15 18 24 26
49 50 52 53 55 59 59 58 57 56 55 55 55 54 53 53 53 52 51 51 51 52 52 51 49 49 47 35 32 44 42 39 28 29 27 20 18 17 15 12 10 13 15 11 13 17 32
49 50 51 52 54 55 59 59 58 57 56 55 55 54 53 53 53 52 52 51 51 52 51 50 48 47 43 34 32 39 34 29 29 29 23 20 20 19 19 20 17 17 14 10 19 19 25
50 50 51 51 53 55 56 59 58 57 56 55 55 54 53 53 52 51 51 51 52 51 50 48 48 47 40 35 35 32 36 33 32 28 27 25 28 25 23 24 17 13 9 10 22 22 20
49 48 50 50 51 53 55 57 58 57 56 55 54 54 53 52 52 51 51 51 50 50 48 47 48 47 37 35 30 28 28 29 27 30 29 27 27 26 26 23 13 11 11 22 20 22 11
47 47 48 50 51 52 54 56 58 57 55 55 54 54 53 52 51 51 51 50 50 48 48 47 45 43 42 26 22 23 25 26 26 28 28 26 24 24 23 16 10 11 11 17 14 14 2
46 48 46 47 49 50 53 54 57 57 55 54 54 54 52 52 51 52 49 47 45 46 45 33 33 31 22 22 26 24 20 21 25 27 24 24 22 19 16 17 19 15 12 10 9 5 2
46 48 48 48 48 49 50 54 57 57 55 54 54 53 52 52 52 52 49 44 43 47 43 38 25 33 30 30 24 20 19 18 23 22 19 20 18 20 22 19 18 14 11 5 7 8 6
45 47 48 48 48 49 49 52 56 57 55 54 54 53 52 52 53 50 47 42 43 43 42 34 22 23 27 25 22 17 19 19 19 17 18 25 26 19 19 19 16 10 11 14 11 8 10
45 46 47 48 48 48 49 50 54 57 55 54 53 53 52 52 48 48 46 45 43 45 37 28 24 27 26 25 20 16 19 17 17 17 18 30 29 20 17 13 11 19 25 17 19 22 11
43 45 45 46 48 48 49 50 53 56 55 54 53 52 52 51 50 44 51 47 48 52 26 24 23 25 23 20 18 16 20 20 18 17 24 21 19 19 16 18 20 22 23 22 15 16 19
42 44 44 44 46 48 49 50 52 55 55 54 53 52 52 51 50 50 50 54 55 41 25 20 21 22 19 19 17 18 19 19 17 19 21 22 25 23 24 21 21 25 21 22 13 13 19
39 41 44 44 44 47 47 50 52 54 55 54 52 52 51 50 46 48 49 55 40 26 21 18 18 19 18 17 16 17 19 12 14 16 17 20 18 21 21 15 19 18 17 14 17 20 17
40 40 43 45 44 47 48 49 51 53 54 54 52 52 51 50 50 51 54 50 28 22 19 13 15 17 16 16 16 15 13 11 13 13 15 16 14 18 18 14 24 19 10 17 19 24 22
37 39 42 45 46 47 47 49 50 53 54 53 51 51 50 50 52 54 51 40 30 22 20 16 13 14 14 15 14 17 13 11 11 12 15 27 23 24 21 18 19 10 13 16 17 30 21
36 39 42 43 46 47 47 49 50 53 53 52 49 48 45 50 52 51 47 38 31 26 18 17 11 13 13 15 14 15 17 15 11 14 22 37 31 29 22 23 22 22 19 19 18 13 11
37 40 42 42 45 46 47 48 50 53 52 51 47 42 43 52 52 47 41 37 34 27 21 19 13 12 13 16 13 16 17 17 21 21 21 21 30 21 24 21 13 20 17 16 15 19 21
38 42 41 40 41 45 46 47 49 52 51 50 45 37 51 54 41 34 39 36 32 27 24 24 20 14 14 17 15 13 22 23 23 21 21 18 18 20 21 21 21 21 22 16 20 17 23
37 41 39 40 41 44 45 46 48 51 51 49 41 43 53 50 30 36 37 35 31 28 26 27 21 21 17 18 17 16 16 35 34 26 24 23 19 19 20 24 24 21 16 20 20 25 23
39 39 40 40 42 43 45 46 47 51 51 50 40 40 50 50 37 35 36 32 30 30 24 25 23 21 18 18 20 19 20 34 34 31 31 33 23 18 22 19 22 22 18 14 17 22 20
39 40 40 41 40 42 45 45 47 51 51 50 44 39 44 41 41 37 37 33 28 24 27 26 22 18 24 21 22 22 24 35 35 36 32 30 23 21 19 20 24 22 19 18 14 18 16
37 39 40 41 41 41 45 45 47 50 51 47 43 37 42 41 39 39 38 33 27 24 27 27 26 23 24 23 23 23 24 34 32 35 31 32 30 30 29 26 24 22 22 19 16 14 15
39 39 41 42 41 43 43 43 47 49 50 46 44 47 41 41 38 39 39 32 28 25 26 28 26 25 23 32 35 38 38 35 32 35 33 34 35 31 27 27 27 22 25 23 21 17 14
39 38 42 44 42 43 43 43 46 49 50 45 44 45 42 38 37 38 37 32 26 24 30 31 30 27 39 38 38 37 35 35 36 37 36 39 37 32 27 26 16 16 20 18 19 18 16
41 41 42 42 42 43 44 45 48 49 50 49 46 48 45 40 39 35 37 33 26 25 31 32 41 41 40 38 37 35 36 32 31 29 32 35 35 32 29 23 18 18 14 15 15 15 20
40 41 43 43 43 44 45 46 46 48 50 49 50 54 52 43 40 34 31 29 28 36 41 43 41 42 40 42 37 26 27 25 29 32 29 30 37 32 26 25 18 25 23 26 23 15 22
41 43 43 43 44 44 45 46 46 45 48 49 49 55 55 45 39 33 29 28 29 41 41 41 43 42 44 45 37 30 30 28 29 31 33 34 33 27 30 28 29 23 24 24 17 25 29
42 44 44 44 45 46 45 45 46 45 46 49 49 53 54 44 36 35 31 27 30 39 42 43 41 41 42 37 36 37 36 33 28 28 32 30 34 31 35 33 24 23 24 24 33 31 29
42 44 44 45 46 45 45 45 45 45 48 49 48 52 57 53 47 50 49 47 41 32 42 45 38 42 44 37 38 40 37 37 35 30 30 29 31 32 31 31 30 24 25 26 28 29 30

GFSGBSN_sfc_30mbdewp_015.txt.gz
Dewpoint
50 50 51 53 53 55 57 59 58 57 56 55 55 55 55 54 53 52 51 51 50 51 52 52 52 50 48 45 43 51 52 48 41 36 32 30 30 26 15 15 17 15 13 16 29 35 38
50 50 50 51 53 53 55 57 59 58 57 56 55 55 55 54 53 53 52 51 51 51 51 53 51 49 47 39 44 48 44 39 31 35 32 31 24 19 17 17 19 13 13 11 14 28 33
49 50 50 51 51 52 54 55 58 59 57 56 55 55 55 54 53 53 52 52 51 52 52 51 49 47 45 33 38 41 38 31 28 28 28 28 25 27 26 23 26 19 14 12 22 31 29
50 50 51 51 51 52 53 54 55 58 58 57 55 55 54 53 53 52 51 51 52 52 51 50 49 47 39 41 40 37 35 30 28 29 29 30 29 28 26 27 25 17 15 12 21 25 30
49 50 50 49 50 51 52 53 54 56 58 57 55 54 54 53 52 52 51 52 52 51 50 49 47 47 39 42 35 34 33 35 31 32 31 29 27 26 27 25 24 16 16 22 19 21 23
46 48 49 49 49 50 51 52 54 55 57 57 55 54 54 53 52 51 51 51 50 50 49 47 46 41 41 32 33 31 29 28 26 30 29 28 24 26 25 23 18 14 19 21 20 18 19
46 46 48 49 49 49 49 51 52 55 56 57 55 54 54 52 52 51 51 49 45 46 45 39 35 34 29 30 27 26 25 25 26 28 25 26 22 22 22 22 19 17 13 18 20 19 15
46 47 46 47 49 48 47 48 50 54 56 56 56 54 53 52 52 52 50 46 43 43 42 45 40 35 32 33 26 25 24 20 25 25 25 24 21 21 21 21 20 19 19 17 14 8 3
46 47 47 46 49 49 48 49 50 52 56 56 56 54 53 52 52 51 48 46 44 45 43 41 41 36 26 30 27 24 22 19 20 23 21 22 21 26 22 21 19 20 21 18 14 11 14
45 44 45 46 47 48 48 49 50 51 54 56 55 54 52 52 49 49 48 47 48 46 38 34 36 22 22 26 25 25 22 19 19 19 27 25 24 24 24 22 20 19 21 23 18 18 15
42 43 44 46 46 47 48 48 50 51 53 55 55 53 52 50 50 48 50 51 47 47 29 26 26 26 27 26 22 21 21 20 18 23 22 22 25 24 24 22 22 18 20 21 23 18 24
44 42 42 43 47 46 47 48 49 50 53 55 55 53 52 51 50 49 50 49 55 40 28 26 26 24 24 24 21 20 17 21 21 19 21 22 25 27 25 21 21 23 20 20 22 22 20
44 43 42 43 44 45 45 47 48 50 52 54 54 53 51 50 47 51 50 52 41 35 27 22 21 23 23 21 19 19 18 19 17 17 21 23 20 27 28 22 24 25 24 19 16 18 19
41 42 42 40 42 45 45 45 48 49 52 54 54 52 51 49 51 52 53 48 35 29 27 20 22 22 20 19 19 18 20 18 18 17 19 20 21 24 23 18 21 21 21 19 14 21 24
39 42 41 40 39 42 45 44 47 49 52 54 53 51 50 49 50 51 49 39 32 33 23 23 18 18 18 18 15 17 15 16 14 17 16 24 24 31 28 29 23 19 19 24 28 32 30
41 41 41 41 42 42 44 45 46 49 51 53 50 49 48 50 52 50 45 38 37 33 30 23 20 16 16 18 17 17 17 17 14 14 28 33 24 33 29 32 24 22 22 19 24 21 17
40 40 41 40 40 40 43 45 46 49 51 52 49 45 46 51 52 47 37 37 39 37 33 27 21 14 15 17 21 17 18 18 17 25 31 34 28 30 32 27 20 21 19 17 19 21 16
39 39 40 39 39 40 42 45 45 48 51 50 48 40 47 52 42 41 38 39 39 36 36 34 23 19 16 18 18 15 18 28 31 24 25 31 31 28 26 25 23 21 20 23 16 15 25
38 39 39 39 40 41 43 44 45 47 50 47 44 43 50 44 31 37 34 36 40 37 36 30 26 25 24 21 25 16 27 33 32 29 25 29 21 16 19 25 26 21 19 17 27 28 20
37 38 38 37 39 42 44 44 47 46 50 48 44 38 47 48 38 34 32 32 37 39 37 34 27 28 25 24 26 23 32 34 34 33 31 31 26 19 16 20 24 23 22 21 19 20 19
37 37 36 36 37 44 43 44 46 46 49 48 45 37 43 40 41 39 33 33 35 36 35 32 26 26 24 19 20 21 35 35 36 35 32 30 24 23 24 28 26 24 24 24 16 20 17
37 37 38 37 43 42 41 42 44 46 49 46 43 37 45 41 41 41 34 35 34 34 33 30 29 25 24 23 25 24 32 34 32 35 31 32 29 30 27 29 28 24 25 24 24 21 18
39 39 39 39 40 41 42 43 44 46 48 44 44 45 41 42 41 39 33 37 34 34 32 27 30 28 26 32 35 38 39 40 37 34 32 32 32 29 25 26 24 21 22 23 23 24 23
39 40 40 40 40 41 42 43 43 46 47 46 42 45 42 39 40 35 35 38 35 35 35 29 30 29 38 40 39 38 37 42 40 41 39 35 34 31 26 25 19 22 23 18 20 22 22
39 39 38 39 41 42 42 42 44 45 48 44 46 46 45 39 40 35 37 37 39 36 34 36 41 40 42 40 35 31 31 26 36 36 39 40 32 32 24 21 23 19 20 21 17 20 24
40 40 39 39 42 41 42 43 45 45 48 45 44 48 49 45 40 36 36 37 39 34 40 42 45 45 43 42 33 27 25 25 28 28 34 32 35 25 32 22 14 23 25 25 23 21 29
40 40 39 40 42 43 42 44 44 46 48 47 45 48 46 47 44 38 36 38 39 42 42 45 44 42 46 39 32 25 28 30 30 31 30 30 30 27 27 21 26 31 25 24 12 23 29
41 40 42 44 44 44 44 44 46 47 48 48 45 48 48 49 46 45 38 38 37 43 40 45 44 42 43 34 30 34 32 29 31 34 32 28 29 26 34 30 23 27 24 17 32 31 30
40 41 41 41 42 43 45 45 45 45 46 46 44 48 50 47 50 52 49 43 42 44 44 44 37 40 43 37 39 38 34 35 32 29 34 29 33 30 31 29 32 25 27 32 30 29 30

GFSGBSN_sfc_30mbdewp_018.txt.gz
Dewpoint
50 50 51 51 53 53 54 55 57 59 58 57 56 55 55 55 55 54 53 52 52 52 52 52 53 51 47 40 37 51 53 51 45 38 32 26 30 28 21 17 16 16 16 16 31 37 39
50 51 51 51 52 53 52 54 54 58 59 57 56 55 54 55 54 53 53 53 52 52 51 51 51 49 47 27 43 49 46 41 36 34 31 31 30 25 21 22 20 23 18 14 34 36 37
50 50 51 51 51 51 52 53 54 56 59 58 57 56 55 54 54 53 53 52 51 52 52 52 50 47 44 18 44 45 39 31 29 32 26 29 28 28 27 23 27 25 14 24 28 32 33
49 50 50 51 52 52 52 52 53 54 56 58 58 56 55 54 53 53 52 52 51 52 52 51 49 47 26 41 42 38 37 30 29 28 28 28 29 28 27 27 26 22 14 14 28 30 33
48 49 51 51 51 52 51 51 52 53 55 57 58 56 55 54 53 52 52 51 51 52 52 51 47 47 29 43 40 39 37 32 30 28 29 29 27 26 27 24 22 18 13 17 20 24 27
48 48 48 50 50 50 51 51 52 52 53 55 57 57 55 54 53 52 51 51 51 51 48 48 46 38 37 31 36 33 33 34 33 31 30 28 24 25 25 23 15 15 17 22 19 20 25
47 47 48 48 50 50 49 51 52 52 54 54 56 57 55 54 52 51 50 47 44 46 44 31 27 30 28 33 33 30 29 29 29 28 24 27 22 21 22 23 23 20 18 18 21 21 19
47 48 47 47 48 48 50 49 49 51 51 55 55 56 54 53 52 51 50 43 43 43 40 43 43 40 38 37 28 28 26 23 26 25 27 24 21 23 24 22 21 20 18 18 21 20 13
47 47 47 46 47 47 47 49 49 49 50 53 56 56 54 52 51 51 48 45 46 45 39 41 44 42 39 33 28 29 24 22 22 23 23 21 20 24 24 21 21 20 20 21 19 12 21
46 46 46 46 47 47 47 49 49 50 50 52 56 55 53 52 47 48 47 49 50 47 35 32 38 38 26 25 24 29 25 22 20 18 23 22 25 22 23 23 23 20 21 22 21 16 11
47 46 46 46 47 47 47 47 49 49 51 51 55 55 52 50 48 48 49 49 48 48 11 26 36 30 21 24 25 24 26 21 18 21 26 22 26 24 22 22 23 21 23 21 23 22 21
45 46 45 45 46 45 45 46 47 48 50 51 53 54 52 50 49 47 48 50 53 39 14 29 28 24 23 23 25 22 20 21 21 20 21 21 26 24 22 23 24 24 20 25 24 24 19
42 45 45 44 45 44 44 46 46 47 49 50 54 54 51 50 43 51 52 51 40 31 28 26 23 25 23 23 24 23 19 17 15 16 19 22 21 27 28 24 24 25 24 18 15 17 15
40 44 45 45 44 43 41 45 46 46 49 49 53 53 52 50 50 51 53 45 32 31 30 28 24 24 22 23 22 20 18 16 19 18 19 18 19 25 29 24 22 23 21 16 13 15 18
41 42 45 45 44 42 42 43 44 44 47 49 53 51 51 50 50 50 48 37 30 34 28 22 23 23 22 23 19 19 19 17 18 19 15 21 22 32 29 31 29 20 17 24 26 31 25
40 43 44 43 44 43 42 42 44 45 45 48 48 49 48 50 50 48 43 33 36 37 34 26 20 22 20 19 18 18 17 19 19 17 23 26 22 31 29 27 28 25 22 19 25 17 17
40 41 42 42 43 43 41 41 42 45 46 48 46 42 49 51 49 43 38 34 36 37 37 33 27 23 19 18 19 19 17 18 19 19 28 32 25 27 30 25 20 23 21 19 22 21 14
40 40 41 40 40 41 42 41 42 43 46 46 43 38 49 50 39 39 37 37 35 36 38 38 35 30 20 20 19 19 18 22 31 29 24 30 28 24 23 28 23 26 24 20 15 14 25
40 39 41 42 41 41 42 41 42 42 45 44 40 41 49 46 35 34 37 37 36 34 36 36 32 30 25 23 20 23 24 31 33 28 27 31 26 21 23 25 27 24 21 23 25 24 18
41 39 39 40 42 43 41 40 41 42 45 44 40 35 43 45 39 32 34 36 36 34 37 38 37 36 28 24 27 27 30 34 35 31 34 29 24 17 17 21 25 24 24 22 23 20 20
41 39 39 40 41 41 40 40 41 41 46 44 41 36 38 35 38 33 33 34 34 31 36 36 34 35 32 23 26 24 33 35 35 32 32 28 22 24 23 28 27 24 24 24 22 21 18
40 40 40 40 40 40 40 40 41 42 46 43 37 39 40 40 37 37 33 31 30 29 32 32 34 33 30 24 24 25 31 34 29 34 29 33 22 29 24 28 27 24 24 24 24 23 22
40 39 39 39 39 39 40 42 41 43 46 41 41 45 41 36 38 37 36 31 29 29 31 32 34 33 30 26 31 33 35 34 33 30 31 31 29 26 21 26 24 22 22 21 22 24 23
39 38 38 38 38 38 38 40 42 44 47 42 42 43 40 36 39 37 36 33 30 31 28 33 33 33 35 40 38 37 39 40 41 41 37 32 30 28 24 24 21 25 25 24 23 23 24
38 38 38 38 38 39 39 41 43 43 44 45 46 43 43 35 40 39 37 36 32 33 35 32 37 36 41 37 33 31 30 29 35 37 39 39 32 29 24 22 24 22 19 18 18 23 25
38 38 38 39 39 41 41 42 43 43 43 44 45 47 44 41 38 40 38 34 33 35 35 40 45 45 44 36 29 25 24 26 28 28 33 36 33 28 31 21 19 21 25 25 24 23 28
40 40 40 40 40 41 41 42 42 43 43 45 43 47 43 42 43 40 36 34 34 39 35 44 42 42 42 33 28 25 26 28 25 25 27 29 31 27 25 22 18 25 27 23 11 16 30
40 40 40 40 41 41 41 41 42 43 43 45 43 47 44 43 45 47 38 35 38 40 38 43 43 43 40 32 29 32 28 31 31 32 29 25 29 29 30 24 19 31 24 20 24 32 30
41 40 40 40 42 42 42 42 43 43 44 45 43 47 47 44 44 48 51 50 40 43 43 45 39 42 43 35 37 36 33 33 30 31 35 24 26 24 27 24 30 27 28 34 32 30 31

GFSGBSN_sfc_30mbdewp_021.txt.gz
Dewpoint
51 50 51 52 52 53 53 54 55 56 59 58 57 56 55 55 55 55 54 53 53 52 52 52 51 52 48 34 24 48 53 53 51 39 33 28 28 29 23 19 17 16 16 17 22 38 39
50 51 51 51 51 51 50 53 54 54 56 59 58 57 56 55 55 54 54 53 53 52 52 52 52 50 46 17 41 51 48 45 39 35 29 29 29 28 26 22 21 22 24 21 27 36 39
49 50 51 51 52 52 51 51 52 53 54 58 58 57 56 55 54 54 53 53 52 52 52 52 51 48 43 16 44 44 43 37 33 33 30 32 31 27 27 24 26 26 17 26 33 35 37
50 49 49 51 51 52 52 51 51 52 54 56 58 58 57 55 54 54 53 52 52 51 52 51 50 47 31 35 44 42 39 34 30 32 29 28 29 28 27 27 25 21 15 25 29 33 35
48 49 49 49 51 51 51 51 52 51 52 53 57 58 57 55 54 53 52 52 52 52 52 52 47 46 26 38 37 41 39 32 32 28 28 30 28 26 27 24 19 17 13 20 27 29 34
48 48 48 50 49 51 51 51 51 51 51 52 55 57 57 55 54 52 51 51 51 51 49 49 46 36 32 28 33 35 39 36 32 31 28 28 26 24 25 22 16 17 16 21 21 25 31
46 48 48 49 49 49 49 50 51 52 52 52 54 56 57 55 53 52 50 47 42 45 44 29 24 23 25 35 35 32 31 34 30 28 25 26 22 21 21 23 23 22 19 18 20 21 23
49 47 48 48 48 49 48 49 50 50 51 51 52 55 56 55 52 51 49 43 41 44 37 41 42 37 38 39 36 30 29 26 27 24 27 24 21 22 25 24 23 21 19 19 21 20 19
45 47 47 47 47 48 49 46 49 50 49 49 50 53 56 54 51 50 46 45 46 47 34 35 43 42 40 41 33 29 26 24 23 24 25 23 20 24 23 22 21 21 20 20 21 18 22
44 45 47 47 46 47 46 46 47 47 49 49 50 52 55 52 49 48 47 49 49 48 30 29 40 39 39 31 26 31 26 23 21 20 22 23 24 22 21 20 22 20 23 22 21 16 17
43 43 45 47 46 46 46 47 46 48 49 48 50 51 54 51 46 49 49 48 48 48 4 19 38 36 29 25 25 25 26 22 19 19 25 21 24 23 21 19 24 21 23 23 22 23 21
41 41 43 45 48 46 45 46 47 45 48 48 50 51 53 50 49 47 48 51 52 33 8 22 33 25 22 23 25 23 25 23 22 20 24 21 26 26 22 23 24 24 22 25 25 24 17
42 41 40 43 46 47 45 46 46 45 45 47 49 50 52 51 46 51 51 51 38 28 23 26 27 23 19 21 21 24 19 19 17 17 19 23 22 27 28 23 24 25 22 17 15 16 15
43 41 41 41 44 47 46 45 45 45 44 45 47 50 52 50 50 50 53 44 32 31 30 33 26 25 20 22 22 23 21 18 19 18 19 17 17 24 28 24 23 23 21 16 12 14 15
44 42 41 41 42 44 46 45 44 45 46 46 47 50 50 52 50 48 48 37 31 32 34 22 25 23 23 23 21 22 20 18 18 19 15 19 19 30 30 31 26 21 19 23 25 30 24
45 43 42 41 41 42 45 45 43 43 46 46 45 45 47 51 50 46 43 35 35 35 37 35 22 23 20 22 21 20 20 20 18 19 20 23 19 30 30 30 29 23 27 19 24 17 16
46 44 43 42 41 42 45 45 42 43 44 46 44 40 44 51 50 43 34 34 34 36 37 36 33 24 22 21 21 19 18 19 21 20 23 30 22 22 29 24 21 24 21 21 22 22 14
46 45 43 42 41 44 46 44 42 42 44 44 41 35 49 50 41 39 35 35 34 31 36 38 38 36 29 22 20 19 18 18 23 26 21 28 22 17 19 27 29 25 23 21 18 16 24
46 45 43 42 42 45 46 44 42 41 42 42 36 40 49 46 35 36 36 36 36 31 33 34 35 34 29 23 19 21 22 25 32 27 23 30 24 17 19 24 27 25 24 26 25 23 20
46 46 44 42 43 44 44 44 42 40 42 43 36 34 42 43 40 35 34 34 36 37 35 36 37 38 34 26 26 23 26 34 35 32 30 27 25 18 16 19 25 23 24 24 24 19 18
46 46 44 42 42 43 43 42 41 40 42 43 39 32 37 34 36 36 34 33 34 33 36 33 33 36 36 29 27 27 34 35 35 34 33 28 22 21 21 22 27 24 24 24 22 21 19
46 45 44 42 41 41 42 42 42 40 42 41 35 36 37 36 36 35 35 32 32 34 34 32 28 31 30 32 28 25 31 32 30 32 31 31 23 25 25 28 27 24 25 25 25 23 22
46 45 43 42 42 41 41 41 41 40 41 38 39 42 39 34 35 34 32 32 31 34 35 33 33 33 34 34 33 29 35 33 31 30 30 28 26 24 19 27 25 22 23 22 22 23 23
46 44 43 42 41 42 42 42 42 41 39 39 40 41 40 31 35 33 32 33 32 32 31 32 30 32 35 41 38 37 38 39 39 39 34 29 26 26 18 24 17 21 27 24 23 23 24
45 43 42 41 40 41 41 41 39 41 40 37 42 41 41 34 33 36 33 34 33 32 31 29 32 28 38 37 34 34 32 33 34 36 39 35 29 25 23 22 23 24 22 22 21 22 26
43 42 41 41 41 41 40 40 40 41 40 37 42 43 43 39 35 37 35 34 34 32 31 33 32 43 41 36 31 28 29 30 29 31 34 33 33 28 26 23 22 24 25 25 25 21 27
42 42 41 40 40 39 39 40 41 41 40 38 43 47 43 38 42 39 37 35 36 34 31 34 43 42 42 35 29 25 24 30 27 28 28 32 30 29 28 26 23 23 27 23 17 16 28
40 39 39 39 39 38 39 39 40 42 42 41 41 47 42 38 40 44 44 39 38 35 32 37 41 42 38 35 30 27 28 29 27 28 27 29 30 29 26 23 23 27 27 18 21 32 31
39 39 39 38 38 39 40 40 41 43 43 43 40 46 47 43 40 43 43 44 45 38 37 45 37 40 40 36 35 34 30 32 31 24 34 23 28 28 28 26 28 31 25 27 32 31 31

GFSGBSN_sfc_30mbdewp_024.txt.gz
Dewpoint
49 49 52 51 51 51 51 52 53 54 55 56 58 58 57 56 55 55 54 54 53 53 52 52 52 51 47 25 18 52 56 54 50 40 31 26 27 27 23 21 18 18 17 18 18 39 40
49 48 49 51 51 50 50 50 52 53 54 54 55 58 57 56 55 55 54 53 53 52 52 52 52 50 43 11 39 51 49 45 41 36 31 27 29 29 26 25 20 21 21 24 32 38 40
47 49 49 49 48 50 50 51 51 51 52 54 54 57 58 57 56 55 54 53 53 52 52 52 51 48 40 19 42 45 42 38 38 33 28 29 31 27 27 25 26 26 20 27 35 38 38
48 48 49 49 48 49 48 49 51 51 51 51 53 55 57 57 56 54 53 53 52 52 52 52 51 47 28 34 42 42 42 37 32 35 31 27 29 28 27 27 25 20 18 24 30 34 36
49 47 48 49 50 50 49 50 50 51 51 51 51 52 55 57 56 54 53 52 52 52 52 52 47 46 25 35 31 38 39 33 31 29 29 29 28 27 27 23 18 17 14 22 26 33 35
45 50 47 48 48 49 50 48 50 50 51 51 51 52 53 56 56 54 52 51 51 50 49 49 46 33 26 25 34 37 40 35 32 31 29 29 26 23 24 21 16 18 17 21 25 27 33
42 45 48 48 47 48 49 49 48 50 50 51 51 52 54 54 56 52 50 45 39 42 44 36 23 20 20 34 39 32 36 36 32 29 26 26 23 21 19 22 22 23 19 17 21 22 29
44 44 44 46 48 47 47 49 49 49 50 50 51 51 51 54 55 51 49 40 41 44 38 41 41 36 35 39 37 33 34 27 28 25 26 25 22 22 23 24 23 22 19 19 21 19 21
43 44 44 44 46 48 47 47 49 48 48 49 49 49 49 54 53 50 46 42 46 47 40 34 40 40 39 41 33 31 28 27 25 24 25 23 21 24 24 22 21 21 20 20 20 20 24
43 43 44 44 44 46 48 47 47 47 46 50 49 49 49 54 49 47 44 48 49 48 29 25 36 39 41 39 27 32 27 23 22 20 23 22 24 23 21 21 22 17 23 22 22 17 16
44 43 43 43 44 45 48 47 47 46 45 44 47 48 49 52 47 46 48 47 48 47 16 22 38 40 38 26 25 27 27 23 20 20 22 18 22 23 21 20 22 19 24 23 23 21 21
45 44 43 43 42 44 46 47 46 45 46 46 47 48 49 52 50 48 48 50 50 36 14 14 33 33 29 25 25 25 25 23 23 20 25 22 25 26 24 23 23 24 22 24 25 24 17
46 45 44 43 43 43 44 46 47 45 46 46 46 47 51 51 47 50 51 46 39 30 22 18 31 27 24 21 22 22 23 22 19 17 18 22 21 26 28 22 25 24 22 18 16 16 14
46 45 45 44 43 42 43 45 47 45 46 45 44 46 50 50 50 50 51 41 30 29 21 30 27 23 20 21 20 23 20 20 19 19 19 18 17 22 27 23 21 23 22 18 12 13 15
46 46 45 44 43 42 42 44 46 46 46 45 43 45 46 47 51 49 45 33 30 31 32 27 24 22 20 20 21 21 21 20 19 19 15 18 17 28 29 30 26 22 19 22 23 29 24
46 46 46 45 44 43 41 42 46 47 45 44 42 43 42 48 51 47 41 33 33 35 37 36 23 25 21 22 19 21 21 21 19 20 20 20 17 29 29 30 29 23 27 20 23 16 16
46 46 46 46 44 43 42 42 44 47 44 44 42 37 39 51 51 44 34 33 33 36 37 36 35 32 24 23 20 21 20 20 21 20 22 25 19 20 30 25 22 24 22 22 22 21 14
46 47 46 46 45 44 42 42 44 45 44 43 40 31 48 50 40 38 33 34 34 35 35 36 37 37 34 23 22 20 19 19 22 24 20 27 22 16 19 26 29 24 22 22 18 17 22
43 45 46 47 46 44 43 42 42 45 44 41 36 36 48 45 32 34 34 34 35 32 33 34 35 36 33 26 21 22 22 23 26 23 21 27 20 15 15 20 27 25 25 25 24 23 20
43 44 46 47 47 44 43 42 42 45 44 40 37 30 40 41 33 32 32 32 33 36 33 34 36 37 34 31 27 21 21 32 31 25 28 26 23 15 12 13 22 22 24 26 24 21 20
43 43 44 44 47 45 43 43 43 44 43 40 38 31 36 32 34 33 31 31 32 32 35 34 34 35 34 30 27 27 32 35 34 35 30 24 18 21 18 21 25 24 22 25 23 23 21
42 43 43 44 46 45 43 43 45 44 43 37 34 33 37 35 33 33 34 31 32 33 35 34 31 32 34 34 30 26 33 32 30 33 30 30 23 23 22 27 27 25 25 25 24 24 23
43 43 43 43 46 44 44 45 44 43 42 37 38 40 39 32 33 31 31 32 32 33 34 34 33 31 32 30 31 31 32 34 33 30 30 27 25 23 20 27 25 23 24 24 25 25 24
43 42 43 43 45 44 44 45 44 42 41 37 37 39 37 30 33 31 29 32 32 33 32 33 35 33 33 39 38 37 37 39 38 36 33 27 25 24 20 23 18 22 27 25 24 23 24
42 42 43 45 45 44 44 42 43 42 40 37 39 38 39 32 33 33 31 32 33 33 33 34 34 33 35 38 34 34 33 33 34 37 35 32 26 22 19 20 21 22 24 23 22 20 25
43 42 42 45 44 44 43 43 42 42 41 37 39 41 41 36 32 34 33 32 31 30 32 34 35 36 38 35 32 31 29 30 30 32 34 32 30 23 23 20 19 22 25 25 24 18 27
39 42 45 45 44 43 43 42 42 41 41 38 36 39 40 35 40 37 34 33 33 32 31 32 33 36 38 32 30 28 29 31 29 28 32 32 30 25 24 24 26 27 25 24 18 19 27
41 45 44 43 43 42 41 41 41 40 40 39 35 39 42 37 38 42 42 35 35 34 31 35 35 38 37 32 32 31 28 29 28 30 31 31 31 29 27 27 26 26 25 21 23 27 30
44 43 43 43 42 42 42 42 41 41 41 38 34 38 42 41 41 43 42 41 40 37 35 37 33 40 38 36 34 32 30 30 28 25 32 28 30 28 29 28 30 29 26 26 28 29 31

GFSGBSN_sfc_30mbdewp_027.txt.gz
Dewpoint
49 48 48 48 50 49 48 49 51 51 54 54 54 55 57 58 57 56 55 54 54 53 53 52 52 52 47 27 11 53 57 54 51 39 28 26 26 26 24 22 20 20 19 19 20 35 42
48 48 49 47 47 47 48 48 51 50 51 51 52 54 55 58 58 56 55 54 54 53 52 52 52 51 41 18 44 53 51 47 41 35 29 28 29 29 27 26 21 23 20 24 33 40 40
51 48 49 49 49 48 46 47 48 49 50 51 51 53 54 56 58 57 55 54 53 53 52 52 52 48 40 20 43 49 44 38 40 33 26 27 30 28 28 26 27 27 23 29 36 39 38
46 49 50 47 48 48 48 47 46 48 50 50 51 51 52 52 55 57 56 54 53 53 53 52 51 46 28 33 40 40 43 38 35 36 31 29 30 29 28 28 25 20 20 25 31 36 38
44 45 47 50 47 47 48 48 47 46 47 50 51 51 51 51 54 56 55 53 52 52 53 52 47 46 23 33 30 34 39 33 32 31 31 29 29 28 27 23 19 20 15 23 28 34 36
43 44 44 47 49 48 47 47 48 46 48 49 50 50 51 53 53 55 54 52 51 50 50 49 46 37 29 20 33 40 40 35 31 30 29 29 27 25 25 21 16 18 18 21 26 29 33
41 41 42 44 45 48 49 46 47 48 45 47 49 50 52 51 54 54 51 47 38 40 46 38 31 26 18 32 40 35 38 36 32 30 26 27 25 22 20 22 21 23 20 18 21 23 30
44 43 41 42 44 45 47 49 47 49 48 46 46 49 49 49 54 52 49 45 40 44 40 42 41 37 33 38 36 36 37 30 29 25 26 25 23 23 23 23 23 23 20 19 22 20 26
45 45 44 43 42 44 44 47 48 47 48 48 47 48 48 48 53 51 48 46 47 48 43 39 41 39 38 39 35 33 34 29 26 25 26 23 21 24 23 24 23 22 20 21 21 21 26
45 45 44 44 44 43 44 45 47 48 46 47 45 49 48 50 50 48 46 48 49 48 31 23 33 37 41 39 31 34 31 26 24 23 25 23 24 23 23 22 23 19 23 23 22 19 16
46 45 45 45 44 44 44 44 46 48 47 45 45 48 48 50 48 45 47 48 49 46 10 21 38 40 41 30 25 29 29 23 21 21 23 19 22 24 22 21 23 20 25 23 23 20 22
46 46 46 45 45 44 44 44 45 45 48 45 44 44 45 48 50 48 49 50 49 35 15 15 35 36 35 31 25 27 25 24 24 22 25 21 25 26 24 24 23 25 24 24 25 24 17
46 46 46 46 46 45 44 44 44 46 46 46 43 44 44 48 45 51 51 47 37 30 24 18 31 31 29 23 24 24 25 22 20 19 19 21 22 26 28 23 26 24 22 19 16 17 14
46 46 46 46 46 45 45 44 44 45 46 48 44 45 47 46 51 50 49 41 31 29 25 29 26 26 25 22 22 22 23 23 21 20 20 17 16 23 27 23 21 24 22 19 12 14 15
46 46 46 46 46 46 45 44 43 45 45 47 44 44 44 47 48 49 45 33 25 31 31 28 23 23 21 21 19 22 22 23 22 20 17 19 17 25 29 30 24 23 22 24 23 29 23
47 46 46 46 46 46 45 44 43 44 45 45 43 42 41 46 49 48 40 31 33 34 36 36 27 23 22 20 20 20 22 23 21 21 21 21 16 28 30 30 29 23 26 22 23 16 15
47 47 46 46 46 46 46 45 43 44 44 46 41 37 38 45 48 42 32 30 32 35 36 35 36 33 26 23 20 21 20 21 22 20 22 23 18 21 29 27 25 25 23 23 24 22 15
46 47 47 47 46 46 46 45 44 43 45 45 39 30 41 44 35 36 32 32 34 32 36 35 37 37 36 26 22 20 21 21 23 23 20 25 22 17 21 26 27 26 24 24 19 18 22
44 44 44 48 47 46 47 46 44 43 44 42 35 33 43 41 29 31 33 32 32 33 32 34 34 35 36 31 22 22 22 24 26 22 22 26 21 16 17 21 27 26 25 24 25 25 21
43 43 43 44 45 47 47 46 44 43 44 41 37 30 38 39 34 31 30 31 32 34 32 34 35 36 34 31 30 23 23 27 27 25 27 26 22 17 16 17 19 21 24 26 23 21 22
42 43 43 43 44 45 47 46 44 44 44 41 37 32 34 30 32 32 30 29 30 30 35 34 32 32 34 28 29 27 28 34 33 34 28 24 18 20 18 18 20 19 20 25 23 23 21
43 43 42 42 44 44 47 46 44 44 44 39 33 33 35 32 31 31 31 29 30 31 30 33 30 31 31 32 30 28 30 31 31 34 29 29 21 22 19 24 23 21 24 25 25 24 24
43 43 42 42 43 43 45 45 45 44 43 38 38 39 35 31 32 30 28 30 30 31 32 32 32 31 33 32 35 35 33 32 33 32 30 28 25 23 18 26 25 23 25 25 25 26 25
42 42 43 42 43 43 44 45 44 43 42 39 38 36 33 30 31 29 28 30 29 31 30 32 35 33 33 37 37 37 37 39 37 36 33 28 26 25 21 24 20 23 27 26 25 25 26
42 43 44 43 43 42 43 45 44 43 42 38 39 37 34 29 32 32 30 29 32 32 33 32 35 36 37 33 34 27 30 33 35 36 34 31 27 23 22 22 22 21 24 23 21 19 24
44 43 44 43 43 43 44 45 44 43 43 38 38 42 37 30 32 31 31 30 29 32 33 33 36 38 36 35 29 31 23 30 31 33 33 31 29 25 23 19 18 22 24 27 24 20 24
43 43 43 43 42 42 45 44 43 43 43 38 39 41 39 35 38 38 31 32 32 32 32 35 35 36 36 30 30 28 28 32 30 30 32 30 28 24 23 22 24 27 26 25 21 23 26
43 43 43 42 42 44 44 44 43 43 42 37 38 40 38 37 37 38 40 35 33 32 30 34 34 34 36 30 30 31 28 29 30 31 32 30 27 26 26 24 22 28 25 23 27 27 29
42 43 43 43 45 44 44 45 43 43 42 38 35 42 41 36 38 44 43 42 40 34 32 34 31 33 34 33 31 31 31 31 29 27 31 30 30 28 29 27 33 28 28 28 28 27 31

GFSGBSN_sfc_30mbdewp_030.txt.gz
Dewpoint
51 49 49 48 49 49 47 49 49 50 51 51 51 51 52 54 56 58 57 56 55 54 54 53 53 53 45 29 18 46 58 53 44 36 26 25 25 25 22 23 23 22 21 21 23 26 40
47 49 51 48 48 48 48 49 49 50 49 50 51 51 53 54 55 57 57 56 55 54 53 53 53 51 40 23 37 50 45 44 34 32 28 27 27 28 26 25 24 24 23 25 27 33 41
46 46 48 51 49 48 47 49 47 46 49 49 50 51 51 52 52 54 56 57 55 54 54 53 52 47 40 28 37 45 43 37 35 30 27 26 28 28 28 25 27 25 24 26 28 38 37
45 45 45 46 49 50 47 47 48 47 46 48 49 49 50 50 51 52 55 56 55 54 53 53 52 46 34 31 34 43 39 35 36 32 30 29 30 30 29 28 25 22 20 21 30 35 38
43 43 45 46 46 47 50 48 46 48 47 46 46 48 50 50 51 52 54 55 54 53 52 52 48 45 28 37 31 30 39 32 32 32 31 29 30 29 28 20 17 19 15 20 24 32 35
43 42 43 45 46 46 46 49 49 46 47 46 45 47 49 51 52 53 54 53 52 50 50 49 45 40 33 20 26 34 33 35 32 31 29 28 29 24 21 17 12 14 15 16 22 29 32
43 44 44 44 44 45 44 45 49 48 45 46 45 46 48 50 50 53 52 49 43 42 46 37 33 31 18 27 38 35 36 32 32 31 28 30 25 18 14 17 21 21 17 15 19 26 28
46 45 44 45 45 44 42 44 45 49 47 46 46 45 47 48 48 53 52 45 43 44 37 38 38 36 34 32 31 33 37 29 31 27 27 26 21 18 22 21 22 22 18 17 20 22 23
46 46 46 45 45 46 44 43 44 46 49 47 46 45 47 47 49 52 49 47 47 48 43 36 40 35 34 35 29 27 33 30 28 25 26 22 20 25 23 23 22 22 18 20 19 22 22
47 47 46 46 45 45 46 45 45 45 45 49 46 46 47 47 47 48 47 49 48 48 32 21 30 34 36 32 28 28 32 28 26 23 24 24 23 23 22 20 22 19 21 22 22 19 14
46 46 46 47 46 46 46 45 45 44 45 47 48 45 47 47 49 47 46 50 51 48 5 18 34 38 37 27 24 29 31 27 22 23 25 20 21 22 21 19 22 19 24 22 22 19 20
47 47 47 47 46 46 46 45 45 44 44 46 47 45 47 46 45 48 50 51 49 34 12 16 34 36 34 32 24 27 28 27 24 21 23 19 24 23 20 24 23 26 24 25 24 22 16
47 47 47 47 47 46 46 46 45 45 44 45 46 47 45 43 40 47 52 49 34 24 19 14 29 33 29 25 24 23 23 23 20 18 19 19 20 22 25 21 25 24 20 16 16 17 15
47 47 47 47 47 47 47 46 45 45 45 45 46 46 45 44 43 46 49 43 22 12 18 27 28 29 26 20 21 23 20 20 20 18 17 16 15 20 25 22 21 22 18 16 15 15 13
47 47 47 47 47 47 47 47 46 45 45 45 46 46 44 44 44 47 44 31 12 16 22 23 23 26 26 21 19 22 20 18 20 20 16 16 14 22 27 27 24 24 20 21 22 28 18
47 47 47 47 47 47 47 47 46 45 45 45 41 41 42 44 46 44 37 29 16 22 25 23 18 21 21 23 16 20 21 21 20 21 19 20 15 22 28 29 28 25 25 20 22 17 14
47 47 47 47 47 47 47 46 46 46 45 45 40 35 40 44 44 38 30 28 22 24 29 31 24 19 22 25 19 19 19 23 23 23 21 18 17 25 29 26 21 25 22 23 23 21 14
47 46 45 46 47 47 47 47 46 46 45 44 37 31 41 43 34 34 32 29 25 22 32 33 33 29 29 24 23 19 18 20 24 22 22 21 20 16 17 26 28 23 20 23 20 19 23
45 44 43 44 46 48 47 47 46 46 45 42 34 36 43 39 27 30 28 28 28 25 27 34 32 33 36 31 25 23 21 26 27 24 20 25 21 17 15 22 27 24 24 24 26 26 18
42 42 42 43 44 46 47 47 47 46 46 40 36 30 37 38 29 27 21 22 26 29 26 31 33 34 35 33 32 27 24 28 29 24 27 26 18 16 14 13 16 22 22 24 23 20 17
43 43 43 43 43 44 44 47 47 47 46 39 36 32 34 29 30 24 25 24 26 23 28 29 30 31 33 31 30 29 27 34 31 31 25 26 17 18 16 15 15 15 15 19 20 19 15
42 43 43 43 43 44 44 47 47 46 45 39 33 32 34 31 29 23 25 22 25 23 21 27 29 31 31 31 27 32 32 30 31 33 28 29 19 22 20 19 19 17 17 16 17 16 15
43 42 43 44 43 43 44 44 48 46 44 37 38 34 31 26 29 25 26 24 23 25 23 23 23 26 27 31 32 37 38 35 33 34 31 29 25 23 17 25 24 22 23 19 19 20 20
44 44 43 44 43 43 43 44 47 46 43 38 36 34 33 26 28 26 24 25 24 25 24 25 28 30 34 35 37 37 33 38 38 35 35 32 29 29 21 27 23 20 27 23 21 20 24
43 43 44 44 43 43 43 43 45 45 43 37 38 36 32 28 28 25 26 24 24 25 25 25 34 33 36 36 29 25 28 31 34 37 36 34 31 27 27 23 21 22 24 25 24 22 24
42 44 44 43 43 43 43 42 46 44 43 39 38 38 35 28 27 29 28 28 26 27 28 27 34 39 39 37 33 26 19 20 27 34 35 34 34 31 28 23 22 21 24 27 26 20 23
42 43 42 42 43 43 42 42 46 44 43 39 39 40 35 29 31 31 30 32 27 25 28 30 36 36 38 35 34 30 25 22 19 32 32 32 32 30 28 26 24 27 26 27 22 22 28
44 42 42 43 43 42 42 43 45 44 43 38 38 42 36 32 35 39 38 33 28 27 29 31 33 35 36 32 32 32 32 33 25 26 34 31 30 30 30 29 25 29 26 24 27 34 31
43 42 43 43 43 42 43 45 44 44 44 39 37 42 41 34 38 39 39 40 41 29 30 36 28 30 33 30 30 30 34 34 28 29 34 30 32 30 29 27 32 30 28 30 33 30 32

GFSGBSN_sfc_30mbdewp_033.txt.gz
Dewpoint
47 48 49 51 50 49 49 49 48 49 50 49 50 51 50 50 52 55 56 57 57 56 55 54 54 53 48 33 25 49 55 49 39 35 24 18 20 22 19 17 19 18 19 19 21 23 35
46 47 47 47 49 51 48 49 49 48 47 48 48 49 51 50 51 53 54 56 57 56 55 54 54 52 42 31 29 42 41 37 30 30 27 26 25 25 25 22 21 22 21 20 21 26 33
43 45 46 47 47 48 50 49 47 48 48 46 46 48 49 51 50 51 52 54 55 56 55 54 53 48 39 32 29 38 38 33 29 29 27 26 26 26 26 22 23 22 20 21 23 28 29
43 44 44 46 47 47 48 49 50 47 47 47 46 48 48 49 50 50 52 53 54 56 55 53 53 45 35 32 27 36 38 31 31 29 28 28 28 28 27 25 22 19 18 22 30 28 31
44 45 44 45 46 47 46 47 49 50 48 47 47 46 47 48 49 51 52 53 54 55 52 52 49 44 32 35 27 30 37 28 28 28 29 27 27 26 26 20 15 15 14 27 28 25 30
43 43 45 46 45 46 46 47 46 48 49 47 46 46 46 47 49 50 50 53 53 51 50 48 45 40 36 24 23 20 38 32 27 27 26 26 25 23 19 16 11 13 12 16 24 25 26
44 43 44 45 45 46 44 44 46 46 48 50 47 46 46 46 48 48 50 46 44 45 44 30 33 24 20 23 31 23 34 35 31 29 25 28 24 20 17 15 13 19 16 16 21 29 22
47 46 45 46 46 46 45 45 45 46 47 48 50 46 46 46 47 48 50 42 37 44 30 29 32 32 33 29 28 23 29 32 30 27 27 26 22 21 18 14 16 17 15 14 19 19 20
47 47 46 46 46 46 46 47 46 45 46 47 48 49 46 46 48 46 46 40 44 45 35 27 28 29 27 30 25 23 30 29 27 25 23 22 21 20 18 16 17 16 15 18 16 20 18
47 47 47 47 47 46 47 47 46 46 46 46 47 46 47 47 45 37 42 42 44 48 29 16 28 31 30 28 25 23 27 26 23 22 22 21 22 20 17 17 16 14 16 20 17 16 15
47 47 47 47 47 47 47 47 46 46 46 46 48 46 47 47 42 43 42 45 48 49 6 11 21 32 28 26 15 23 24 25 22 22 22 21 21 20 18 17 18 17 23 20 19 18 18
47 47 47 48 48 47 47 47 46 46 46 45 45 47 47 46 45 44 46 52 49 28 8 14 30 30 31 27 16 20 22 26 24 21 20 21 20 19 17 18 20 20 21 20 20 19 17
48 48 48 48 48 48 47 47 47 46 46 46 45 47 47 44 39 41 47 50 30 14 4 9 22 29 28 26 20 20 21 23 21 19 18 21 19 19 20 20 21 21 19 16 18 17 17
47 47 48 48 48 48 48 47 47 47 46 46 45 47 45 45 42 42 44 41 16 9 8 21 17 26 26 22 24 22 22 19 20 18 18 17 16 18 21 19 18 19 17 16 22 24 20
47 47 47 48 48 48 48 48 47 47 46 46 45 42 40 41 45 42 40 31 21 10 6 10 20 24 24 22 21 20 19 17 18 17 16 15 15 17 19 21 19 19 19 17 16 21 20
46 46 47 47 48 48 48 48 48 47 47 46 43 38 36 42 45 40 35 30 26 17 7 11 13 20 21 21 18 18 19 17 16 16 19 17 14 16 19 22 22 21 23 19 20 22 19
45 46 46 46 48 48 48 47 48 47 47 46 42 37 35 43 45 39 29 28 24 23 13 6 15 19 20 22 19 16 19 18 17 16 18 19 18 16 22 21 18 21 22 22 20 18 19
45 46 46 46 46 47 48 48 48 47 47 46 40 32 37 44 36 34 29 30 23 21 16 19 23 24 17 19 24 17 17 18 19 17 18 20 18 17 20 21 18 20 20 21 20 21 23
45 43 42 46 47 47 46 48 48 47 47 43 36 35 41 41 29 30 30 25 21 15 22 18 20 29 28 21 20 24 19 19 24 22 20 21 18 18 17 17 22 20 24 25 24 22 26
43 43 43 42 46 46 46 47 47 47 47 44 36 30 37 40 35 29 25 23 21 19 16 20 19 24 24 29 28 24 24 25 24 24 25 25 19 18 18 15 17 18 18 20 21 24 23
44 44 44 43 42 44 44 44 46 48 47 43 36 31 36 30 32 30 24 22 19 14 14 19 19 27 25 19 21 24 27 28 31 27 28 25 22 21 18 16 14 13 16 18 19 20 21
42 42 43 43 43 43 43 44 45 48 48 41 32 32 35 32 33 28 26 21 18 16 15 19 20 24 32 31 27 30 30 31 25 27 27 26 22 20 16 16 13 12 13 14 16 17 18
42 42 42 42 43 43 43 43 44 47 47 38 38 33 30 28 31 28 27 23 18 17 16 19 19 21 22 24 34 40 39 38 36 33 30 26 27 23 19 17 15 16 16 16 14 14 15
42 42 43 43 43 43 44 43 44 45 46 39 39 31 32 26 32 27 25 23 20 16 13 15 18 21 26 34 34 34 36 32 38 34 33 30 28 27 23 26 21 22 21 20 19 17 17
44 44 44 44 43 43 44 44 44 44 47 40 38 33 33 30 30 27 24 22 20 18 19 19 18 21 25 31 29 27 32 31 31 30 30 35 33 27 26 24 20 18 20 21 19 18 18
43 44 44 44 44 43 43 44 44 42 45 41 40 36 35 30 29 26 24 23 21 19 25 22 25 35 35 31 27 19 13 16 25 31 32 32 37 32 29 23 20 22 22 23 21 20 20
42 43 44 44 44 44 43 44 43 42 45 42 42 38 36 31 32 31 27 26 22 22 25 32 35 37 36 34 32 22 19 14 19 31 33 34 35 34 31 26 23 22 21 23 22 21 22
42 42 44 43 43 44 44 43 42 43 44 43 40 42 38 35 33 38 34 27 24 27 27 28 29 34 35 31 25 19 25 22 18 19 33 33 31 33 31 28 27 25 26 22 24 25 29
43 43 43 43 43 43 44 43 41 44 44 44 38 41 40 38 40 40 41 40 33 27 28 32 31 33 31 26 24 22 27 29 22 21 26 27 34 30 28 28 32 30 27 28 25 28 32

GFSGBSN_sfc_30mbdewp_036.txt.gz
Dewpoint
47 47 47 47 48 49 51 50 49 47 46 46 46 48 49 50 50 51 52 53 54 56 57 56 56 55 49 36 33 49 51 45 38 32 31 19 17 18 20 19 15 13 15 18 18 21 26
44 45 46 47 47 47 47 48 51 48 46 47 46 46 47 49 50 51 51 51 52 55 56 56 56 54 47 35 32 48 43 37 28 27 26 19 21 24 23 22 18 21 21 19 18 19 28
45 45 45 46 47 48 47 48 48 50 49 47 47 45 46 47 49 50 50 51 52 53 55 56 55 51 44 40 31 29 38 33 28 25 25 25 25 25 24 24 20 19 19 17 19 21 28
44 45 46 46 46 47 48 48 48 49 49 50 48 47 46 45 46 49 50 51 52 53 55 56 54 48 41 37 35 34 33 34 28 26 27 26 26 25 25 26 23 19 16 15 23 26 35
44 45 44 46 47 46 47 47 47 47 48 49 49 48 47 46 45 47 50 50 49 52 55 54 49 47 34 33 33 28 30 33 28 27 27 27 25 23 22 21 17 16 13 17 23 27 35
43 44 45 46 46 47 47 47 47 48 48 49 49 49 47 46 46 45 49 47 46 53 52 49 46 37 36 26 27 28 28 33 25 25 26 26 22 21 20 20 15 14 18 18 24 25 26
44 45 45 46 46 47 45 45 46 47 47 47 49 48 49 46 46 46 46 43 40 48 48 38 34 26 19 31 24 22 23 32 27 25 23 23 21 18 18 18 15 13 19 21 22 26 25
47 46 45 46 47 47 46 46 46 47 47 47 48 48 48 48 47 47 45 42 33 41 36 31 35 33 33 32 25 25 23 31 27 24 24 22 22 22 21 20 15 13 13 16 19 24 21
47 47 46 46 46 47 47 47 47 47 47 46 47 48 47 48 47 45 42 39 41 42 35 22 19 21 21 26 28 25 20 31 27 25 24 23 24 25 21 18 15 13 13 12 17 23 21
47 47 47 46 47 47 47 47 47 48 47 47 47 48 46 48 43 39 36 36 39 41 30 9 11 25 22 24 22 26 22 25 26 24 23 22 23 22 20 17 14 13 13 18 20 18 13
47 47 47 48 48 48 48 48 48 48 47 47 47 48 46 47 42 40 46 49 45 46 9 -1 4 25 27 24 22 24 24 24 23 22 22 21 22 20 20 15 14 14 21 20 19 16 17
46 47 47 48 48 48 48 48 48 47 48 47 47 48 46 44 45 43 44 48 46 30 10 2 26 25 24 26 23 21 21 23 24 21 21 20 21 20 21 17 17 17 21 22 21 17 17
46 47 47 48 48 48 48 48 48 48 48 47 47 47 46 38 41 42 47 47 32 16 3 -0 21 27 24 24 23 23 19 19 20 20 20 19 18 21 20 16 17 18 18 17 15 15 19
46 46 46 47 48 48 48 48 48 48 48 47 47 46 44 39 42 44 45 39 15 7 12 6 7 19 25 25 25 23 20 18 22 20 20 18 16 19 18 17 16 19 18 19 16 21 24
45 45 46 46 47 48 48 48 48 48 48 47 47 45 42 42 42 45 40 29 20 6 3 10 10 17 19 25 23 23 18 20 21 21 19 18 16 18 19 18 19 19 18 19 18 28 29
45 45 46 46 47 47 48 48 48 48 48 48 45 43 41 42 43 43 35 29 27 14 7 7 6 8 13 23 22 21 18 19 20 22 22 19 17 19 18 19 20 18 19 22 21 17 21
44 45 45 46 46 47 47 48 48 48 48 48 44 38 40 41 44 39 29 28 25 23 17 11 13 13 10 11 20 21 20 20 22 20 20 20 20 19 20 18 17 18 19 23 26 21 23
44 44 44 45 46 46 47 47 47 48 48 47 41 32 40 42 34 34 31 26 26 22 20 18 14 13 10 13 19 24 20 19 20 21 18 20 20 19 19 19 20 19 19 19 21 21 23
43 44 44 45 45 46 46 46 47 48 48 45 37 37 39 41 28 30 31 31 24 23 21 19 17 15 14 23 32 33 30 26 22 22 19 21 18 19 20 20 22 19 18 23 24 25 25
43 44 44 45 46 46 46 47 47 47 49 46 38 31 37 39 33 29 30 29 25 23 22 19 15 15 16 22 31 35 35 27 27 22 24 27 20 19 21 19 22 20 18 18 25 26 26
44 44 45 44 44 44 44 45 47 47 49 45 37 32 36 30 32 29 28 24 24 21 21 22 18 18 16 19 27 32 35 36 34 31 23 26 22 21 21 19 19 18 18 17 17 29 27
44 44 44 44 44 44 43 44 47 48 49 43 31 34 34 28 33 30 28 27 22 21 20 18 19 15 15 17 26 31 37 37 34 33 26 28 23 24 23 23 18 18 18 16 16 16 16
42 42 42 43 43 43 44 43 45 46 48 42 37 38 33 30 32 30 29 28 25 23 21 19 17 17 18 17 26 38 42 42 39 38 35 28 27 25 24 23 20 17 18 16 15 17 18
42 42 43 43 43 42 43 43 43 45 45 41 37 38 35 29 30 29 28 28 26 24 22 21 19 16 19 39 41 42 41 41 40 36 37 33 28 27 26 26 19 21 19 16 16 16 18
42 43 43 44 44 43 43 43 43 43 44 42 39 39 35 31 30 27 26 26 26 26 25 22 20 18 23 39 37 35 35 34 35 37 34 33 33 29 26 25 22 18 21 20 20 19 19
44 44 44 44 44 44 44 43 43 43 43 41 40 42 38 31 29 27 25 26 26 25 26 25 24 23 24 22 33 30 23 22 27 28 31 33 37 34 28 25 23 25 25 23 21 20 22
44 44 43 43 43 44 44 44 44 43 43 42 39 42 40 36 32 29 27 27 26 27 27 27 24 25 25 28 29 29 21 16 18 23 28 28 33 34 32 28 26 26 25 23 21 23 25
45 43 43 42 44 44 44 44 44 43 44 42 40 43 41 38 36 37 36 32 29 27 27 25 27 31 32 28 29 26 24 21 13 17 33 29 33 33 35 29 25 29 24 23 26 30 28
42 43 43 42 45 43 44 44 43 44 43 41 39 44 43 40 40 39 42 39 39 32 28 28 29 35 37 32 28 28 24 23 23 23 27 28 32 35 34 32 33 29 28 31 30 30 30

GFSGBSN_sfc_30mbdewp_039.txt.gz
Dewpoint
45 46 45 46 47 48 48 48 49 51 50 47 45 46 46 46 48 50 51 51 51 51 53 55 56 56 52 44 39 46 49 47 40 33 32 31 22 17 16 21 23 15 14 17 20 18 26
46 46 46 46 45 46 46 47 48 49 49 50 48 45 45 46 46 47 49 50 50 51 52 53 55 55 50 39 38 47 45 40 34 29 28 31 24 19 24 23 24 22 21 20 20 19 30
45 45 46 47 47 47 47 48 49 49 49 49 48 48 46 45 45 46 47 49 50 51 51 53 55 54 48 40 38 44 40 37 33 28 25 27 25 24 25 24 27 26 22 20 19 18 33
45 45 46 46 46 48 48 48 48 48 48 49 49 48 48 47 44 45 46 47 49 49 49 52 55 51 44 41 40 39 38 36 34 29 27 26 28 26 25 26 24 22 20 17 19 32 34
44 44 44 46 46 47 47 48 48 48 48 48 49 49 48 49 48 46 46 46 47 48 49 51 52 48 42 39 37 37 36 32 35 31 27 27 26 25 25 23 22 22 18 16 16 26 36
44 44 45 46 47 47 47 48 48 48 48 48 48 49 49 48 48 47 47 46 46 47 50 52 50 43 43 29 32 33 32 28 34 29 27 26 25 23 22 21 18 19 17 20 23 29 35
45 46 46 47 48 48 47 47 47 47 48 48 48 48 49 47 48 48 47 43 41 47 49 45 41 33 30 33 32 29 31 26 32 27 24 26 24 21 20 20 21 19 17 16 22 27 32
45 45 46 46 46 46 46 47 48 48 48 48 47 48 48 48 48 48 46 41 40 39 38 41 44 42 42 40 34 31 24 24 31 27 24 24 23 23 23 22 21 21 18 14 16 26 26
46 46 46 46 46 46 46 47 47 48 48 48 48 48 48 47 48 47 42 40 40 38 37 34 35 29 26 25 28 29 23 22 30 28 23 23 23 24 23 23 22 20 18 13 16 23 23
46 46 47 46 46 47 47 47 47 48 48 48 48 48 47 46 44 43 40 44 48 44 35 25 15 20 20 19 21 25 29 24 30 27 26 25 25 24 24 24 21 17 15 15 17 19 18
46 46 46 47 47 48 48 48 48 48 48 48 48 48 47 46 44 42 43 43 43 46 -16 11 10 15 17 19 22 24 26 26 27 28 26 25 24 24 23 23 21 17 17 22 22 21 20
45 45 46 47 47 47 48 48 49 48 48 48 48 48 47 45 44 43 44 44 47 35 18 11 22 23 23 18 21 23 23 26 23 27 27 25 25 24 22 23 21 18 22 21 23 22 19
44 45 45 46 46 47 47 48 49 49 48 48 47 48 46 42 38 44 47 42 33 20 -0 -5 20 22 23 24 21 22 23 22 21 19 22 23 22 22 22 21 21 19 19 18 18 19 18
44 44 45 45 46 46 47 48 49 49 49 48 48 47 47 43 41 40 44 37 26 14 12 7 7 23 25 23 25 25 23 22 22 22 22 21 19 21 21 21 20 18 19 18 15 17 21
43 43 44 44 45 46 47 47 48 49 49 47 47 46 45 44 43 43 40 28 21 20 12 7 5 8 11 26 24 24 23 23 23 21 20 20 19 21 19 20 19 17 18 20 20 31 25
42 43 44 44 44 46 46 47 48 49 49 48 45 44 42 44 44 41 35 27 26 25 17 15 9 8 7 15 24 25 24 22 23 20 22 22 20 22 21 19 20 18 21 19 22 20 21
42 42 43 43 44 45 45 46 47 48 48 48 45 38 41 44 44 37 30 28 26 27 26 24 16 10 10 14 15 14 23 24 21 21 22 21 21 21 22 19 18 19 18 21 25 26 23
41 42 43 43 43 44 44 46 46 48 48 47 42 33 41 43 34 33 29 30 29 23 26 26 22 20 18 17 16 16 28 29 33 29 22 22 22 19 20 23 21 20 19 20 24 24 25
42 42 43 43 43 44 44 45 45 47 48 45 38 37 42 40 28 28 30 30 30 29 25 23 23 20 20 19 16 31 34 35 38 37 33 23 20 18 19 19 21 20 20 22 22 25 22
42 43 43 43 43 44 44 45 46 47 47 46 38 30 38 38 32 28 27 28 28 29 30 27 23 23 21 20 21 26 33 34 38 39 41 37 21 19 18 18 21 21 23 21 20 21 22
42 42 42 43 43 44 44 45 45 46 47 45 38 31 35 30 31 30 27 26 26 27 28 27 24 23 21 19 18 22 31 36 34 38 40 39 25 20 18 21 22 23 23 24 21 23 23
42 43 43 43 44 45 45 46 45 46 47 43 32 32 36 30 33 31 30 26 25 25 24 25 21 21 22 20 18 18 30 37 38 40 39 39 31 24 23 19 20 21 24 24 21 21 26
43 43 44 44 43 43 43 44 44 44 45 42 41 37 34 32 32 31 29 28 27 28 26 25 23 21 21 23 25 35 36 39 41 35 35 38 34 25 21 24 21 20 22 22 21 22 20
43 43 43 43 43 43 43 43 44 44 44 42 38 39 35 30 31 31 30 29 28 28 26 25 25 23 22 26 41 41 40 41 42 42 40 34 34 33 23 24 21 23 24 24 20 20 20
42 42 42 42 43 43 43 43 43 44 44 43 40 39 36 31 32 30 30 29 29 29 28 27 27 26 24 26 30 29 31 33 34 37 40 38 34 32 27 23 27 28 23 21 20 19 21
42 43 44 44 44 44 43 43 43 43 44 43 40 40 39 33 32 30 29 29 27 27 28 29 29 29 27 25 27 23 21 27 25 31 37 38 36 31 33 25 23 26 27 24 24 20 22
44 44 43 44 44 45 44 44 44 43 43 42 41 41 39 32 36 33 28 28 29 28 27 27 28 29 30 24 24 23 24 29 26 25 30 30 30 28 29 32 28 29 25 26 21 22 26
44 44 44 45 44 44 44 45 44 44 43 42 40 42 39 35 38 36 34 29 28 29 27 29 29 29 29 25 26 28 27 30 26 26 28 27 28 28 33 31 28 35 30 23 26 26 26
44 43 44 44 44 43 43 43 44 44 44 43 39 41 41 38 39 40 38 38 32 30 30 30 28 28 30 26 27 28 25 26 21 18 33 27 28 29 33 34 36 33 36 40 40 37 34

GFSGBSN_sfc_30mbdewp_042.txt.gz
Dewpoint
47 47 47 47 47 46 46 47 48 49 50 49 49 49 48 46 46 46 46 48 49 50 50 50 51 53 53 44 39 43 50 49 41 34 28 28 27 20 15 16 22 23 20 19 20 27 43
46 46 46 47 47 47 47 46 48 49 49 50 50 49 48 48 47 46 47 48 48 49 50 50 50 54 50 35 34 39 46 42 33 28 25 29 29 23 19 24 23 26 26 23 21 20 45
45 45 46 47 47 47 48 48 48 49 49 49 50 50 50 48 49 48 47 48 48 48 48 49 49 52 46 42 40 38 40 38 34 30 20 25 29 26 25 23 27 25 21 20 20 21 34
45 45 45 46 47 47 47 47 49 48 49 48 49 49 50 49 49 49 49 48 48 48 48 48 50 50 42 44 45 43 42 39 38 35 29 27 27 27 25 26 25 22 22 17 18 30 33
44 44 45 46 47 47 48 48 49 49 49 49 49 49 49 50 49 48 49 49 48 47 48 49 50 48 39 45 42 41 37 33 33 35 32 28 27 24 24 22 20 22 18 19 20 23 33
44 44 46 47 48 48 48 48 48 48 49 49 49 49 49 49 48 47 49 47 45 48 48 51 51 43 41 22 34 34 37 31 31 34 33 28 25 23 23 21 13 17 19 19 19 31 32
45 45 45 45 46 47 47 47 48 48 49 48 49 48 48 48 48 48 48 42 35 44 47 45 44 38 31 32 39 33 32 30 28 31 27 25 23 22 21 21 20 21 20 19 19 26 31
42 44 45 45 46 47 47 47 48 48 48 48 48 49 48 48 47 48 48 40 38 38 33 36 41 43 43 41 39 35 32 26 26 28 27 24 23 24 24 23 22 21 20 20 20 25 28
43 44 45 45 46 46 46 47 48 48 48 49 49 48 48 48 47 46 44 41 40 41 38 33 34 36 38 39 39 34 32 25 27 29 27 23 23 25 25 23 22 22 21 21 17 21 25
43 45 44 44 45 45 46 47 48 48 48 49 49 48 48 47 41 43 41 43 43 44 26 21 24 25 29 26 24 24 27 23 25 28 30 24 24 23 24 23 22 21 25 20 17 20 18
44 44 43 43 44 46 47 48 48 48 48 48 49 48 47 46 40 37 42 40 44 43 -34 -7 17 24 28 18 15 21 24 26 21 29 28 27 26 23 23 23 25 24 26 20 21 21 21
41 42 42 43 45 46 46 47 48 48 48 48 48 48 48 46 45 43 42 43 46 32 1 10 16 17 19 17 20 24 23 28 26 28 29 27 27 26 25 26 25 24 20 21 23 22 19
41 41 41 43 44 45 46 47 47 47 48 48 48 47 47 44 37 41 41 44 33 22 9 -6 17 23 18 16 16 21 22 22 23 21 22 27 27 27 26 23 24 22 20 17 17 18 17
39 40 41 43 43 45 45 45 46 47 48 47 47 47 47 46 43 42 40 37 25 18 9 12 11 10 21 21 17 17 21 21 22 22 20 19 20 24 24 23 21 21 20 17 15 16 17
38 39 41 43 43 44 45 45 46 47 48 47 47 47 45 45 44 44 37 28 25 22 20 11 4 2 5 13 24 20 22 22 23 22 20 20 19 22 23 23 22 21 19 21 18 29 24
37 39 41 42 43 44 44 44 46 47 48 47 46 44 42 44 44 40 33 27 27 26 22 23 16 8 8 12 19 25 25 25 25 24 23 22 20 23 21 22 22 20 21 18 23 16 17
39 40 42 42 42 43 43 44 45 47 47 47 45 38 42 44 43 37 27 28 26 26 26 24 20 21 14 14 16 18 19 26 29 27 24 22 21 20 22 22 20 20 18 23 22 24 18
40 41 41 42 42 43 43 44 44 46 47 46 42 33 43 44 33 32 27 29 30 28 28 26 26 24 18 19 18 16 19 21 37 36 32 33 21 19 19 20 23 21 19 20 18 23 26
40 41 41 42 42 43 43 44 44 45 46 44 37 36 43 39 27 28 28 28 29 28 27 26 24 24 22 19 17 19 24 39 38 37 37 38 31 20 19 21 22 20 21 21 23 26 23
40 40 41 42 42 43 44 44 44 45 46 44 37 30 37 38 33 28 26 25 26 29 29 29 28 28 23 21 21 20 25 34 37 39 40 39 36 30 23 20 20 20 19 20 21 20 20
40 40 41 42 42 43 43 44 44 45 46 44 37 31 35 30 31 31 28 26 25 25 29 30 28 26 25 22 20 19 23 35 35 40 39 39 35 36 35 31 22 20 21 22 21 23 21
40 40 41 42 43 43 43 44 44 44 45 42 32 33 36 32 33 32 29 27 25 26 26 26 28 24 25 24 22 21 21 22 31 36 35 38 34 34 30 31 26 20 19 22 23 24 24
40 41 42 42 43 44 44 44 45 45 45 40 40 37 36 33 33 31 29 27 26 27 27 27 26 26 23 22 24 29 36 37 36 34 35 35 33 31 26 30 26 21 20 20 25 25 24
41 41 42 43 44 44 44 44 44 44 46 43 41 39 34 30 32 31 29 29 27 27 27 27 29 27 26 26 38 40 39 40 40 38 36 34 33 32 28 29 25 26 25 21 23 24 23
42 43 43 43 43 43 43 43 43 43 44 43 41 39 36 30 33 30 30 28 29 28 29 28 27 28 29 27 27 27 30 32 35 38 37 35 33 30 25 27 30 26 26 26 23 22 23
43 43 42 42 43 43 43 43 43 43 43 43 42 41 38 32 32 33 30 30 28 28 28 28 31 30 29 27 27 21 19 24 26 33 40 36 35 29 29 22 24 28 28 28 27 22 23
42 41 42 42 43 44 44 44 43 43 44 42 42 41 37 31 35 35 30 29 30 29 28 28 29 30 31 27 24 23 21 26 22 26 30 30 30 29 29 26 29 36 34 31 25 25 31
42 42 43 43 44 44 44 44 44 44 44 43 40 42 38 33 35 38 36 31 30 29 27 28 28 30 30 26 26 24 24 26 25 28 28 25 26 27 29 27 24 38 34 31 36 40 41
44 44 44 44 45 44 44 44 44 44 44 43 39 42 42 36 36 41 40 39 35 31 29 30 27 26 30 29 28 27 26 28 26 22 32 26 26 25 29 23 33 39 37 38 42 42 42

GFSGBSN_sfc_30mbdewp_045.txt.gz
Dewpoint
46 46 47 47 47 47 48 48 48 49 49 48 49 49 48 48 47 50 49 48 48 48 48 48 48 50 51 42 32 42 49 50 44 32 25 26 26 19 15 16 20 20 23 25 24 24 36
45 45 46 47 47 47 46 47 47 49 49 49 49 49 49 48 48 49 49 50 49 49 49 48 48 50 47 30 33 39 49 45 33 31 27 29 24 24 21 20 23 25 25 24 23 35 46
44 46 46 47 47 47 47 48 48 49 48 48 48 49 49 49 49 50 49 49 49 49 49 48 48 49 46 33 41 40 39 37 34 29 22 26 28 27 25 23 26 25 21 21 20 26 37
43 44 44 45 47 48 48 48 49 49 49 49 47 48 49 49 49 49 48 48 48 49 49 48 48 49 39 43 45 43 43 36 36 35 32 28 28 26 26 25 24 21 22 18 20 31 34
41 43 44 46 48 48 49 49 49 49 49 49 50 49 49 49 49 49 48 48 48 49 49 48 49 47 35 44 42 43 41 32 29 34 34 30 28 25 25 22 21 22 14 18 19 22 31
41 42 45 46 46 47 47 48 49 49 49 49 50 50 50 49 49 48 48 48 47 48 47 48 50 40 37 24 33 37 41 35 27 33 33 32 27 23 23 20 14 13 17 19 19 21 33
41 42 42 44 45 46 46 47 48 49 49 49 49 49 49 49 49 48 47 44 32 40 39 39 41 38 37 38 40 37 36 32 29 32 29 26 23 22 22 22 20 20 19 18 19 21 23
40 41 43 44 45 45 46 47 48 48 48 48 49 49 49 49 48 48 46 41 38 39 36 39 36 36 42 43 39 34 35 24 26 26 29 25 22 24 24 23 22 21 20 19 21 21 24
42 42 42 44 44 44 45 46 47 48 48 48 49 49 49 48 48 44 44 42 42 42 38 38 35 29 26 38 36 33 36 27 25 26 28 27 24 25 24 23 23 23 22 20 20 21 29
42 41 43 43 43 44 44 45 46 48 48 49 49 49 48 48 42 42 41 41 39 44 32 17 28 26 30 35 33 33 31 27 26 23 29 27 27 24 24 22 23 21 23 22 23 21 17
42 41 40 43 43 43 45 45 46 47 48 49 49 48 48 47 40 39 38 41 41 43 -28 -4 21 25 30 24 16 27 27 26 22 28 29 28 26 25 23 23 24 22 24 24 24 22 20
42 39 39 41 41 43 45 46 47 47 48 48 48 48 47 47 45 44 43 41 44 30 -6 0 15 23 26 23 18 23 24 27 27 24 29 28 28 25 23 24 24 24 25 23 24 23 19
41 41 40 38 40 42 44 45 46 47 47 47 48 48 47 44 38 41 41 40 32 22 15 0 11 19 20 19 16 22 19 21 22 22 21 25 27 29 27 25 26 25 22 18 17 17 17
41 40 39 38 39 42 43 44 46 45 46 46 47 48 47 46 44 42 39 35 24 22 19 14 10 6 20 16 14 20 20 16 23 22 21 18 16 24 28 27 24 23 22 19 15 15 15
39 39 39 38 39 41 43 43 45 45 46 47 47 46 46 46 44 43 34 27 23 25 22 21 14 1 8 15 23 19 20 20 18 23 19 19 19 21 24 25 25 23 21 22 19 27 22
39 39 38 38 40 42 43 43 44 45 45 47 44 44 43 45 44 41 31 25 27 28 26 23 17 18 12 13 19 24 25 27 23 23 23 22 20 23 22 23 24 22 23 19 22 16 17
38 38 38 38 40 41 42 43 43 44 45 46 43 38 43 45 44 37 25 23 26 27 28 25 23 16 17 16 18 17 19 32 33 31 29 23 21 20 22 22 20 20 20 22 21 22 16
38 37 38 38 39 41 42 43 43 43 44 44 40 32 44 44 33 33 26 25 26 26 28 26 26 26 23 21 16 15 16 18 37 36 33 36 27 20 20 22 22 22 21 21 19 19 26
38 37 37 38 40 41 42 42 43 43 44 42 35 35 44 41 28 28 28 26 27 28 27 27 25 27 23 19 16 18 19 36 38 36 33 34 33 26 21 21 22 20 20 20 24 25 19
37 37 37 38 40 41 42 42 43 44 44 42 34 30 36 39 34 28 28 26 26 28 28 29 29 28 25 23 23 19 23 25 37 36 40 39 36 33 30 32 34 32 28 21 21 20 20
38 38 39 40 40 41 41 42 43 44 44 42 35 30 35 29 31 31 28 26 25 24 28 28 26 27 26 24 22 21 21 26 33 39 35 35 28 35 35 31 29 29 30 29 22 21 19
37 38 39 39 40 41 41 42 43 44 44 39 31 32 36 34 34 32 30 27 25 24 25 26 28 28 27 24 23 19 21 21 24 33 32 36 27 33 30 29 27 26 27 28 27 22 23
38 38 39 40 40 41 42 43 43 43 43 38 38 38 36 34 33 31 29 28 28 27 27 26 27 26 26 26 27 26 26 24 26 32 34 34 31 29 23 29 26 18 28 26 25 23 23
39 39 39 40 41 42 43 43 43 44 44 40 39 37 33 29 32 30 30 29 28 28 26 28 27 26 27 29 31 37 40 37 35 35 36 34 32 31 26 27 13 13 29 23 27 25 23
39 39 40 41 42 42 43 43 44 44 44 42 42 38 35 29 32 32 31 30 29 28 28 27 27 29 30 28 27 26 29 33 35 36 35 34 32 27 22 25 22 18 21 26 30 31 31
40 41 41 41 42 43 42 42 42 43 44 44 42 42 38 32 30 34 33 32 31 28 27 28 30 30 30 29 30 25 19 22 27 34 38 35 34 27 28 22 12 7 22 32 36 30 32
41 41 42 42 43 43 43 43 43 43 43 42 41 43 38 31 35 33 32 32 34 30 28 28 29 29 31 28 27 25 23 24 20 28 29 31 31 28 28 26 26 29 33 35 29 30 39
42 42 42 42 42 42 42 43 43 43 43 42 39 44 38 33 35 38 37 32 32 31 28 29 29 30 30 27 27 28 24 24 23 28 28 27 27 27 28 27 23 31 38 26 36 38 41
42 42 42 43 43 43 43 43 44 44 44 43 38 43 43 37 35 37 38 39 38 32 30 30 28 29 29 28 30 29 24 26 24 21 31 26 26 24 27 24 30 39 38 38 38 39 41

GFSGBSN_sfc_30mbdewp_048.txt.gz
Dewpoint
45 45 45 46 47 47 47 46 47 48 48 48 49 48 48 47 46 47 49 49 49 49 50 49 48 48 48 41 31 39 49 54 48 34 27 25 26 20 15 16 18 17 20 24 24 24 26
41 44 44 45 46 47 47 47 47 48 48 48 48 48 48 48 47 47 48 49 48 48 49 49 49 48 47 24 31 41 40 45 36 31 28 27 25 24 19 19 20 24 24 24 23 22 45
42 42 42 44 45 46 47 48 48 48 49 49 49 49 48 47 48 49 49 48 48 47 47 47 49 47 42 27 38 39 40 36 35 29 24 27 27 27 25 23 25 25 22 21 20 21 36
43 44 43 45 46 48 48 48 49 48 49 49 49 50 50 49 49 49 49 48 48 47 47 47 49 47 37 42 45 43 42 36 35 34 32 30 28 26 25 25 23 22 21 17 20 30 33
42 42 41 45 47 47 48 48 49 49 49 50 50 50 50 50 50 49 49 49 47 46 48 49 46 44 29 42 41 41 41 30 27 33 33 31 28 25 25 23 21 21 15 16 17 22 31
41 43 44 42 44 45 45 46 47 49 49 49 49 49 49 50 50 50 49 47 44 47 46 47 47 38 30 9 34 37 43 38 27 30 32 32 30 24 23 21 14 16 17 19 17 22 30
41 42 42 41 44 45 45 45 47 48 48 49 49 49 49 49 50 49 47 41 35 36 38 39 38 35 32 41 41 38 37 35 30 33 28 31 27 23 22 22 19 18 19 18 18 20 20
42 42 40 40 41 43 44 44 46 47 48 48 49 49 49 49 49 49 44 40 39 39 35 38 37 37 38 40 37 27 35 26 27 21 29 25 24 25 24 23 21 20 19 17 18 21 21
39 41 42 39 40 43 43 44 45 46 47 48 49 49 49 49 49 43 42 42 40 40 37 35 36 35 31 32 31 26 33 28 24 26 28 24 24 24 24 23 22 22 20 18 16 21 24
40 41 41 41 38 44 43 43 44 44 46 48 48 49 49 49 42 41 37 41 40 41 30 22 29 31 28 33 30 29 30 27 27 22 27 28 28 25 24 22 23 19 23 21 21 21 20
41 41 40 41 39 40 43 42 43 44 46 48 48 49 49 48 42 40 37 42 39 43 -9 0 22 27 33 21 15 27 30 26 24 25 28 27 27 26 23 23 24 20 23 22 23 23 22
39 39 41 38 38 41 40 41 43 44 45 47 48 48 48 46 46 44 44 40 43 28 1 1 17 26 29 27 21 27 28 27 26 27 30 26 29 27 26 26 24 25 24 25 25 24 20
40 41 42 41 38 38 39 41 43 44 44 46 47 47 47 45 39 42 41 38 30 22 20 8 12 17 19 22 21 21 21 23 18 20 21 24 27 28 26 24 25 24 22 20 18 19 19
40 41 41 40 39 37 39 40 43 44 44 46 46 46 46 47 44 43 39 33 23 23 22 22 19 16 16 19 16 21 19 17 22 23 22 19 16 25 28 26 24 24 23 20 17 16 16
35 38 39 39 40 40 38 39 42 43 44 45 45 44 45 46 44 42 33 24 21 23 25 23 19 12 14 16 22 19 17 15 18 23 18 19 18 22 25 27 27 25 22 23 20 25 21
36 38 38 40 40 40 39 39 41 41 43 45 41 41 40 46 44 40 31 23 25 28 27 27 17 19 15 16 16 20 24 33 24 22 24 22 18 23 23 24 25 24 24 21 22 17 17
36 37 37 39 39 38 38 38 40 41 43 44 39 36 41 45 45 37 26 27 24 23 25 26 25 22 19 16 16 12 17 30 36 33 27 22 22 20 22 21 20 22 22 22 22 21 17
36 37 37 37 38 38 38 38 40 41 43 42 38 31 43 45 34 32 28 26 24 25 28 27 27 25 24 22 18 13 15 28 39 37 31 35 27 20 20 22 22 22 21 22 20 19 25
36 37 36 36 37 37 38 39 40 42 43 39 34 34 44 43 28 29 31 28 25 28 27 27 27 27 25 19 15 19 24 33 30 37 34 35 32 27 23 23 31 29 27 31 25 23 19
36 36 36 35 38 36 37 39 40 42 43 41 34 28 36 39 36 30 30 28 25 27 27 28 29 28 25 23 23 21 22 24 28 37 38 36 34 27 27 29 33 30 29 29 30 25 21
36 36 37 37 37 36 37 38 39 42 42 41 34 29 35 29 31 32 30 27 26 24 26 28 26 27 26 23 23 20 21 23 23 35 35 33 25 32 32 31 32 29 26 26 25 27 26
36 36 37 37 36 37 37 38 40 42 42 39 31 31 34 33 32 32 31 29 26 25 24 26 26 28 27 25 24 21 21 21 20 20 34 35 26 32 28 31 28 25 26 26 25 27 27
35 36 36 36 37 36 37 39 41 41 41 38 38 37 35 30 32 31 30 29 29 26 26 25 27 27 26 25 27 28 27 26 25 24 27 33 31 28 23 29 26 21 21 22 23 23 26
34 35 35 37 37 37 38 40 40 41 42 40 38 37 32 27 29 30 31 31 30 28 25 27 27 27 28 30 30 30 29 28 28 29 31 32 31 30 25 26 16 16 27 25 24 26 28
38 38 38 38 39 40 40 40 41 42 42 42 40 36 33 27 29 32 32 33 30 29 29 27 29 28 30 29 30 27 28 32 32 34 32 35 31 27 24 23 21 19 16 15 19 11 27
38 39 39 40 39 39 40 40 42 42 43 43 41 41 37 31 29 30 33 34 31 30 29 29 29 30 29 28 27 24 20 21 27 30 37 35 32 28 26 23 14 14 26 36 33 19 36
39 41 41 42 41 41 41 42 42 43 43 43 41 42 39 31 34 33 31 32 35 32 29 30 30 30 30 29 27 23 22 24 22 24 29 31 31 28 24 25 24 28 31 36 25 19 34
41 41 40 42 42 41 42 42 43 43 43 43 41 43 39 32 36 37 35 34 36 33 30 30 30 32 32 28 27 26 26 25 23 28 30 27 26 26 26 25 19 28 36 25 28 33 34
41 41 41 42 42 42 42 42 41 41 41 42 38 43 43 36 36 38 39 37 35 34 30 30 27 30 30 29 28 26 25 25 24 20 31 25 26 24 27 24 29 36 36 38 38 35 37

GFSGBSN_sfc_30mbdewp_051.txt.gz
Dewpoint
44 43 44 43 43 46 46 47 47 48 48 48 48 48 48 47 46 48 49 49 49 47 47 46 47 49 47 37 17 37 43 51 52 38 28 27 29 24 20 20 19 19 18 20 22 24 25
44 42 42 41 42 45 45 46 47 48 48 49 50 50 49 49 48 48 49 49 49 49 47 46 47 49 44 21 26 40 40 38 42 33 29 27 24 23 19 17 18 22 20 24 25 23 37
41 42 43 42 44 45 47 48 48 48 49 49 50 50 50 50 50 50 49 49 49 48 48 46 46 48 40 21 34 38 39 35 36 32 27 28 28 25 25 23 24 25 23 23 22 21 31
41 41 41 41 45 48 47 47 47 47 48 49 49 50 50 50 50 50 50 50 49 48 48 47 47 46 31 40 44 43 41 37 35 33 33 29 28 26 26 26 24 23 22 19 20 29 37
43 41 40 42 43 44 46 47 47 47 48 49 48 49 50 50 50 50 50 49 48 46 49 49 46 42 19 38 42 39 39 32 31 32 32 32 29 25 26 23 22 22 16 17 17 23 35
42 41 42 42 42 42 45 45 46 48 48 48 48 49 49 49 50 50 49 47 45 47 47 47 45 34 31 13 34 38 43 39 27 30 31 30 29 24 24 22 13 16 18 19 16 23 32
41 41 42 42 41 41 43 43 44 47 47 47 48 48 49 49 49 49 47 41 37 35 38 37 36 35 33 40 41 39 40 38 31 29 31 31 26 21 21 23 20 19 17 17 19 20 20
40 42 40 39 41 40 41 43 44 45 45 46 47 48 49 49 49 48 43 40 39 38 34 37 37 36 37 39 35 33 34 30 28 22 30 28 27 25 24 23 21 20 18 18 19 21 21
41 41 38 38 41 38 40 43 43 43 44 45 47 48 49 49 49 42 40 41 40 40 36 34 36 35 34 33 31 27 33 29 24 25 28 26 26 26 24 23 22 22 21 20 18 21 23
41 42 41 38 40 40 38 43 42 42 43 45 47 48 48 48 40 42 37 42 42 40 31 25 32 33 31 32 26 28 27 28 26 22 27 27 27 24 23 23 23 21 23 22 20 19 12
39 43 41 42 37 41 37 39 41 42 43 44 47 47 48 48 44 40 40 44 41 43 -1 6 25 29 31 27 19 26 28 25 26 25 26 24 27 25 23 21 24 20 23 22 22 21 22
39 40 41 39 41 40 39 39 38 42 43 43 45 46 47 46 46 43 43 41 42 29 8 10 21 28 27 27 24 29 28 28 25 27 30 22 30 27 23 25 24 24 22 25 26 25 22
39 39 41 40 40 41 37 38 40 41 42 43 44 46 45 46 40 42 43 36 26 20 21 17 19 19 17 21 25 24 25 23 18 18 24 27 26 27 26 25 25 24 22 18 19 21 20
39 38 40 40 40 40 38 38 38 40 41 42 44 45 44 45 45 44 39 31 21 20 24 24 23 22 15 18 20 19 22 19 23 22 18 18 19 27 28 26 24 24 22 19 14 18 17
39 39 38 38 39 38 40 39 38 40 41 43 44 43 43 45 46 44 33 23 21 22 26 26 24 16 16 17 20 21 19 18 17 23 18 19 18 25 28 28 26 25 22 24 22 24 21
37 38 37 38 39 39 41 40 39 39 40 42 41 39 38 45 46 41 31 25 24 27 27 27 21 20 17 17 14 15 24 32 31 27 24 23 18 22 23 26 27 24 26 22 23 16 16
36 39 38 37 38 39 40 39 39 38 40 42 40 34 38 46 44 37 27 26 25 24 23 25 25 23 23 21 18 12 17 27 33 36 26 23 21 21 22 22 21 24 23 23 24 23 17
38 36 36 36 37 38 39 39 38 39 40 41 36 27 42 45 32 32 29 31 26 23 27 24 28 25 24 21 18 17 18 30 30 38 33 35 24 19 18 22 24 22 23 24 22 20 24
37 37 36 36 37 38 38 39 38 39 40 39 33 30 40 43 26 27 32 31 26 26 26 27 28 28 27 22 18 16 23 27 26 35 36 36 30 25 24 24 31 30 32 30 30 26 21
35 35 35 36 36 36 36 38 37 39 40 40 33 27 33 37 34 30 30 28 27 27 25 28 28 29 26 24 24 21 21 23 24 31 38 36 31 27 23 26 32 29 27 27 28 27 25
35 35 35 36 36 35 36 38 37 39 40 38 34 29 31 28 28 31 31 31 26 24 26 27 27 27 27 24 23 21 22 22 22 25 35 33 24 27 25 28 31 28 25 24 25 25 23
34 35 36 36 36 36 37 38 37 37 39 37 31 30 34 29 31 31 30 30 27 26 25 25 25 27 27 25 24 21 22 21 20 23 33 29 26 32 27 31 30 27 27 25 25 24 24
36 36 34 34 34 35 38 38 37 37 39 34 35 37 34 30 27 28 27 29 30 28 27 26 28 29 28 27 29 28 28 27 26 25 24 25 31 28 22 29 26 20 23 23 21 21 21
34 34 33 34 35 35 34 35 37 38 39 36 37 37 31 25 29 27 27 32 29 29 27 28 28 30 29 31 31 31 30 29 29 28 27 27 31 30 25 26 16 15 25 25 23 23 23
34 34 34 34 35 36 36 37 38 39 40 38 37 36 33 25 27 27 28 30 34 32 30 31 31 30 34 33 30 27 27 30 30 31 31 29 31 27 24 23 21 18 18 15 16 14 28
34 34 34 36 37 38 38 37 39 38 40 39 38 40 36 30 26 28 28 30 30 31 32 33 34 35 32 33 29 22 20 23 25 28 36 34 32 29 27 20 15 16 30 34 31 19 31
37 37 37 38 39 39 40 40 39 39 40 39 38 41 37 31 32 30 27 29 35 33 31 32 33 34 35 30 25 23 21 25 21 23 26 29 30 26 27 24 24 26 27 33 21 19 30
38 38 39 38 39 41 42 42 41 40 40 40 39 43 37 32 35 33 31 32 34 34 30 31 32 33 32 27 26 26 24 25 21 28 27 24 24 25 26 25 21 28 35 29 28 34 35
39 39 40 41 41 41 40 42 42 41 41 41 38 43 42 36 35 38 37 37 35 36 33 33 29 32 34 29 29 27 25 26 25 20 31 26 27 26 27 25 29 33 34 38 37 38 38

GFSGBSN_sfc_30mbdewp_054.txt.gz
Dewpoint
43 42 42 44 43 44 44 45 47 48 48 49 49 49 49 49 48 49 50 50 49 49 48 48 47 47 45 27 13 24 40 44 46 41 29 28 21 14 12 14 20 19 15 18 19 20 23
44 44 44 43 43 43 45 47 48 48 48 49 50 50 49 49 49 49 50 50 50 50 49 48 48 47 42 27 19 30 36 34 35 38 36 29 22 19 19 17 18 17 17 17 19 21 22
42 43 43 42 41 47 48 47 47 47 47 49 50 50 50 49 49 49 50 50 50 50 49 48 48 45 40 28 23 31 32 29 33 33 28 32 29 23 19 18 19 17 19 19 20 20 19
42 42 41 42 43 44 44 46 47 47 47 48 48 49 50 50 50 50 50 50 49 49 49 49 49 44 30 32 33 36 34 27 26 32 32 27 28 25 25 22 22 18 19 15 15 17 22
41 42 42 42 42 43 43 46 46 47 48 48 48 49 49 50 50 50 49 49 49 47 49 49 45 42 24 34 33 33 32 27 22 24 32 31 28 24 21 21 17 19 14 15 15 18 21
42 41 43 42 42 41 42 42 45 45 46 47 47 48 49 50 50 49 49 47 45 47 45 45 42 37 28 12 29 38 40 38 27 20 32 30 27 20 18 17 15 14 15 13 13 15 22
42 43 43 40 41 42 40 40 44 45 45 45 46 47 48 49 49 49 44 38 32 34 34 29 28 29 29 36 37 36 41 40 31 23 24 29 24 19 15 16 17 14 14 11 9 15 18
43 41 40 41 39 41 41 40 44 44 44 44 45 47 47 48 49 48 41 37 37 37 34 34 33 33 31 31 32 31 36 31 31 20 20 30 25 22 21 19 16 15 14 12 12 18 16
41 40 43 41 40 40 41 40 40 44 42 43 45 46 47 48 48 43 40 41 41 39 33 32 33 33 33 31 26 23 34 30 28 26 14 22 20 24 24 21 19 17 14 15 14 17 18
40 41 40 43 41 40 38 39 38 40 40 42 44 46 48 47 43 41 37 40 41 41 32 19 22 29 32 29 24 25 22 28 24 21 22 20 18 24 24 20 19 16 18 19 17 17 8
41 42 39 42 41 41 40 39 36 40 39 42 44 45 47 47 42 38 40 42 41 42 6 9 22 29 29 24 22 26 25 17 17 22 23 23 20 20 20 20 18 17 19 21 19 18 14
41 42 41 38 41 41 42 40 40 38 40 42 43 44 46 42 44 41 41 43 41 29 6 12 19 19 25 23 23 26 27 20 16 23 25 21 24 21 19 20 21 21 21 21 22 17 15
41 39 40 38 40 41 41 40 39 38 40 41 42 43 44 41 38 43 44 37 26 9 15 18 20 21 20 17 23 24 26 21 14 12 17 22 21 27 26 17 22 20 19 16 15 14 13
40 38 39 38 39 41 41 41 39 39 39 41 42 44 41 38 42 45 41 30 17 13 18 23 23 19 15 18 20 20 24 20 17 14 8 11 15 23 27 23 21 21 19 14 11 13 13
38 38 39 41 39 38 39 40 40 40 39 40 42 38 39 38 42 45 35 23 10 15 21 24 19 15 14 16 17 20 21 21 17 21 12 11 11 22 26 27 22 22 21 21 17 23 20
35 37 39 38 40 38 39 40 40 39 39 39 38 36 34 38 44 42 32 20 19 24 27 25 19 21 17 18 14 15 23 28 31 20 24 20 16 20 24 26 26 25 23 21 21 15 14
38 38 37 37 40 39 38 39 39 39 39 39 38 32 32 41 44 37 26 22 22 21 24 24 24 22 21 19 17 12 21 25 28 35 29 21 23 23 23 23 23 24 23 22 21 19 15
35 35 36 39 38 36 36 38 39 40 39 40 34 26 40 44 33 31 27 24 26 23 24 22 23 24 22 22 19 17 14 23 27 30 28 22 24 20 19 24 24 23 21 22 18 19 21
36 36 38 38 38 37 37 39 38 39 39 37 29 28 38 42 26 27 29 29 27 23 22 22 23 26 24 22 19 17 17 24 25 28 33 33 22 14 16 20 24 25 26 26 27 26 22
37 37 36 35 36 37 37 38 38 38 39 38 31 26 31 35 33 28 24 26 25 27 24 25 23 27 25 23 22 19 18 20 23 25 31 34 28 21 10 15 23 27 26 25 26 24 21
35 35 34 36 36 36 36 36 37 37 38 37 33 27 26 26 26 27 28 29 23 23 25 24 23 23 23 25 22 21 20 21 20 23 31 32 27 24 23 24 23 23 24 23 23 24 22
35 35 36 36 37 38 36 36 37 39 39 36 30 26 30 24 26 26 25 26 24 25 26 23 22 24 25 25 25 20 22 22 21 22 26 29 20 23 20 19 25 23 22 21 21 20 20
34 35 35 35 36 37 36 36 37 38 39 32 34 33 33 23 22 22 23 25 22 27 27 25 25 24 28 27 28 27 28 28 27 25 25 25 29 22 13 24 20 14 19 20 20 20 17
33 34 35 35 36 35 34 36 37 38 38 34 35 34 30 23 25 22 21 21 22 24 26 27 30 28 31 33 30 29 30 29 29 28 27 24 30 29 19 26 13 12 22 22 20 18 16
33 33 34 34 35 35 35 36 37 39 38 38 35 35 31 23 20 19 21 21 22 27 32 34 30 32 35 36 31 25 25 28 28 27 26 26 27 26 22 18 15 16 13 14 15 9 22
35 33 33 34 35 36 36 36 37 37 37 37 38 37 33 27 26 20 20 22 23 23 27 33 37 37 37 33 30 21 18 19 23 26 26 27 27 25 25 15 13 15 26 29 27 15 27
37 36 35 35 36 36 37 37 37 37 37 37 35 38 34 28 28 27 25 22 27 31 30 33 34 35 37 30 26 21 19 23 20 22 27 27 26 24 21 23 20 22 21 27 23 25 30
40 38 37 37 37 37 38 38 39 39 38 37 35 38 35 30 32 33 28 27 27 30 29 33 33 33 31 28 25 23 21 20 19 24 25 24 23 23 21 22 21 25 27 24 35 34 32
40 40 38 38 38 38 39 39 40 40 40 39 35 38 40 34 34 34 32 33 29 29 33 36 32 33 32 27 25 25 24 25 19 17 26 25 22 21 21 21 28 31 33 33 36 36 37

GFSGBSN_sfc_30mbdewp_057.txt.gz
Dewpoint
42 44 43 44 44 44 43 45 47 48 48 48 49 49 50 49 48 49 50 50 50 50 50 49 49 48 40 29 29 21 33 36 44 42 35 28 25 22 18 14 13 13 14 13 12 11 16
43 43 43 44 44 43 47 48 47 47 47 48 50 50 49 48 49 49 50 50 50 50 50 49 49 48 38 28 25 20 28 15 21 38 34 28 26 22 16 12 11 12 17 15 14 14 15
43 43 43 43 43 43 45 44 46 47 47 48 48 49 49 48 49 49 50 50 50 49 50 49 49 46 35 25 22 26 31 27 16 12 24 34 30 21 18 16 18 16 15 16 14 15 15
44 43 43 43 43 43 44 43 45 47 47 47 48 48 49 49 50 50 50 50 49 49 49 49 50 43 30 23 25 28 30 29 30 18 22 29 28 29 22 20 19 18 16 13 15 15 16
43 43 42 44 42 43 42 43 43 45 46 46 47 47 48 49 50 50 49 49 49 49 48 49 46 40 26 29 24 22 29 31 30 18 18 26 25 26 26 21 20 20 15 15 17 16 15
40 41 42 43 42 42 42 41 41 45 46 45 45 46 47 49 49 49 49 47 45 46 47 42 38 38 32 13 24 33 36 28 36 23 17 17 23 23 21 20 16 16 16 17 15 16 16
43 43 42 42 43 41 40 43 42 45 45 44 44 45 47 48 48 49 47 38 32 36 31 25 24 30 25 29 28 30 39 38 35 28 14 16 17 17 21 21 19 17 17 15 16 14 14
42 42 43 43 40 41 39 42 42 42 45 43 42 44 46 47 48 48 45 35 36 38 34 32 30 30 29 28 27 26 36 31 36 32 21 19 17 14 15 17 16 15 16 15 16 13 15
41 41 40 40 42 43 41 40 42 41 41 42 42 44 45 47 47 45 38 37 39 40 32 27 27 28 29 30 25 22 29 27 36 33 32 20 16 21 19 19 16 17 16 16 15 14 18
41 41 41 41 40 43 42 41 40 38 39 41 42 44 45 47 42 38 36 38 39 40 30 13 19 27 30 28 25 25 21 29 27 30 31 29 18 21 21 19 20 19 18 17 16 15 14
41 42 42 42 40 40 43 42 40 39 40 38 42 43 45 46 38 38 37 40 40 41 14 5 21 28 28 24 21 21 20 17 25 24 25 24 20 17 18 20 21 19 19 18 18 17 16
42 41 42 41 42 40 41 42 42 40 39 39 41 42 44 37 42 39 39 42 40 31 11 8 15 18 18 20 23 21 26 23 18 20 19 22 24 23 23 20 19 18 18 18 20 18 16
40 42 42 40 39 40 40 42 42 40 39 39 40 42 41 37 35 40 41 39 26 14 10 14 16 17 16 17 20 22 25 21 16 17 16 14 22 23 23 20 19 18 18 16 16 16 16
38 38 41 40 39 41 40 42 42 40 40 38 40 41 36 34 35 40 41 30 17 7 10 17 18 14 12 17 20 20 24 23 20 20 19 12 17 20 24 20 17 18 18 16 13 17 16
39 38 37 39 40 42 40 39 39 40 41 39 39 33 32 34 37 37 36 23 9 9 12 15 12 6 9 16 18 17 19 25 20 18 15 11 6 15 21 23 21 20 18 17 17 21 21
39 38 36 37 40 40 40 40 39 40 40 39 30 35 31 33 37 37 32 21 13 16 20 16 7 13 12 16 17 16 22 28 28 24 17 15 11 9 17 24 23 20 21 16 19 17 17
35 35 37 39 39 38 40 40 38 39 40 39 31 32 29 35 38 36 27 21 16 15 21 18 14 17 16 18 18 17 22 27 29 28 25 18 20 17 20 21 20 20 21 23 20 19 17
37 35 34 36 37 38 40 38 37 39 40 37 30 28 34 38 32 30 27 22 20 18 19 18 19 21 20 19 19 18 17 19 28 30 32 24 23 18 24 20 23 22 21 25 21 23 20
36 34 35 36 37 39 40 39 37 39 40 36 28 28 31 39 26 26 24 22 21 19 18 18 17 18 18 19 18 18 17 22 23 26 30 33 22 18 20 22 23 21 22 23 24 24 26
36 34 35 37 38 37 38 38 38 39 40 37 31 27 26 35 32 27 22 23 21 23 20 18 16 18 21 19 19 19 18 19 22 23 27 34 30 18 15 19 18 21 24 24 24 23 23
34 35 36 37 37 35 36 37 38 38 38 37 31 27 27 23 22 26 25 28 20 21 21 19 18 18 18 17 17 18 21 20 20 22 24 35 30 29 20 23 23 21 24 24 23 23 22
34 35 36 37 37 37 37 37 37 38 38 37 30 26 24 23 24 20 21 25 24 23 21 19 18 18 19 18 18 20 21 25 23 21 22 33 30 28 27 22 21 22 22 22 20 19 19
33 34 34 35 36 37 37 38 38 38 38 36 33 32 32 24 20 22 23 18 18 18 24 26 22 20 21 22 25 29 29 32 28 25 24 24 25 29 25 23 21 17 20 22 22 22 21
34 34 34 34 35 36 36 37 38 38 38 36 36 30 29 22 20 20 18 24 21 19 18 23 24 26 26 32 31 28 27 26 25 25 26 25 23 23 25 24 21 18 18 18 19 18 18
35 35 35 34 34 35 36 37 38 38 38 39 38 35 29 25 19 17 22 22 17 21 24 24 29 35 38 35 28 24 24 26 29 25 25 25 24 23 19 18 17 13 15 14 14 10 13
37 35 35 35 35 36 36 37 37 37 37 39 38 38 34 26 21 20 15 15 19 20 21 27 32 38 38 33 30 22 19 19 19 22 24 24 25 25 22 17 12 14 18 25 19 10 23
39 39 38 37 36 36 36 37 37 37 38 37 39 39 35 29 24 25 28 25 24 23 23 30 33 34 37 31 27 24 22 22 21 22 22 23 23 21 20 18 16 15 20 21 19 23 29
41 41 41 41 38 37 37 37 38 38 38 38 35 36 35 30 26 24 24 24 28 29 29 32 32 33 31 28 24 23 22 21 18 25 23 21 22 21 20 21 17 22 22 21 33 33 32
42 42 42 42 40 37 37 37 38 37 37 38 33 31 37 33 26 32 29 27 31 29 30 35 31 35 30 29 24 28 25 25 20 18 29 22 22 21 19 20 27 26 33 36 35 34 34

GFSGBSN_sfc_30mbdewp_060.txt.gz
Dewpoint
43 42 43 44 45 44 45 48 48 48 47 47 48 49 49 48 48 48 50 50 50 50 50 49 48 49 44 24 27 29 24 33 46 42 33 30 30 25 24 23 20 16 15 15 16 14 12
43 43 42 44 44 43 43 45 44 45 47 48 48 48 48 48 48 48 49 50 50 50 50 49 48 49 42 28 27 25 24 23 13 34 35 31 27 24 23 20 18 16 13 13 13 14 14
44 44 44 44 43 44 44 44 43 44 47 47 47 47 48 47 48 48 49 49 49 50 50 49 49 46 39 28 25 25 22 29 27 12 11 14 26 30 25 21 19 15 12 13 15 17 14
45 45 44 43 44 44 44 43 43 44 46 46 46 46 47 48 49 49 49 49 49 49 50 50 50 45 35 28 26 21 21 22 25 30 21 15 18 28 28 26 22 16 17 14 15 16 15
44 43 41 42 44 44 43 43 43 41 45 46 45 45 46 48 48 48 48 48 48 49 50 49 47 42 32 28 24 22 19 27 29 33 26 19 15 24 26 26 23 19 16 16 16 16 15
44 43 42 43 45 44 43 41 44 43 44 46 44 43 45 47 48 48 47 47 46 47 45 44 42 36 37 22 25 27 31 27 30 34 28 27 16 17 24 23 18 17 17 18 17 17 18
42 43 44 45 44 43 41 42 41 44 43 44 43 42 44 46 47 47 45 42 31 36 35 31 25 32 28 25 26 25 36 31 36 38 29 26 14 11 22 22 22 20 17 17 18 19 16
43 42 42 41 41 42 43 42 41 43 42 41 42 41 42 45 46 46 44 36 33 36 34 33 30 29 27 27 24 24 34 33 35 37 37 33 18 8 14 22 21 21 20 18 18 17 15
41 41 41 41 39 39 41 44 43 42 41 39 41 40 43 45 45 43 39 36 36 39 34 29 24 23 25 28 25 21 21 33 30 31 38 34 23 18 15 13 16 18 19 18 17 18 17
42 43 43 42 42 41 40 42 43 41 41 40 40 41 44 45 40 37 35 35 38 42 30 26 23 26 30 26 24 23 21 25 25 31 36 37 36 27 28 18 17 16 18 16 17 17 15
41 40 43 43 42 42 41 40 42 42 41 41 40 41 43 43 37 32 38 36 40 41 20 8 20 27 26 24 23 19 20 21 23 29 37 36 32 32 27 24 22 20 22 21 20 18 18
42 41 42 43 43 41 41 41 41 42 42 41 40 39 41 35 37 38 40 40 41 32 22 9 15 18 16 19 23 20 24 18 15 18 32 30 31 33 25 19 22 21 21 22 21 20 18
38 41 40 41 42 41 40 41 41 42 42 40 39 40 39 35 32 36 39 38 32 23 9 8 14 14 12 11 17 21 24 22 14 15 16 22 24 22 28 26 22 21 19 17 18 19 19
35 37 38 39 39 40 40 41 41 42 41 40 40 41 36 33 34 36 38 34 21 11 9 12 13 12 8 13 18 20 23 21 20 16 17 24 22 20 23 25 21 21 21 18 19 20 18
37 37 39 40 37 38 40 42 41 40 40 40 40 35 33 34 37 37 34 27 14 13 9 9 12 2 -1 11 15 17 19 22 22 19 19 22 20 21 24 27 22 23 24 21 21 22 24
38 38 38 38 38 38 40 41 41 40 40 40 36 33 28 33 39 36 31 23 19 16 12 17 8 0 7 10 14 14 25 31 28 22 21 18 19 19 17 23 25 25 25 21 20 19 21
34 37 37 36 36 38 39 39 40 40 40 40 36 29 27 36 36 33 26 23 20 20 14 16 14 7 12 12 15 16 18 31 30 29 31 20 19 20 19 17 21 22 23 26 26 19 22
34 36 37 37 35 37 37 38 39 38 38 38 36 28 31 36 31 29 27 26 23 18 16 14 18 17 17 17 16 16 17 19 25 28 31 33 22 18 24 24 21 21 21 22 25 26 23
36 37 38 37 35 37 37 38 40 39 38 35 32 26 28 38 27 25 23 22 21 19 16 15 16 15 15 14 14 15 17 20 22 23 28 29 25 21 20 25 27 22 23 23 25 31 33
36 36 37 37 36 36 38 39 38 39 38 38 33 25 24 33 30 25 25 21 20 18 17 18 15 15 13 14 16 16 16 20 21 21 27 26 32 27 19 27 33 29 23 28 27 32 33
34 34 35 36 36 37 38 38 38 39 39 38 33 27 24 26 24 24 24 29 22 17 20 17 17 15 13 15 13 14 15 16 19 24 26 33 32 31 28 28 26 26 28 25 27 33 32
34 34 35 35 37 37 37 37 37 38 39 36 30 25 21 19 25 27 22 22 21 25 20 19 16 14 15 13 15 14 18 27 20 25 23 35 30 32 29 29 24 21 26 34 33 22 23
35 34 34 35 35 36 36 37 38 39 38 35 36 32 32 27 25 19 26 21 16 17 22 28 24 21 15 23 30 30 28 33 32 29 26 29 30 31 26 27 24 20 20 27 29 21 19
35 35 35 35 35 35 36 36 38 39 38 35 36 32 28 22 19 20 19 25 26 18 16 15 28 27 32 35 31 29 25 25 26 25 25 24 23 29 26 31 21 20 19 19 21 21 22
35 35 34 35 35 35 35 37 37 38 37 38 36 34 30 23 19 19 18 21 20 26 23 22 25 34 38 37 28 21 20 23 23 23 23 24 23 26 27 24 28 25 18 15 16 18 18
35 35 35 36 36 37 37 37 38 38 38 37 38 37 33 28 22 19 19 22 24 24 23 22 30 37 35 33 28 20 15 16 16 20 23 24 26 24 24 22 21 18 21 22 18 14 21
38 38 38 38 38 38 37 37 38 37 38 38 35 38 36 30 25 23 27 29 31 30 25 24 32 33 35 31 26 21 18 20 20 21 22 23 25 23 23 22 20 16 18 21 17 27 31
39 39 40 40 41 41 39 38 37 38 38 38 35 38 37 31 27 24 23 25 25 31 30 31 32 32 32 27 25 21 23 24 23 27 27 22 24 24 22 20 18 18 21 19 35 37 36
40 40 40 41 43 41 41 38 37 38 38 38 33 37 39 36 26 29 28 26 24 29 34 36 30 33 33 30 25 27 28 27 24 21 34 28 22 21 20 20 24 28 34 35 35 36 35

GFSGBSN_sfc_30mbdewp_063.txt.gz
Dewpoint
43 43 43 43 44 44 42 44 45 45 46 47 48 48 47 47 47 47 48 49 49 49 49 49 49 48 46 37 34 29 35 34 46 43 36 33 24 25 27 27 28 25 22 20 19 18 18
43 45 44 44 44 44 43 44 44 44 45 47 47 46 46 46 46 46 47 49 49 49 49 49 49 48 43 33 33 26 27 26 23 22 31 33 29 27 27 25 24 24 23 20 18 16 15
46 44 45 45 44 45 44 45 43 43 44 46 46 46 46 45 45 46 47 48 48 48 49 49 50 46 41 36 33 29 30 27 28 31 15 16 15 16 27 29 26 23 20 18 16 13 13
44 45 44 43 45 45 45 44 43 43 42 45 46 45 46 46 46 47 48 48 47 47 47 48 50 47 39 39 38 33 28 23 22 27 27 28 19 15 25 29 28 26 22 17 17 17 17
45 45 44 42 44 46 45 44 43 43 44 44 46 44 45 45 46 46 46 47 46 46 48 50 48 46 39 37 34 31 28 21 25 28 28 30 19 15 19 24 25 25 20 18 17 19 17
43 42 44 45 46 44 43 43 44 43 45 44 44 43 43 44 45 45 45 45 44 47 47 45 44 43 40 30 26 25 28 30 23 32 34 28 23 13 19 23 22 23 20 18 18 19 19
41 42 43 42 42 42 43 43 44 44 45 43 42 42 41 43 44 44 43 42 33 34 35 33 36 38 34 29 25 23 32 31 36 38 34 29 23 15 12 21 23 23 22 22 22 21 22
42 42 42 42 41 40 40 41 43 44 43 42 40 41 40 42 44 43 44 40 37 38 34 35 34 32 32 30 26 25 25 33 36 35 38 34 26 24 19 15 24 23 21 22 22 22 23
43 43 43 41 41 41 41 40 42 44 43 42 41 41 41 43 42 43 39 37 40 39 34 32 30 30 30 29 27 26 24 34 33 34 38 35 32 29 27 19 11 21 22 22 21 22 20
42 42 42 43 43 42 43 42 41 41 43 43 42 42 43 43 38 36 35 40 41 41 31 27 26 24 29 27 25 27 24 21 31 29 36 37 37 32 31 32 21 12 16 18 18 17 16
43 43 42 42 44 43 43 43 41 41 42 42 43 41 42 41 37 35 37 38 40 41 11 26 23 28 28 25 24 21 22 21 21 32 36 33 36 35 32 28 27 27 21 22 22 22 19
39 40 41 41 42 43 43 42 42 41 42 43 42 41 41 36 37 36 37 39 41 30 16 10 22 23 24 25 25 24 20 21 21 21 32 31 35 38 37 35 34 30 31 27 25 23 21
37 37 37 39 40 40 41 42 42 42 42 42 42 41 40 37 33 35 35 39 28 23 19 10 14 15 13 13 22 22 23 17 14 11 13 22 28 30 36 34 32 29 30 23 22 23 20
36 37 36 38 40 40 39 40 42 42 42 41 41 42 41 37 36 36 37 33 22 19 21 14 13 12 11 10 16 21 23 22 17 15 17 15 24 24 26 24 31 27 27 26 20 20 20
36 38 38 39 41 40 38 39 41 41 41 41 42 40 38 37 38 37 34 23 19 15 14 15 14 10 7 4 13 17 22 23 23 21 16 20 22 25 23 26 27 30 26 24 25 29 26
34 38 37 39 38 37 37 39 40 41 41 41 38 35 35 35 39 36 32 21 22 21 21 20 14 11 5 10 13 15 23 32 34 30 21 20 19 22 24 26 29 28 26 27 32 25 24
35 36 35 36 37 38 36 38 40 40 40 40 35 32 30 35 35 33 24 23 20 22 22 17 14 16 15 15 15 15 23 31 30 29 30 30 24 20 20 21 25 27 28 35 34 29 23
36 37 37 38 38 38 37 37 38 40 39 38 33 26 34 36 29 31 25 23 22 21 24 22 20 17 17 17 17 17 15 26 25 26 29 30 32 22 17 19 22 27 26 34 31 29 29
36 35 37 37 37 39 36 38 38 39 39 35 31 28 30 35 27 26 26 23 24 23 23 22 19 17 16 15 15 15 17 25 24 24 28 25 29 25 23 23 25 27 23 30 31 30 32
34 35 36 37 37 37 37 37 38 39 39 37 32 25 28 31 30 30 27 26 22 23 21 22 18 18 19 16 16 15 17 22 27 26 27 25 29 31 27 28 34 31 31 25 27 30 30
33 35 35 35 36 36 37 37 38 39 39 36 32 27 27 26 25 27 27 25 24 27 24 20 16 17 18 17 16 18 19 18 20 26 30 33 27 32 32 30 33 33 32 29 30 30 33
34 35 35 36 36 36 37 37 38 37 38 35 29 26 27 26 24 26 30 25 23 21 29 26 25 20 17 16 20 21 27 26 29 29 31 33 28 32 28 29 29 29 31 28 34 34 33
36 35 36 36 35 35 36 36 38 38 38 34 35 32 31 27 25 24 24 26 27 26 22 30 29 30 28 29 32 31 31 32 30 30 29 32 31 28 26 27 29 24 24 33 35 36 34
36 36 36 36 36 35 35 36 37 38 38 35 34 32 28 21 22 21 19 19 23 30 29 28 26 28 32 37 33 32 30 29 32 31 30 28 25 28 25 23 22 27 30 31 30 33 32
35 35 35 35 35 35 36 36 37 37 38 37 37 34 31 24 22 21 19 18 23 29 32 31 30 36 38 35 27 24 22 22 23 25 26 26 25 24 21 24 26 24 26 19 25 24 26
36 36 35 35 36 37 37 37 37 37 37 37 37 37 34 26 20 24 22 19 27 28 29 32 36 37 35 32 27 21 17 18 16 21 24 25 26 25 27 20 20 28 27 25 23 27 33
35 36 36 37 38 38 38 38 38 37 37 38 36 38 35 28 26 23 26 27 32 30 29 30 30 34 34 28 25 22 20 21 18 20 21 23 24 23 23 23 26 28 26 24 19 31 36
38 38 39 39 39 40 39 39 39 38 37 37 35 38 35 31 29 29 30 29 28 29 28 31 32 33 31 25 25 22 21 22 22 23 27 27 23 25 24 22 20 23 30 25 36 37 36
39 39 40 40 40 40 40 41 40 39 38 38 34 38 38 33 30 33 32 32 31 28 29 34 30 32 32 29 27 28 23 24 25 22 34 27 30 25 24 23 31 38 37 39 37 35 35

GFSGBSN_sfc_30mbdewp_066.txt.gz
Dewpoint
44 44 44 43 44 44 44 43 45 44 44 47 48 47 46 45 45 45 46 47 47 47 47 48 49 49 43 37 29 33 33 29 45 45 42 36 31 23 19 23 27 31 30 29 26 23 22
44 44 45 45 45 45 44 45 44 43 43 44 47 46 46 45 44 44 44 45 47 47 47 47 48 48 41 21 34 33 28 30 28 38 27 34 27 19 24 28 27 27 29 28 26 23 21
45 46 45 46 45 45 46 45 44 44 44 43 45 46 45 44 43 42 43 46 46 46 46 47 48 47 40 32 37 36 36 32 28 28 28 24 21 15 17 26 30 27 24 23 23 20 18
44 46 45 44 44 45 46 45 44 43 44 45 45 45 44 44 43 44 44 45 45 45 46 48 49 45 36 39 40 39 37 32 26 22 26 26 25 17 16 27 27 27 25 21 21 19 18
44 44 45 46 46 46 45 45 45 43 43 45 44 44 44 44 43 44 45 44 44 46 49 49 48 43 37 42 40 35 37 30 21 28 30 29 28 18 15 23 25 26 23 21 20 20 18
43 42 43 43 44 43 44 44 45 45 44 44 43 42 42 43 42 43 43 43 44 47 47 48 45 42 42 32 31 26 26 26 22 32 33 31 27 17 16 22 24 24 23 21 19 19 21
43 42 42 43 42 42 41 41 42 45 45 43 42 41 41 42 42 42 42 42 37 34 36 32 39 39 38 37 32 26 25 29 38 36 32 31 26 25 16 18 24 23 23 23 23 24 23
43 44 43 42 42 41 41 41 41 43 44 43 42 42 41 41 43 41 44 38 38 39 34 34 35 34 36 35 31 30 27 28 35 32 37 35 29 27 23 17 16 22 23 24 24 23 23
42 43 43 43 43 43 43 43 42 42 42 44 43 42 42 43 42 40 35 36 38 41 33 32 32 31 32 32 29 28 25 34 33 35 36 32 33 34 27 24 20 17 17 23 23 23 22
43 43 44 42 43 44 44 44 43 42 41 42 43 43 43 43 34 35 35 37 36 41 31 27 30 30 29 29 27 29 26 30 33 32 36 36 37 36 34 30 27 27 17 15 18 20 21
40 40 41 43 42 43 43 44 42 42 42 42 44 43 43 41 37 35 35 35 36 41 0 22 25 29 29 25 23 21 25 21 21 33 34 30 35 36 33 31 30 27 32 31 28 26 24
39 39 39 38 41 41 42 42 43 42 42 42 42 43 42 37 36 36 35 35 40 28 0 20 24 23 27 25 25 21 20 22 21 22 33 31 38 35 34 34 33 36 32 30 26 24 22
38 37 37 37 38 41 41 40 41 42 42 42 42 42 41 39 32 34 36 37 23 20 15 16 19 22 24 24 24 22 19 18 18 15 16 19 27 34 37 34 34 34 32 23 21 21 22
35 37 38 39 39 39 40 40 40 41 42 42 41 42 41 40 38 36 34 32 16 17 20 19 18 16 13 12 17 24 22 17 18 13 15 14 17 23 35 33 32 31 33 27 23 25 24
35 34 37 38 40 40 40 39 39 40 41 41 41 39 38 37 38 37 32 23 13 17 19 20 19 12 9 10 12 22 23 23 21 16 12 17 21 24 30 31 32 33 33 33 30 28 27
34 34 36 37 38 39 38 37 39 40 40 40 38 36 35 35 38 36 28 18 20 20 21 19 18 18 16 16 17 16 21 32 34 33 22 20 20 22 25 28 29 30 36 31 32 25 23
33 35 36 37 36 37 38 38 37 39 40 40 34 31 30 36 38 34 22 21 19 18 18 21 22 20 18 17 17 18 26 33 31 33 32 32 26 19 24 25 29 31 34 35 34 32 27
33 32 37 38 38 39 38 39 38 38 39 38 33 24 30 37 28 29 24 24 23 20 21 21 24 23 20 17 15 16 19 26 25 28 29 29 31 29 25 23 24 31 34 34 30 28 31
34 35 37 36 37 37 38 38 37 39 39 35 31 29 30 33 24 24 25 25 24 23 22 20 22 22 21 18 15 17 20 27 24 27 25 24 27 26 22 23 23 27 29 34 35 35 31
34 32 34 36 36 37 38 38 38 38 38 37 32 22 24 32 29 27 26 26 24 25 24 24 23 23 20 18 20 17 15 25 26 26 27 26 28 27 25 31 33 32 32 33 35 31 30
32 33 35 35 36 36 36 37 37 38 38 38 31 24 27 23 27 28 28 26 23 24 28 27 24 22 19 16 19 20 22 24 29 31 32 30 23 31 31 32 29 29 34 34 33 33 30
33 36 36 35 36 37 37 37 37 38 38 36 29 25 28 26 25 22 24 24 24 28 24 23 27 30 29 25 19 21 27 25 29 31 31 34 26 31 27 28 25 26 33 34 36 37 31
36 36 37 37 37 37 36 36 36 38 37 34 35 33 28 23 23 20 22 22 24 21 29 27 30 30 29 29 33 33 32 31 30 28 30 30 30 26 23 26 22 24 27 30 31 37 37
36 36 36 37 36 36 36 36 37 37 38 35 33 31 27 20 21 20 19 20 19 20 26 30 33 31 32 36 35 31 32 31 31 30 31 27 26 27 24 23 12 25 25 26 34 36 37
35 35 35 35 35 35 36 36 37 37 38 37 35 32 30 22 26 23 21 21 22 26 26 30 31 32 34 33 26 24 23 24 24 27 29 30 26 23 20 19 19 17 28 28 30 33 36
36 37 37 37 37 37 37 37 38 37 37 37 36 37 33 26 21 21 23 25 24 26 27 31 35 39 36 30 26 20 16 19 18 21 25 28 28 22 25 19 13 24 28 29 29 31 36
34 34 35 35 36 37 37 38 37 37 37 37 35 38 34 28 27 24 20 25 30 29 27 31 31 34 32 27 23 21 19 22 16 19 19 24 25 23 22 22 23 26 28 30 23 32 36
35 35 37 37 38 39 39 39 39 39 37 37 35 38 34 30 30 29 29 27 30 31 26 29 30 30 29 25 24 22 22 21 21 21 21 23 23 23 23 22 18 32 31 25 34 37 36
35 38 39 39 40 40 40 40 40 39 39 38 33 38 38 33 28 34 31 32 29 28 29 32 27 30 32 27 28 29 24 24 24 19 35 28 30 28 24 23 36 34 34 36 38 37 37

GFSGBSN_sfc_30mbdewp_069.txt.gz
Dewpoint
44 44 44 44 44 45 44 44 45 44 44 43 45 47 46 46 45 44 44 45 43 44 44 45 47 47 45 35 22 29 37 32 37 50 45 41 35 29 18 20 27 31 31 30 30 29 27
45 44 45 45 45 45 45 45 45 44 44 44 44 46 45 45 43 42 42 44 45 45 44 45 47 47 43 30 27 33 35 32 28 41 38 37 33 24 23 24 24 27 28 29 30 31 29
45 45 46 46 45 44 45 46 46 44 43 45 45 45 45 44 42 41 42 44 45 45 45 46 47 46 42 36 36 36 38 34 30 29 26 21 24 17 16 20 29 28 26 26 25 25 23
44 46 46 45 45 46 46 46 46 45 44 44 44 45 44 43 43 43 43 44 44 45 47 48 48 47 39 40 40 40 39 33 32 31 27 28 26 21 15 20 26 27 26 24 24 24 22
45 44 43 44 46 46 46 46 45 45 45 44 44 44 43 44 43 43 43 43 45 47 50 49 47 44 35 42 41 37 37 30 26 26 28 30 28 23 17 17 23 26 24 24 23 23 21
44 43 42 43 44 43 43 43 43 44 45 44 44 43 43 44 43 43 42 44 45 47 48 48 46 41 39 32 34 32 28 31 22 31 30 31 27 21 15 19 20 24 24 23 22 22 23
43 44 42 43 43 42 42 41 41 43 43 44 44 43 43 43 43 42 43 42 38 36 38 33 35 39 37 37 33 29 28 30 38 35 28 33 27 23 19 18 22 24 24 23 24 25 24
43 44 44 43 43 43 43 43 43 43 42 42 43 43 43 42 42 43 36 36 34 36 34 38 36 35 35 36 34 29 30 27 33 28 37 33 28 29 28 25 19 16 18 23 24 25 23
41 42 44 43 42 43 44 43 43 42 42 42 42 43 43 43 43 36 35 36 35 35 35 29 29 30 31 33 31 27 27 28 33 33 35 29 31 35 32 27 25 22 16 20 23 24 24
43 44 44 44 43 43 43 44 43 42 42 42 42 43 44 43 31 36 35 35 34 36 29 23 29 31 32 32 26 29 27 33 34 31 35 34 36 35 35 33 29 24 21 24 17 16 18
40 40 40 40 42 42 42 43 43 42 42 42 42 42 43 42 36 31 35 34 35 41 -4 14 28 31 30 25 24 25 26 24 31 32 35 30 34 36 33 33 32 27 34 32 30 27 25
39 39 38 38 38 40 41 41 41 42 42 42 42 42 42 38 37 35 36 36 40 25 -6 14 25 26 26 25 24 21 22 22 21 24 34 32 36 35 33 34 32 33 34 31 31 27 22
39 37 37 38 38 38 40 41 40 40 41 42 42 42 41 40 32 36 36 35 20 14 11 18 18 21 25 25 24 19 19 19 17 16 16 18 21 33 36 33 34 35 34 26 23 22 20
36 35 37 39 39 41 41 41 40 40 40 41 42 42 39 39 38 37 34 30 8 7 17 21 20 18 19 22 23 21 19 17 18 15 13 12 8 25 35 31 30 30 35 28 21 21 23
35 34 35 38 38 40 39 38 38 39 40 41 41 37 36 37 39 37 32 19 3 14 19 19 18 18 15 18 18 23 21 18 19 17 14 15 19 24 33 34 34 35 31 37 31 32 26
33 34 35 37 37 37 39 39 38 38 40 41 37 35 33 36 38 35 25 16 18 20 18 16 17 21 17 18 17 17 22 28 31 23 20 20 18 21 26 34 36 36 38 31 32 25 22
34 33 33 37 37 37 37 38 38 38 39 40 33 27 29 37 37 29 19 19 21 19 21 18 22 21 20 20 18 17 24 33 35 32 24 28 23 19 25 28 30 35 34 34 34 32 26
34 33 33 36 37 37 38 38 39 38 39 37 32 21 30 38 28 27 21 22 23 22 22 21 22 22 23 21 19 18 19 26 27 28 30 29 32 29 28 26 31 33 34 36 30 29 32
33 32 35 37 37 37 37 38 38 38 39 34 28 29 32 30 17 24 25 24 24 23 22 21 20 22 23 21 22 20 18 26 26 27 22 24 27 25 21 26 30 32 36 36 36 35 29
32 33 33 33 35 36 36 38 38 38 38 36 31 21 22 30 29 23 22 24 22 29 27 28 25 23 23 22 22 22 20 23 26 27 28 26 27 24 19 27 33 31 33 35 36 30 31
35 33 33 33 36 36 36 37 37 37 38 36 31 25 26 19 25 23 23 24 25 25 27 27 25 26 28 25 20 23 23 26 31 32 32 27 21 29 28 28 29 30 31 34 34 35 31
33 32 34 37 36 36 36 37 38 38 37 35 28 25 27 26 25 23 24 24 21 23 19 27 25 29 29 28 27 27 22 25 26 31 32 34 25 30 25 29 24 21 24 30 34 36 36
34 35 37 37 37 37 37 36 37 37 37 33 34 34 27 23 22 19 17 17 22 21 20 23 24 29 29 28 32 34 34 32 31 28 28 28 28 25 20 25 22 17 27 24 33 35 33
36 37 37 37 36 37 37 37 37 37 37 35 33 32 26 19 21 20 19 18 20 22 22 24 26 30 32 34 35 34 32 32 31 30 30 28 27 27 22 21 13 17 19 30 31 35 38
35 35 35 35 35 36 35 36 37 37 37 36 35 33 28 21 22 23 24 21 22 23 24 25 30 33 38 36 30 23 23 24 24 28 29 29 26 21 17 17 17 16 29 29 29 30 36
35 36 37 37 37 37 37 37 38 37 37 36 35 37 32 25 20 22 20 22 25 26 26 27 34 33 38 31 27 19 16 17 17 19 28 31 28 23 24 17 10 19 28 30 32 29 37
36 34 34 34 35 36 37 37 37 37 38 36 35 36 34 27 28 25 22 20 27 28 24 28 28 31 35 27 23 20 18 22 14 17 20 25 26 24 22 20 20 25 34 32 22 30 37
34 35 35 36 37 37 37 38 38 39 38 37 34 37 32 29 28 29 28 25 29 28 22 27 25 27 28 25 24 22 20 21 21 20 21 21 22 23 23 20 16 33 34 27 35 38 37
36 35 35 37 38 38 39 39 39 39 39 39 33 38 37 31 29 34 32 31 29 28 27 29 28 29 29 28 28 27 25 25 23 18 34 24 29 26 24 23 34 33 33 37 39 39 39

GFSGBSN_sfc_30mbdewp_072.txt.gz
Dewpoint
44 44 45 44 45 45 45 45 45 45 44 44 45 45 45 45 44 43 43 44 42 42 43 45 45 46 46 36 23 26 38 35 50 49 42 42 35 28 20 18 22 26 30 30 30 29 28
44 45 45 46 46 46 45 45 45 45 44 44 45 45 45 45 43 42 41 43 44 43 44 45 46 47 43 24 31 32 35 34 29 43 41 40 34 31 26 23 21 23 25 27 29 29 30
45 45 46 46 45 44 45 45 46 46 45 44 44 44 45 43 42 42 42 43 44 45 45 47 48 46 43 33 37 38 39 36 31 29 25 25 30 17 17 15 23 27 26 27 27 27 28
44 45 46 46 46 46 46 46 46 45 46 45 45 44 45 43 43 43 44 43 45 47 49 50 48 45 38 42 42 40 40 37 36 34 29 28 27 22 20 18 21 24 26 25 26 25 25
46 44 43 43 44 44 44 44 44 44 44 45 45 44 44 45 45 44 43 44 45 48 49 49 46 44 33 40 41 40 38 29 26 25 27 25 26 24 19 16 17 25 22 24 25 24 23
45 43 42 42 44 44 43 42 42 43 43 43 44 43 43 44 44 43 43 43 45 48 48 48 45 40 36 32 36 33 30 32 23 30 30 30 27 21 17 18 16 20 23 24 23 23 23
44 44 43 42 43 42 42 42 43 43 43 43 42 42 42 43 43 43 39 39 33 34 35 30 31 38 33 35 35 29 30 28 37 33 23 31 26 21 21 18 18 20 21 21 24 25 25
43 43 44 43 43 44 45 44 44 44 43 42 42 42 42 43 42 39 37 35 33 33 31 35 35 36 36 35 33 33 29 24 33 27 36 33 28 28 28 26 22 20 18 16 19 23 25
42 42 44 44 43 43 43 44 44 43 42 42 42 42 43 43 41 35 36 33 33 34 34 32 30 29 30 33 31 29 28 26 31 29 33 28 28 34 32 31 28 26 24 22 18 19 23
44 44 43 43 43 43 43 43 43 43 42 42 42 42 44 43 32 35 35 34 34 35 28 16 27 31 32 32 28 31 29 29 33 28 33 33 35 33 34 34 33 28 27 24 20 21 17
41 40 40 39 40 41 41 42 41 42 42 42 42 42 42 40 35 30 31 36 35 40 -26 8 28 32 32 28 25 26 28 29 31 32 34 28 33 34 34 32 33 31 31 32 31 29 26
40 39 38 37 38 38 41 41 40 40 40 41 42 42 42 39 37 35 36 35 38 10 -32 6 25 26 26 26 24 22 24 23 27 30 34 33 34 35 33 33 34 33 33 31 30 29 24
39 38 37 38 39 39 39 40 40 40 40 40 41 42 41 40 30 37 36 34 4 -12 4 15 20 19 19 23 25 20 21 20 19 19 17 17 18 31 34 31 34 33 32 25 24 24 22
37 36 36 39 39 41 41 40 39 40 40 41 41 40 38 39 38 37 34 22 -18 1 13 21 17 18 18 21 22 23 19 19 19 16 14 11 11 23 34 29 27 33 30 26 20 20 23
36 34 35 35 38 40 40 39 38 38 40 41 40 35 33 35 38 36 27 0 -9 16 19 17 14 19 18 20 20 21 20 18 18 18 15 13 17 23 31 34 30 32 32 36 31 32 28
33 34 35 35 38 37 37 38 39 38 39 41 34 32 30 36 38 33 21 12 15 19 20 16 11 21 19 20 18 17 20 27 25 19 17 18 19 21 32 35 37 34 38 30 31 24 21
34 33 33 34 37 38 38 38 39 39 39 40 31 24 32 37 36 27 15 18 20 19 22 20 20 19 20 15 21 19 18 32 34 32 23 22 24 21 32 30 31 33 32 33 33 30 26
36 31 32 33 37 37 38 38 39 39 40 35 30 16 29 36 23 25 21 23 22 22 21 20 22 21 19 20 22 20 22 24 33 33 31 33 33 28 26 28 32 35 35 34 29 29 32
38 31 33 35 37 37 37 38 38 39 38 33 26 26 32 29 15 22 26 26 24 23 23 23 21 20 20 21 21 27 27 29 31 31 31 31 31 24 20 27 32 32 35 35 35 33 30
39 33 32 33 34 36 36 36 38 39 39 33 28 19 21 28 26 24 22 23 23 29 27 27 26 27 25 23 21 24 27 29 31 33 30 26 28 21 15 19 30 27 28 31 33 30 30
32 34 35 33 33 36 36 36 37 37 38 34 29 23 25 19 24 23 23 21 21 24 29 26 26 28 27 24 23 23 25 31 31 31 31 24 20 28 27 27 28 27 26 26 30 32 30
31 35 33 33 37 36 36 36 37 37 38 33 27 25 27 26 24 22 21 20 21 23 20 19 25 27 25 26 24 27 29 28 31 29 30 33 27 28 22 28 23 19 14 22 24 32 33
34 32 33 36 37 37 37 37 37 37 36 32 35 34 27 23 22 19 17 17 18 20 22 24 22 24 25 26 31 30 33 35 34 31 29 28 27 24 18 23 20 8 21 19 26 34 35
31 33 36 37 37 37 37 37 37 37 36 33 33 33 26 19 22 19 19 19 21 22 21 21 23 26 30 34 35 33 33 34 34 32 31 28 26 25 21 19 7 10 17 28 32 33 36
34 37 37 36 36 36 36 37 37 37 38 34 35 33 27 20 21 20 20 23 21 21 25 25 28 31 32 34 30 26 24 25 23 27 28 30 26 21 16 16 15 14 28 29 29 26 33
35 35 35 35 36 36 36 36 37 37 37 35 34 37 32 24 20 21 19 20 22 21 25 25 29 31 36 31 29 20 16 16 16 21 30 30 27 22 23 16 9 14 28 32 32 23 37
35 35 37 37 35 37 37 38 38 38 37 36 34 35 31 25 26 26 22 21 25 25 22 24 27 30 31 28 24 20 16 22 14 16 24 27 27 24 22 20 19 24 32 35 21 23 35
36 37 35 35 36 35 36 37 37 37 38 36 35 36 30 25 24 28 28 26 27 26 20 23 22 26 25 24 25 24 20 22 21 20 22 19 22 23 24 21 16 33 33 23 35 36 34
37 35 34 36 36 36 37 37 38 38 38 38 34 37 35 30 26 33 33 31 29 28 27 26 26 26 29 25 26 27 25 26 25 18 31 19 25 25 24 23 32 33 32 32 39 38 35

GFSGBSN_sfc_30mbdewp_075.txt.gz
Dewpoint
45 45 45 45 45 45 46 45 45 46 45 45 45 45 44 44 44 43 43 44 42 42 44 45 46 46 46 37 29 25 38 36 51 47 41 40 29 24 21 19 21 25 24 27 28 28 28
45 44 45 46 45 46 45 44 45 46 45 45 45 45 45 44 44 43 43 44 44 44 45 46 47 46 43 28 30 31 36 35 33 46 41 41 35 32 27 23 21 23 25 24 25 25 27
45 46 47 47 46 45 45 45 46 46 46 45 45 45 45 45 44 43 42 44 44 45 46 48 48 45 41 35 38 39 39 37 30 38 36 37 35 22 21 16 22 23 23 25 27 26 25
45 45 46 46 46 46 46 46 46 45 45 44 44 45 45 44 44 44 45 44 45 45 50 51 48 44 36 42 42 41 40 38 38 34 30 28 25 22 20 20 18 21 24 20 26 27 27
45 45 44 44 44 45 44 44 43 43 44 43 43 43 43 44 44 45 44 44 45 49 49 48 45 42 33 40 40 40 41 31 31 32 30 26 26 24 19 17 17 22 18 22 23 25 24
47 45 43 43 44 44 43 42 42 43 44 43 43 42 42 42 44 43 43 42 45 49 48 48 44 38 35 32 37 34 34 34 25 26 30 29 26 23 19 18 13 16 20 24 24 24 24
46 44 43 43 43 43 42 42 44 44 43 42 42 42 42 42 42 43 39 35 30 29 32 25 30 36 28 30 35 31 30 29 35 31 21 30 23 20 22 22 21 18 18 17 18 21 21
44 44 44 44 44 44 45 45 44 43 43 42 42 42 42 42 42 39 36 32 31 31 29 32 33 33 33 32 30 30 31 25 32 27 34 33 26 27 26 24 21 21 20 19 21 20 18
44 43 44 44 43 43 43 43 43 43 43 43 42 42 42 42 38 34 34 30 33 33 31 30 32 30 29 35 32 30 28 25 30 28 32 25 26 33 29 30 29 28 27 27 26 26 25
44 44 43 43 43 43 42 42 42 42 42 42 42 42 42 40 29 34 34 33 35 35 25 5 26 31 32 32 29 32 31 26 31 24 30 31 33 31 33 31 33 27 30 28 27 25 21
43 41 40 40 41 41 42 41 41 41 40 40 41 42 43 39 34 28 28 36 35 38 -35 -0 29 33 32 28 26 26 29 29 27 31 32 25 33 35 32 29 33 29 32 31 30 29 27
41 40 39 38 38 39 41 41 41 40 40 40 41 42 42 39 37 33 36 36 37 -4 -37 -1 24 20 17 26 25 23 25 24 30 33 35 32 34 35 33 33 33 33 32 31 30 29 25
40 39 38 38 39 40 39 40 41 40 40 40 41 41 40 40 29 37 36 32 -13 -29 0 15 19 15 18 20 24 21 23 21 20 19 19 18 21 31 34 30 32 30 28 24 23 23 19
39 37 38 40 40 40 40 39 39 39 40 40 40 40 37 38 37 37 33 3 -32 -1 11 19 16 15 19 20 20 22 20 20 20 17 15 13 14 22 33 26 24 30 27 25 19 20 22
37 36 35 37 38 40 40 39 39 38 39 40 39 34 32 34 38 35 15 -16 -8 20 18 16 12 20 19 21 21 18 22 19 19 18 16 14 15 22 32 33 27 31 29 32 30 29 27
34 35 36 35 39 37 37 38 39 38 39 40 32 30 32 36 38 28 9 8 14 19 21 20 12 22 19 11 17 13 18 30 30 20 19 18 16 22 34 35 36 33 36 30 31 21 20
34 33 33 35 37 38 38 38 39 39 39 38 30 23 33 35 33 22 9 15 18 19 23 19 20 17 15 3 9 8 19 28 30 34 24 21 24 22 33 31 29 32 30 34 32 29 23
35 32 32 33 37 37 38 38 39 39 39 33 28 15 28 32 22 24 19 21 22 20 19 17 21 18 19 18 23 21 21 25 31 33 31 35 32 23 23 27 32 32 31 34 28 27 30
37 32 33 35 37 37 37 38 38 39 37 30 25 25 31 27 14 20 23 24 25 23 22 22 22 22 22 18 18 21 26 30 33 32 33 33 31 26 26 30 33 31 34 36 35 32 28
40 34 33 35 34 37 36 37 38 39 39 32 25 16 22 27 23 21 19 20 19 28 28 29 26 25 25 22 22 19 25 29 33 34 35 34 27 28 20 20 27 27 26 28 32 27 27
37 36 33 34 32 34 36 36 37 38 39 32 26 22 24 21 25 23 23 22 21 22 26 26 28 26 24 23 21 21 20 25 31 32 36 34 25 29 26 27 28 24 23 20 20 28 27
32 33 36 34 34 36 36 36 37 37 38 31 27 25 26 26 24 21 19 15 18 21 18 17 23 21 21 24 24 24 27 26 28 32 33 35 27 29 22 28 22 18 16 19 24 23 26
33 31 34 33 36 37 36 37 37 37 35 30 34 32 26 23 22 18 17 17 18 20 21 22 22 20 19 27 31 32 31 32 33 32 31 31 29 23 17 22 18 9 16 16 22 28 30
36 34 33 34 37 37 37 38 38 37 35 32 33 33 27 20 21 18 19 19 19 20 21 21 25 24 26 32 31 32 32 32 32 33 34 30 25 25 19 19 5 9 18 24 30 31 30
35 32 32 36 38 37 37 37 37 38 38 33 34 31 25 19 20 19 19 19 22 21 22 22 27 26 31 32 27 25 26 27 29 29 30 33 27 21 16 16 15 14 27 27 30 27 36
33 35 36 37 36 36 36 36 37 37 38 34 34 35 31 23 19 22 20 20 19 21 22 23 25 30 33 30 27 20 16 14 18 25 31 30 27 22 22 17 8 14 29 30 33 17 35
32 33 36 35 36 37 37 37 37 37 37 35 34 33 30 25 25 26 23 21 24 25 23 22 25 27 30 25 23 22 18 22 14 16 24 27 27 22 21 19 19 28 32 34 11 20 34
34 35 36 36 37 35 35 36 37 37 37 36 34 35 29 25 24 26 29 25 27 26 21 22 20 24 25 22 24 24 23 24 21 22 23 19 22 23 22 19 15 32 33 25 33 36 33
34 36 37 37 36 36 36 37 38 38 38 37 33 36 34 29 25 31 30 30 28 28 26 26 24 24 27 25 24 25 25 26 25 16 29 20 27 25 24 23 32 32 32 32 37 36 34

GFSGBSN_sfc_30mbdewp_078.txt.gz
Dewpoint
46 46 45 45 44 45 46 46 46 46 46 45 45 45 45 45 45 44 44 44 43 43 44 46 47 46 43 32 24 23 36 34 40 38 33 28 23 19 16 14 15 20 18 16 19 21 19
47 46 45 45 45 46 46 45 45 45 46 46 46 46 45 45 45 44 43 43 43 44 45 46 47 47 41 23 27 28 30 29 30 35 32 36 29 28 25 23 20 20 22 20 22 21 22
48 46 45 46 46 47 45 45 46 46 46 45 44 45 45 44 43 43 43 43 44 45 46 48 49 46 39 28 32 32 33 27 28 28 27 32 34 27 24 22 22 22 19 20 21 22 22
47 45 47 47 47 45 46 46 45 44 44 43 43 43 43 43 43 43 43 44 45 46 49 50 49 44 34 35 37 38 34 31 34 30 28 27 30 26 23 21 20 19 18 16 16 25 25
47 46 47 47 46 44 44 44 43 43 43 43 43 42 42 42 43 44 44 44 44 49 50 49 45 42 29 37 37 37 37 30 31 33 30 26 27 23 23 19 16 17 11 13 17 21 21
47 46 45 44 44 45 44 43 42 43 43 43 42 42 42 42 43 44 43 43 45 50 47 46 43 39 35 29 35 34 35 32 26 25 26 24 22 21 21 19 9 10 13 14 17 20 21
48 47 45 43 44 43 42 43 43 44 43 43 42 42 42 42 41 41 38 33 24 28 28 17 20 29 24 22 28 28 30 29 27 23 18 20 17 14 13 17 15 16 16 15 14 16 17
49 47 44 43 44 45 46 45 45 43 43 43 42 42 42 42 41 38 31 29 29 31 24 25 28 29 29 30 24 22 30 26 28 24 25 27 20 16 17 18 19 17 15 16 20 22 22
47 46 44 44 43 43 43 44 43 43 43 42 42 41 43 42 37 35 27 28 31 34 28 23 28 29 29 33 28 27 26 26 25 23 25 20 17 28 25 23 21 21 22 22 24 26 26
46 45 44 44 44 43 42 43 42 42 41 40 41 42 43 41 30 31 28 30 33 37 18 3 27 30 31 31 29 30 27 22 23 21 21 22 23 24 26 24 26 22 26 26 25 25 16
46 44 43 43 43 42 42 42 41 40 40 40 41 42 42 40 31 23 27 33 36 38 -19 10 27 31 26 28 26 26 28 21 17 21 24 18 26 30 24 23 27 22 29 26 26 26 25
44 42 40 40 40 41 42 41 41 41 40 40 40 41 40 36 34 30 35 36 40 12 -22 4 21 14 10 19 23 25 25 27 27 25 28 24 26 31 28 31 27 27 26 22 23 26 22
43 41 39 38 38 38 39 40 41 40 40 40 40 40 38 36 28 36 36 34 1 -20 -7 9 15 10 4 15 19 23 23 22 19 19 19 19 21 27 30 26 27 27 19 9 16 21 16
41 39 39 39 40 41 41 40 39 39 39 39 40 38 36 36 37 38 34 6 -19 -7 4 14 12 7 2 14 10 18 19 19 22 20 16 12 13 18 27 25 17 22 20 16 13 12 14
39 38 37 39 40 40 40 39 38 38 39 40 37 33 34 37 39 37 16 -1 -4 13 13 12 8 3 1 16 13 13 14 15 19 20 16 14 15 20 28 28 24 28 26 27 26 25 23
38 36 35 37 39 37 38 39 38 38 39 39 30 30 33 38 40 27 9 4 10 16 16 11 2 11 8 12 7 11 14 29 30 29 22 18 15 20 29 31 30 31 31 28 29 21 16
36 35 36 38 38 37 37 38 39 39 39 38 29 23 33 36 36 21 11 7 11 13 17 10 9 9 4 4 3 8 9 26 30 32 31 20 19 22 30 28 23 30 29 31 33 29 20
35 33 33 34 38 38 38 38 39 39 39 32 29 22 31 35 22 22 14 16 21 17 19 16 15 14 9 8 3 5 5 15 32 32 31 26 26 20 19 22 26 25 25 29 25 25 30
35 33 34 35 37 37 38 38 38 39 37 32 24 21 30 32 19 16 18 19 22 20 21 19 18 17 16 13 11 9 8 10 31 34 33 35 29 20 19 27 29 27 29 35 33 33 28
38 34 34 35 36 37 37 37 38 39 38 34 27 22 23 25 22 20 20 16 16 25 27 24 24 25 22 18 19 12 11 19 28 26 34 35 30 24 12 26 26 26 26 28 28 25 23
40 36 34 34 34 36 36 37 37 38 38 33 29 23 25 21 20 18 20 18 17 19 23 20 27 25 23 19 17 17 14 11 16 28 34 32 29 25 27 28 28 20 18 18 22 23 21
38 38 34 35 33 34 36 37 37 38 37 30 28 23 24 20 21 18 17 12 13 17 16 14 22 17 15 17 22 24 24 22 20 29 31 33 29 26 24 26 23 20 17 13 16 21 20
33 34 36 35 34 36 36 37 37 38 35 30 33 32 24 21 18 15 13 13 15 16 17 19 17 19 18 21 28 26 26 25 27 28 30 30 29 25 20 21 17 12 12 15 17 19 26
34 33 34 34 34 37 37 37 37 38 35 31 33 31 23 16 14 13 14 14 15 17 18 19 18 21 22 22 26 27 26 26 25 26 32 29 28 25 16 15 5 16 18 21 23 24 30
36 36 34 34 35 37 38 38 38 38 37 32 34 29 25 18 14 14 15 15 16 19 18 17 19 22 23 28 25 17 17 21 23 24 27 33 31 24 14 11 9 9 24 24 24 23 33
36 35 32 33 38 38 37 37 37 38 38 34 33 32 27 21 16 16 17 16 16 15 17 20 21 25 30 27 24 18 17 11 8 17 27 29 28 28 18 10 6 22 26 27 26 18 33
35 33 34 36 38 38 37 37 37 38 39 35 33 32 28 25 21 24 18 18 20 21 19 20 23 23 28 24 21 21 21 15 7 11 21 24 24 21 17 13 14 27 29 30 14 25 34
34 34 35 37 37 37 37 38 38 38 38 36 32 35 28 25 22 24 24 22 22 23 20 21 21 24 22 21 21 22 24 22 18 17 18 18 19 20 19 17 14 32 31 26 33 36 34
34 34 36 36 37 37 36 36 36 37 38 37 32 36 34 29 24 30 28 27 25 25 24 22 23 24 25 24 23 24 25 24 23 15 24 21 28 25 23 26 32 33 32 33 35 35 34

GFSGBSN_sfc_30mbdewp_081.txt.gz
Dewpoint
51 49 48 47 46 46 45 46 46 46 46 46 46 46 46 46 45 45 44 44 44 44 44 46 47 47 44 30 24 34 39 35 40 38 31 27 21 17 14 12 11 12 13 15 18 15 15
51 49 47 47 45 45 46 46 45 45 46 46 45 45 45 45 45 43 43 43 44 44 45 46 47 47 42 24 23 23 20 26 29 32 28 27 23 21 17 17 14 12 14 15 15 13 15
50 49 48 47 46 46 46 45 45 46 46 45 43 44 44 43 43 43 43 43 44 45 46 47 49 46 36 26 26 24 25 21 18 23 26 25 28 25 23 20 21 19 17 15 14 15 15
50 49 49 48 47 47 46 46 46 46 45 43 43 43 42 43 43 43 43 44 45 46 49 50 50 43 30 29 28 28 28 25 23 21 20 21 23 27 24 20 17 15 15 11 11 13 18
50 49 47 48 49 47 46 46 45 44 43 43 43 43 42 43 43 43 43 43 45 49 50 49 46 40 27 35 31 33 31 24 23 26 22 21 21 23 21 18 17 14 9 8 9 15 17
50 48 48 48 47 46 45 44 43 43 43 43 43 42 42 42 43 44 43 42 46 49 48 43 40 37 34 25 29 32 32 31 25 25 23 21 18 18 18 17 13 4 8 11 11 13 19
49 47 48 48 47 46 44 43 43 44 43 43 42 42 42 42 42 42 38 35 37 37 32 19 16 23 18 17 19 22 27 26 26 22 18 19 17 14 15 16 17 13 11 10 11 11 12
48 47 46 46 45 45 43 43 45 44 43 43 42 41 41 42 42 39 37 24 26 30 18 20 23 25 27 29 23 20 19 24 23 20 19 18 16 15 13 13 13 14 14 13 13 14 19
48 47 47 46 45 45 46 46 44 43 43 42 41 41 42 42 41 36 26 26 28 31 27 18 26 28 29 30 25 23 19 22 18 21 20 19 18 23 20 17 15 14 14 14 16 19 19
49 47 46 47 46 44 43 43 43 42 41 40 40 41 42 42 34 26 26 27 30 37 26 13 27 28 28 30 28 27 25 19 19 18 18 18 19 18 15 18 17 15 18 20 22 19 13
46 46 46 47 45 43 43 42 41 40 40 40 40 41 41 41 32 23 26 30 36 39 5 7 25 28 15 23 23 27 25 20 17 18 19 15 18 22 20 18 20 20 22 25 23 19 16
46 45 46 45 43 42 42 41 41 40 40 40 40 40 40 35 33 29 32 35 38 28 -6 8 17 14 3 14 17 23 25 25 22 21 19 19 19 21 22 23 26 21 24 24 20 16 14
44 44 42 40 40 41 41 41 41 40 39 40 40 40 37 33 29 34 35 35 21 -5 -11 7 12 9 2 -6 5 16 17 21 18 18 17 20 20 22 27 22 24 24 22 11 5 14 15
44 42 41 39 39 38 39 41 40 38 39 39 39 37 35 32 36 37 34 23 -3 -10 -4 10 6 4 -6 -8 6 2 8 6 10 14 13 8 7 16 21 24 20 19 20 12 10 10 18
42 41 39 39 40 41 40 39 38 38 39 40 37 34 33 35 39 36 25 6 2 9 10 9 2 -7 -8 -1 13 5 5 2 4 15 15 9 7 18 23 25 22 22 20 19 18 18 15
41 39 39 39 41 40 39 39 38 38 39 39 29 30 29 36 36 33 13 8 6 11 10 7 -0 -4 3 2 8 3 6 15 20 25 22 14 11 17 23 25 25 23 28 27 23 18 14
39 37 36 38 38 37 37 38 38 39 39 37 29 24 29 33 36 19 17 6 6 9 12 8 2 4 3 0 -1 -2 -1 9 25 27 29 27 16 12 16 21 19 24 25 26 29 27 20
37 36 38 39 38 38 39 38 39 39 39 36 25 24 29 32 21 17 12 11 15 13 16 13 13 10 8 7 7 6 3 -1 14 25 28 32 32 15 11 16 19 19 23 25 25 19 25
35 34 34 37 38 38 38 38 38 39 36 27 19 20 24 33 23 15 14 13 16 16 16 15 13 14 15 14 11 7 7 8 8 12 31 32 27 19 15 17 19 18 19 23 30 32 25
36 34 35 36 38 37 37 38 38 39 38 33 23 24 21 19 19 19 17 14 15 21 21 20 19 21 19 15 14 14 13 11 13 18 30 30 25 25 16 20 29 29 20 25 28 26 23
38 35 35 35 38 37 37 37 38 38 37 33 27 25 24 21 18 17 19 15 14 16 20 17 25 23 17 15 13 13 17 20 20 10 16 29 23 21 23 19 23 28 32 24 26 25 19
40 38 36 35 34 36 36 37 37 38 38 29 29 21 20 19 19 17 15 12 9 13 13 13 18 15 13 13 12 16 20 20 18 18 26 32 22 23 24 27 24 24 27 18 16 13 14
40 37 35 36 34 35 36 37 37 37 37 26 30 29 24 18 16 13 13 12 13 14 14 14 14 15 14 15 19 19 20 20 20 21 21 27 26 24 18 26 23 22 21 17 12 16 16
36 38 36 36 35 36 37 37 37 38 35 28 28 25 22 17 12 11 12 12 12 13 14 14 15 15 16 20 21 21 21 21 22 21 21 28 26 27 21 22 16 16 15 14 14 17 25
35 34 35 35 35 37 37 37 38 38 37 31 27 25 22 19 11 11 13 12 13 14 17 15 15 18 21 22 21 16 13 12 18 20 18 21 28 24 24 13 14 10 20 20 21 30 30
36 36 35 35 35 38 38 38 38 38 38 34 27 28 24 25 14 12 12 13 13 12 13 15 19 23 25 28 23 17 13 14 12 10 15 22 30 26 24 16 11 23 24 26 22 22 32
36 37 36 35 37 38 38 38 38 38 39 33 30 32 26 27 19 19 17 18 18 19 16 16 20 21 25 23 21 21 20 19 13 9 19 23 25 23 25 14 17 27 25 25 15 28 33
36 37 35 36 38 38 38 38 38 38 39 36 33 32 29 26 21 22 21 19 19 19 18 21 20 25 22 21 21 23 21 22 17 14 17 17 15 17 18 16 16 31 28 27 33 35 34
37 36 36 37 37 38 38 38 38 38 38 38 34 32 31 30 27 28 28 27 24 22 21 21 21 22 24 23 21 25 25 24 23 17 23 23 29 29 28 27 32 31 31 33 34 34 33

GFSGBSN_sfc_30mbdewp_084.txt.gz
Dewpoint
54 54 53 53 50 48 48 47 46 46 46 45 46 46 47 46 46 46 45 45 44 44 44 45 47 48 44 33 30 40 41 38 43 38 34 29 21 14 11 10 11 12 12 13 17 16 17
54 54 54 52 50 48 47 46 46 47 46 46 46 45 45 45 45 43 43 43 44 44 45 46 47 48 43 25 21 24 22 23 26 32 30 25 22 20 16 15 14 13 12 11 10 12 11
55 54 54 51 50 48 46 47 47 45 45 46 45 44 44 43 43 43 43 43 44 45 46 47 48 46 37 27 22 24 22 18 15 20 26 25 24 24 23 20 21 19 17 17 17 16 14
55 54 53 51 49 48 48 48 46 46 47 46 43 43 43 43 43 43 43 43 44 45 47 50 51 46 33 27 28 23 23 22 22 16 19 20 23 23 24 24 22 17 15 11 11 9 9
55 54 52 50 49 48 49 48 47 46 45 44 43 43 43 43 43 44 44 44 44 46 50 50 48 43 30 33 27 28 30 25 21 19 17 17 17 18 20 22 17 16 14 12 11 10 10
55 53 52 50 48 47 49 48 47 45 44 43 42 43 42 42 43 44 44 43 43 50 48 46 40 38 36 24 27 29 30 29 25 23 23 20 16 16 16 16 12 11 11 11 8 8 12
54 52 50 47 47 49 48 46 45 44 44 43 42 42 42 41 42 43 41 36 39 42 42 35 27 31 19 16 20 17 17 27 25 22 20 20 17 13 14 14 15 15 15 13 12 10 10
52 50 48 49 48 47 46 45 44 44 44 43 43 42 41 41 42 43 40 29 24 29 19 25 15 21 25 28 24 20 15 22 21 20 19 17 16 17 16 15 13 13 11 11 12 12 14
50 49 49 47 46 44 44 44 45 45 43 43 41 40 41 42 42 38 26 25 26 31 26 18 23 27 27 29 25 22 16 15 20 18 20 17 16 18 21 18 17 14 12 12 11 12 16
49 47 46 46 46 45 45 46 45 43 42 40 40 40 41 41 37 26 31 26 30 38 28 15 20 26 29 29 28 24 24 18 18 16 16 16 17 16 17 17 16 15 14 14 18 16 18
48 48 48 46 47 46 45 45 43 41 40 39 40 40 40 40 39 28 28 30 34 40 12 15 24 27 19 21 18 26 24 19 16 16 18 16 14 16 17 18 15 12 16 19 20 22 21
46 46 47 47 46 45 44 42 41 40 40 40 40 40 39 37 39 32 33 34 38 32 10 7 20 17 4 9 13 21 21 23 22 17 17 14 16 15 14 18 19 22 21 18 21 21 19
46 46 46 44 43 43 43 43 42 40 39 39 39 39 36 33 33 34 36 36 30 17 0 5 10 9 2 -3 -9 -3 9 19 19 16 16 16 18 18 19 20 20 23 21 14 12 9 14
44 44 43 42 41 40 40 39 40 39 38 38 39 37 37 33 37 38 36 29 15 -8 2 8 3 2 -2 -7 -10 -6 2 2 5 4 8 7 6 11 20 23 19 19 21 18 9 14 15
43 43 42 41 40 38 39 41 38 38 38 38 37 35 36 37 38 37 32 20 11 10 8 7 -1 -8 -9 -8 3 10 8 2 1 1 2 14 10 18 18 20 20 18 16 19 18 18 16
42 41 40 39 41 41 40 39 38 38 38 37 35 31 29 35 35 37 27 14 9 9 6 4 -1 -8 -3 1 4 3 3 3 15 24 27 22 21 14 18 22 22 20 21 24 29 19 13
40 38 38 40 40 39 39 38 38 38 38 37 34 28 31 31 36 33 21 12 6 9 11 7 3 1 2 2 2 0 -2 -1 3 21 19 23 25 26 23 27 22 19 21 21 26 25 21
39 37 37 38 38 37 37 38 39 39 38 36 30 26 30 32 28 21 14 11 11 10 14 12 11 9 6 8 7 6 5 5 7 6 4 20 31 25 21 19 21 20 17 23 24 20 23
38 37 38 38 38 38 38 38 38 38 37 34 25 22 23 35 26 17 14 11 13 13 14 13 12 13 14 12 9 8 8 11 12 9 14 22 23 19 16 15 16 19 21 28 31 31 26
35 34 35 37 39 38 38 38 38 38 38 34 27 26 22 23 20 21 15 13 13 18 18 17 15 17 16 14 12 10 9 13 17 20 26 26 19 20 19 21 26 27 31 29 24 26 24
36 35 35 37 37 37 37 37 38 37 38 35 30 30 26 22 18 18 19 14 13 14 18 16 20 20 19 12 11 9 11 14 15 16 16 18 16 16 21 20 19 24 31 28 27 32 24
37 36 36 36 38 37 36 36 37 37 37 34 28 26 22 20 20 17 16 12 9 12 10 15 18 14 12 11 10 14 14 14 15 16 18 28 20 17 15 17 18 22 23 28 30 34 32
40 39 37 36 35 36 36 37 37 37 36 28 27 28 28 20 17 15 16 13 11 13 13 12 11 12 12 12 14 17 17 18 17 17 18 20 26 22 15 14 18 22 19 19 22 29 22
40 40 36 36 35 35 36 37 37 37 37 34 27 25 24 20 14 12 13 12 11 11 12 13 13 13 15 19 19 18 17 17 17 17 19 20 21 22 20 19 14 18 17 17 18 30 34
39 39 38 37 35 36 37 37 38 38 38 34 25 28 23 24 11 12 12 12 11 12 13 14 13 15 20 20 19 16 14 12 14 18 18 20 20 22 20 19 23 17 17 18 19 32 31
37 37 36 37 36 38 37 38 38 38 38 35 29 30 26 29 12 12 11 12 12 13 16 16 17 21 21 24 22 16 12 14 16 25 17 16 19 25 20 18 19 30 29 24 22 28 33
37 37 36 37 37 39 39 39 38 38 39 36 32 33 28 30 19 17 23 25 18 19 16 19 20 18 24 23 20 21 17 18 18 17 10 16 23 21 21 21 28 30 31 25 17 27 32
37 38 38 37 37 39 39 39 38 39 39 36 34 32 31 27 24 21 21 18 20 19 19 22 20 25 21 21 23 20 21 23 26 21 15 17 20 21 22 24 21 30 29 27 31 33 31
38 38 38 37 38 37 38 39 38 38 39 38 34 33 31 27 29 28 28 27 26 24 22 20 20 20 27 25 22 24 21 28 27 22 26 25 29 27 26 24 32 30 31 31 31 31 30

GFSGBSN_sfc_30mbdewp_087.txt.gz
Dewpoint
58 57 55 54 55 54 52 51 50 48 48 47 46 46 47 47 46 46 46 46 44 44 44 45 46 47 46 39 38 41 44 44 44 35 28 28 28 22 13 15 15 14 14 15 15 16 15
58 57 56 55 55 54 52 50 49 48 48 47 46 47 46 45 45 44 43 44 44 44 45 46 47 47 45 25 24 37 34 34 34 37 34 34 30 25 16 14 12 12 15 16 18 18 18
59 57 56 55 55 54 51 50 49 48 48 47 47 47 44 44 43 43 43 43 44 44 45 46 48 47 42 28 29 29 27 19 18 20 26 27 27 24 23 23 24 22 20 18 17 16 15
59 58 57 55 55 53 52 51 49 49 47 46 47 45 44 44 44 43 43 44 44 45 45 47 51 47 38 34 34 32 27 24 22 21 19 18 19 19 21 24 23 22 21 17 16 14 13
59 58 57 55 55 53 51 50 49 49 47 48 46 44 43 44 44 44 44 44 44 45 47 51 49 47 38 35 32 29 24 21 21 22 21 17 17 16 18 17 20 21 17 16 16 17 14
59 58 57 56 53 51 50 48 49 48 49 48 46 44 43 43 43 44 45 44 44 46 49 46 46 42 41 27 26 29 27 29 27 24 19 18 17 15 16 16 16 18 15 14 14 15 15
59 58 57 55 52 51 48 47 48 48 47 47 45 44 43 42 41 43 43 38 40 42 43 40 40 32 29 22 23 21 19 21 27 24 21 22 17 14 15 16 16 16 13 13 15 16 13
59 58 56 53 51 48 48 49 47 46 45 45 44 43 41 41 42 43 42 36 25 29 23 34 40 34 21 23 24 24 22 15 24 22 21 20 18 18 18 17 16 16 14 13 12 13 13
58 56 54 51 49 49 49 47 46 46 45 44 42 40 40 41 42 39 34 25 31 35 25 24 21 30 22 28 26 21 15 15 19 20 21 20 19 20 18 18 17 17 17 15 13 15 15
53 52 51 50 49 47 47 46 45 46 44 41 40 40 41 41 39 36 31 29 33 38 22 24 15 24 28 28 27 27 24 18 15 16 18 18 20 19 18 20 19 17 18 17 14 15 18
49 48 48 47 47 47 47 47 46 44 40 39 39 39 40 40 38 34 31 32 34 41 8 16 19 27 27 27 20 25 24 21 18 18 17 17 17 16 16 16 18 17 17 16 18 18 20
48 47 47 47 47 46 46 45 43 41 40 39 39 39 39 38 40 37 36 36 38 30 6 17 24 21 18 15 14 25 23 23 22 19 17 16 17 16 15 16 17 19 23 23 23 20 17
46 47 47 46 45 44 44 44 42 40 39 37 38 38 38 35 36 38 39 36 32 18 10 9 15 10 4 1 6 3 18 21 20 18 17 19 17 18 15 15 18 20 22 20 15 15 15
46 45 44 44 44 43 43 42 42 40 37 37 37 38 37 36 39 40 39 32 19 10 7 6 4 3 1 0 -5 -5 3 4 8 13 5 3 5 9 18 16 18 21 20 21 16 15 18
44 43 42 42 42 41 40 41 39 38 37 38 38 37 38 41 38 39 35 22 15 11 8 5 -1 -6 -6 -3 1 7 10 9 11 26 24 23 18 23 20 22 22 21 19 22 21 21 19
43 42 42 42 42 41 42 40 38 37 38 38 35 36 36 37 37 38 30 20 12 7 6 4 -2 -4 -2 4 3 3 2 4 2 16 11 19 21 24 23 24 22 20 21 20 26 20 19
41 42 41 42 41 40 39 38 38 39 39 38 35 32 34 33 37 36 23 16 7 11 12 8 6 4 5 3 5 4 3 6 10 10 9 14 25 24 23 22 22 20 21 22 24 25 21
39 38 38 40 38 37 38 37 38 39 38 36 34 28 32 35 31 33 22 14 11 11 13 12 12 8 7 10 10 8 7 7 19 18 14 23 23 17 18 20 20 23 25 25 21 21 24
37 37 38 39 37 38 38 38 38 38 37 34 31 26 29 36 25 21 14 12 13 12 15 13 12 16 15 13 10 10 11 13 18 18 23 23 21 18 10 12 26 28 31 32 34 31 28
37 38 38 38 38 38 38 38 37 37 38 36 33 23 22 29 24 20 14 12 14 17 20 17 15 18 16 14 13 12 10 13 17 17 25 22 21 19 17 17 20 26 27 26 31 28 30
36 35 36 39 38 37 36 37 37 37 37 36 33 29 27 20 19 20 19 14 16 16 18 18 19 18 19 17 12 10 16 17 17 18 18 23 18 19 18 16 16 17 25 22 26 30 29
36 36 37 38 38 37 36 37 37 37 37 35 29 29 26 22 20 18 17 13 11 13 10 20 17 17 14 13 13 15 17 19 18 18 20 25 19 23 18 19 20 14 15 18 23 30 32
37 37 37 37 38 36 36 37 37 37 37 33 28 30 30 20 18 18 15 14 12 13 13 12 12 14 14 16 20 20 20 20 19 19 18 18 19 20 13 18 20 18 19 19 25 31 31
39 37 37 37 36 35 36 37 37 38 37 36 32 31 27 20 17 17 15 13 11 12 12 13 14 13 20 21 21 21 21 20 18 17 18 18 19 20 18 19 13 14 24 26 33 34 35
41 40 38 36 35 36 37 37 38 38 37 35 35 31 28 24 21 13 13 12 12 13 13 13 16 21 22 20 22 21 16 17 18 20 22 20 21 21 17 18 20 19 31 30 30 30 31
41 40 39 38 37 38 38 38 38 38 38 37 34 36 32 30 19 13 12 12 13 18 18 21 24 22 21 24 23 19 15 16 19 20 24 26 25 22 21 17 14 28 32 32 33 26 31
38 39 38 38 38 39 38 39 38 39 38 36 34 35 32 29 23 25 23 25 21 22 19 23 23 23 24 22 20 20 20 20 18 23 18 21 22 20 21 16 23 30 30 31 24 25 29
38 38 38 38 38 39 39 39 38 38 38 36 36 34 32 29 28 28 24 21 22 24 22 22 22 23 24 20 23 20 21 22 22 29 24 20 20 21 21 20 18 29 29 24 30 31 28
39 39 39 38 39 38 40 39 38 38 39 38 34 33 32 29 29 30 29 29 28 27 25 24 21 25 28 21 22 23 21 25 26 21 31 25 29 25 25 23 30 30 29 31 31 31 29

GFSGBSN_sfc_30mbdewp_090.txt.gz
Dewpoint
60 59 58 57 56 56 55 54 53 52 51 50 49 48 47 47 47 47 47 46 45 44 44 45 45 47 46 39 36 36 45 48 41 30 26 28 28 27 19 14 17 19 21 22 22 21 19
59 60 59 58 57 56 55 55 53 52 51 50 49 48 47 47 46 45 44 44 44 44 44 45 46 46 44 20 18 31 43 44 42 36 34 30 32 30 25 18 14 13 12 14 18 18 19
57 59 59 58 57 56 55 55 54 52 51 50 49 48 48 46 45 44 44 44 44 44 44 45 46 45 43 23 28 37 35 29 29 36 31 32 32 26 21 21 25 24 22 22 21 18 16
56 57 58 58 58 56 55 55 54 52 51 50 49 49 47 45 44 44 44 44 44 44 45 46 48 46 36 37 37 36 34 29 23 19 20 19 18 18 19 22 20 20 21 19 20 18 17
55 56 57 58 58 57 56 55 53 52 50 50 49 49 45 45 45 44 44 43 44 44 45 47 49 45 38 42 38 36 32 26 21 22 22 21 17 16 16 17 17 20 18 18 18 18 17
56 56 56 57 58 57 56 54 52 51 50 49 49 47 46 46 45 44 44 43 43 44 46 48 46 42 39 28 31 29 29 26 21 24 21 19 17 14 16 15 14 15 18 18 16 15 16
56 56 56 57 58 57 55 53 51 50 49 48 47 45 46 45 43 43 44 37 38 41 42 38 37 36 33 26 23 20 22 24 24 25 18 20 17 16 12 15 16 16 17 16 16 15 15
56 56 57 57 58 56 54 52 49 49 48 46 45 45 44 43 42 42 42 34 29 29 25 39 42 40 35 36 23 24 21 15 15 22 22 21 19 20 18 16 16 16 15 15 16 15 14
57 57 57 57 57 54 52 50 50 48 46 45 46 44 42 41 42 40 36 33 34 33 20 18 25 37 37 33 25 25 22 17 20 20 22 20 20 21 20 19 18 18 17 16 17 18 17
53 57 57 56 53 52 51 50 47 45 46 46 42 40 40 41 35 37 34 30 36 38 12 14 22 23 29 28 26 28 16 15 14 16 17 20 21 20 20 19 18 16 20 19 17 16 13
47 49 52 52 52 51 48 47 47 47 44 40 40 39 40 40 38 35 33 33 35 40 0 19 15 24 29 26 26 26 24 21 16 16 18 18 17 16 16 16 18 16 20 20 19 18 20
46 46 47 48 47 47 47 47 44 42 40 40 39 39 38 37 39 37 38 37 38 31 7 17 24 24 27 27 18 25 22 23 21 18 18 17 19 17 16 16 16 19 19 23 22 21 18
47 47 47 47 46 46 45 44 43 41 39 37 38 38 37 36 36 39 40 37 28 25 15 18 23 22 22 16 16 24 22 19 19 18 17 17 18 19 18 16 16 17 19 18 17 16 15
46 46 45 45 45 45 43 42 41 39 37 37 38 38 38 36 37 40 39 32 25 8 9 6 4 4 4 2 -2 -3 10 13 24 23 18 13 8 15 23 20 15 17 18 18 14 12 11
44 44 44 43 43 42 43 41 39 38 37 37 38 37 34 40 39 39 35 27 15 11 7 5 2 -5 0 4 4 10 7 7 15 11 19 17 19 21 26 25 20 21 20 21 19 20 20
43 42 42 42 42 41 41 38 37 36 39 39 35 37 37 40 38 38 32 25 8 9 8 5 -0 4 4 4 4 3 4 8 9 10 10 14 9 25 22 22 23 23 25 18 23 17 16
42 42 42 42 42 41 40 37 36 37 38 39 34 33 36 37 38 36 23 15 11 12 11 11 8 6 7 6 7 6 7 15 14 13 15 18 21 16 12 21 18 17 19 26 26 23 19
41 40 43 42 40 39 38 38 38 37 37 36 34 29 34 36 32 33 21 15 12 13 15 13 12 13 14 13 11 9 10 14 20 20 17 23 21 16 14 18 18 19 27 33 26 24 25
38 39 39 38 37 38 38 37 38 38 37 34 31 25 29 36 25 17 15 16 18 15 16 16 15 17 16 14 11 13 10 17 19 17 18 19 17 12 4 9 23 23 23 24 29 31 27
37 37 38 38 39 39 38 37 37 37 38 35 33 13 22 29 28 20 14 14 16 19 18 18 22 21 17 15 15 12 13 18 20 21 26 23 19 15 12 14 18 17 16 16 24 24 26
38 39 39 39 38 38 37 37 37 37 37 36 33 28 26 18 21 20 18 18 18 17 19 20 17 19 18 17 14 13 17 18 19 21 21 22 18 20 20 21 20 19 19 16 15 20 25
36 37 39 38 37 37 36 37 37 37 39 34 28 26 28 22 21 18 18 14 15 13 18 18 15 17 15 14 16 16 18 18 18 19 19 23 17 16 9 15 17 17 20 19 16 16 20
37 38 38 39 38 36 36 37 37 38 38 32 31 30 28 21 18 17 14 14 14 13 15 15 15 14 13 18 19 18 19 19 18 18 18 18 16 14 8 16 18 15 19 19 15 24 30
38 38 37 38 37 36 37 37 38 38 37 35 33 32 27 18 17 17 15 15 14 13 12 12 13 13 20 21 21 21 21 19 19 19 19 17 16 18 16 18 12 18 32 30 31 32 33
39 38 38 37 35 36 37 38 38 38 39 35 35 31 27 22 20 14 13 12 12 14 12 13 22 22 22 21 21 20 18 17 18 22 21 20 19 20 16 15 15 18 30 28 26 27 31
41 40 38 37 36 38 38 38 38 38 39 36 34 36 33 20 18 22 13 14 16 17 20 22 24 26 25 24 23 18 13 15 17 18 27 24 21 22 21 16 13 25 28 32 32 23 30
41 40 39 38 38 39 39 38 39 38 38 36 33 36 32 22 27 24 22 20 22 20 20 22 22 22 25 21 20 20 19 21 20 19 23 23 24 20 20 18 20 27 30 32 23 22 27
39 40 40 39 39 40 39 38 38 38 38 37 33 33 30 27 29 28 28 24 23 24 20 22 22 22 22 21 20 19 19 20 23 26 25 24 22 22 23 19 17 28 27 23 28 30 26
39 39 39 39 39 40 39 39 38 38 37 39 31 35 33 27 28 30 28 29 27 26 24 24 22 27 25 18 20 22 21 22 22 21 29 22 25 23 23 21 28 29 28 30 31 29 28

GFSGBSN_sfc_30mbdewp_096.txt.gz
Dewpoint
50 51 51 52 53 54 58 59 58 57 56 56 55 54 53 52 50 49 49 49 47 46 45 44 44 46 43 20 5 23 47 51 47 38 29 22 22 17 9 13 19 24 25 25 24 22 23
51 51 51 51 51 52 54 56 58 58 57 56 55 54 53 53 50 49 49 48 46 46 45 44 44 45 40 2 11 29 31 46 33 26 23 27 25 24 24 25 19 17 17 17 18 20 19
49 51 51 52 52 52 52 54 56 57 57 56 55 54 53 52 50 49 48 46 46 45 44 43 45 45 40 14 26 29 37 43 38 29 29 27 28 30 25 18 22 22 22 21 21 22 22
50 50 51 52 53 53 53 52 55 57 57 56 55 54 53 52 51 49 48 47 45 44 43 43 46 44 34 37 37 37 36 25 29 36 37 33 32 25 19 19 18 19 20 19 21 20 20
50 50 51 53 52 53 53 52 52 56 57 57 55 54 52 51 50 48 46 45 44 41 41 43 47 44 32 38 40 41 34 24 22 28 26 26 20 17 16 15 15 19 16 18 18 20 18
48 49 51 53 53 55 54 53 53 55 56 56 55 54 51 50 48 46 45 44 41 44 44 44 46 35 34 23 36 39 39 30 22 24 22 20 19 16 16 15 12 16 17 17 16 15 16
48 48 51 52 53 56 54 55 55 55 56 56 55 52 50 49 47 45 43 39 38 38 42 35 34 28 27 35 36 24 35 31 26 23 19 19 17 15 15 15 16 17 16 16 16 15 15
48 48 50 53 54 56 55 55 55 56 56 55 53 51 49 47 46 45 41 34 36 38 33 37 36 35 33 34 33 32 29 26 25 23 21 20 17 17 16 14 14 13 13 13 15 16 16
47 48 50 52 53 57 55 56 56 56 56 54 52 50 48 46 46 44 39 33 32 36 29 27 28 34 32 34 29 33 23 23 22 23 22 20 19 20 19 19 18 18 16 17 16 18 19
46 48 50 51 55 56 56 56 55 56 54 52 50 48 47 45 37 37 36 35 33 32 21 13 19 31 33 36 32 30 24 19 18 21 22 22 22 21 21 20 20 18 20 19 19 18 16
46 47 49 49 50 53 53 55 55 53 51 49 48 46 43 39 37 35 38 33 29 36 14 8 20 29 34 28 22 30 22 17 15 16 20 19 19 21 20 19 21 19 21 20 20 19 20
46 46 47 47 47 47 48 48 48 47 47 46 44 43 42 39 38 38 36 39 39 21 12 11 22 27 32 28 26 24 21 20 18 16 19 18 19 17 18 19 20 19 19 21 22 21 14
46 46 46 45 45 45 45 45 45 45 44 43 43 42 39 40 32 39 39 37 17 14 16 19 21 26 24 22 25 23 19 20 19 16 14 17 16 18 20 16 19 18 16 12 11 13 11
47 47 46 45 45 45 45 45 44 44 43 43 42 40 38 37 37 39 38 29 12 5 4 9 18 24 23 24 19 21 19 14 9 22 18 15 10 20 24 22 21 20 16 12 10 12 13
45 46 45 45 45 44 43 43 42 42 41 41 40 36 33 34 35 39 32 22 13 14 12 12 26 23 6 6 9 8 11 11 10 11 16 19 18 21 18 17 22 21 17 23 17 19 16
45 45 44 44 43 43 42 41 41 41 39 38 35 32 35 40 39 37 30 22 18 18 18 20 26 22 4 7 7 8 10 15 10 16 17 13 4 19 15 20 16 16 23 22 24 16 13
44 44 44 43 44 43 42 40 39 38 38 39 36 33 37 40 38 34 25 23 18 20 18 18 17 12 11 8 9 10 15 17 16 18 19 18 11 11 8 12 9 5 11 26 25 25 21
44 43 43 43 43 42 39 38 38 38 40 37 34 27 38 38 30 30 24 23 19 22 22 22 24 20 16 14 12 14 17 18 21 19 15 19 19 9 8 16 22 18 29 26 19 21 23
43 43 42 42 42 42 39 38 38 38 37 34 29 31 35 36 26 26 24 20 23 22 22 23 20 20 19 15 11 16 18 20 24 20 16 15 14 -1 5 14 13 18 17 20 20 22 18
42 42 43 43 41 39 39 39 38 38 38 33 30 19 27 32 32 27 18 19 19 23 22 23 22 20 17 14 17 16 18 18 20 26 26 20 17 4 -11 1 18 16 18 18 18 15 11
42 42 40 39 39 38 38 38 37 37 38 35 33 21 24 22 26 24 20 20 17 15 20 21 20 20 17 13 15 16 17 16 19 23 22 20 13 18 17 19 17 15 9 6 11 13 12
40 40 40 38 38 38 37 37 37 37 39 34 27 26 27 23 23 21 20 18 17 18 18 17 17 16 16 14 15 14 15 15 13 18 18 21 15 17 15 15 14 10 13 15 16 17 17
39 39 39 39 38 36 37 37 37 39 39 33 31 31 27 22 18 16 17 18 15 15 14 18 16 15 15 16 18 17 18 17 15 16 16 15 13 12 6 15 9 -2 12 26 26 27 27
39 39 40 38 37 36 36 37 38 40 39 32 32 31 22 18 17 17 18 16 15 16 12 16 16 15 19 21 22 22 21 20 19 18 18 17 15 14 11 10 -13 17 29 29 27 28 28
38 39 39 38 37 36 37 38 39 41 39 34 35 30 25 18 19 17 16 16 18 21 21 22 24 24 23 24 18 16 16 17 21 22 21 19 16 13 8 13 10 19 26 24 24 23 27
39 39 39 37 37 37 38 38 39 41 38 34 34 35 26 17 19 24 15 16 16 20 21 21 24 26 24 22 19 14 13 18 17 21 24 21 20 16 18 13 9 21 24 28 29 20 26
40 39 37 37 38 38 38 39 39 40 37 32 32 34 27 23 27 24 17 19 22 22 20 21 23 22 23 21 18 14 16 20 18 18 21 21 21 17 17 16 18 24 26 29 19 18 25
40 40 38 39 38 38 38 37 39 40 37 32 33 35 28 26 27 28 25 23 23 22 17 21 20 19 19 16 15 17 16 21 20 22 24 21 19 19 19 17 15 26 24 19 24 27 26
41 40 39 40 39 38 38 38 40 39 38 33 30 36 33 26 26 30 29 29 24 23 23 25 20 25 22 18 20 21 19 21 21 18 25 20 22 20 21 19 27 27 26 27 28 26 25

GFSGBSN_sfc_30mbdewp_099.txt.gz
Dewpoint
49 49 50 51 51 52 52 53 53 55 59 58 57 57 56 55 54 53 51 50 49 47 46 45 44 46 42 22 4 39 52 49 50 43 28 25 21 16 10 13 20 23 23 24 24 23 24
48 48 49 51 51 51 52 53 53 53 54 58 57 57 56 55 54 53 51 50 47 46 45 45 44 45 41 10 9 29 33 50 38 36 29 23 20 19 14 18 17 19 21 21 20 19 18
47 48 48 51 51 51 52 53 53 51 53 54 56 57 56 55 54 53 51 48 47 46 45 44 43 44 40 23 21 30 36 43 36 28 24 26 28 29 28 23 24 22 20 22 22 22 22
46 48 49 50 50 50 52 53 53 53 53 53 54 56 56 55 54 52 50 48 46 44 42 42 44 44 34 36 37 36 31 27 32 31 33 33 30 29 22 19 19 18 20 17 21 21 21
45 47 50 49 50 50 51 52 53 54 53 53 53 56 55 54 53 51 48 46 44 44 42 45 44 43 33 37 37 38 34 23 23 29 31 28 26 21 18 15 15 19 12 18 18 21 20
44 46 49 49 49 50 51 52 53 54 53 53 53 56 55 54 51 48 46 44 43 43 45 44 44 38 36 30 31 38 40 28 19 26 26 23 20 17 16 14 10 13 16 19 17 15 18
44 44 48 47 49 51 52 53 53 55 54 53 53 56 55 52 49 47 44 42 39 38 40 37 36 34 29 33 36 32 37 29 23 21 21 21 19 16 15 17 16 18 17 16 17 17 14
46 48 47 47 50 52 52 53 55 55 55 54 55 56 53 51 48 46 40 37 37 38 36 37 36 37 37 35 30 28 34 28 25 13 16 18 17 18 18 17 15 15 14 12 14 16 17
48 48 47 48 50 53 53 55 56 54 55 55 55 54 51 50 47 42 37 36 40 38 31 31 35 36 36 37 35 31 30 27 23 23 21 16 19 20 17 15 14 15 13 17 17 18 20
46 47 48 48 51 51 54 56 56 55 55 56 55 52 49 48 42 41 38 40 40 33 28 27 27 29 34 34 33 36 31 27 23 24 23 22 22 19 18 17 18 16 19 19 19 18 14
45 47 48 48 50 50 51 52 56 55 55 54 51 49 47 43 37 34 39 37 37 31 20 19 18 28 32 31 26 32 35 20 29 22 26 24 22 22 21 20 21 19 22 20 20 19 19
47 47 46 48 47 47 47 47 48 48 48 47 45 43 40 38 39 42 43 41 39 24 18 13 25 29 29 29 26 27 32 23 21 20 22 21 20 21 22 22 22 21 21 23 23 21 15
47 46 46 46 46 45 45 45 44 44 44 43 43 42 41 41 37 42 42 39 23 19 19 17 22 31 29 26 22 24 20 19 16 14 15 17 17 18 19 16 20 19 17 10 12 15 9
46 47 46 46 46 46 46 46 45 45 44 44 43 42 42 40 43 43 39 31 18 14 6 10 12 26 23 22 21 20 20 15 13 21 16 13 13 21 19 22 19 18 16 9 7 10 11
46 46 47 46 45 45 45 45 44 44 44 42 39 36 39 38 42 42 35 22 20 20 18 16 29 24 11 14 13 15 15 11 10 14 17 18 19 23 18 18 22 21 17 23 17 19 14
46 46 45 45 45 44 43 43 43 42 41 39 33 33 32 38 40 39 30 23 20 18 19 21 24 28 16 11 11 13 15 16 13 20 18 14 11 20 16 21 11 21 25 24 24 12 7
45 45 45 44 44 43 42 42 42 41 39 39 35 28 36 40 42 34 23 23 22 21 20 22 23 25 17 12 17 17 16 19 22 20 21 20 10 11 12 12 9 2 10 27 26 25 17
45 45 44 44 44 43 42 41 40 40 39 36 34 27 38 40 29 31 25 22 22 21 24 24 29 25 18 16 15 21 17 19 26 22 15 20 15 5 11 19 20 23 26 25 11 17 23
46 45 44 43 43 43 41 39 39 39 38 33 32 32 37 36 23 24 25 19 22 22 24 29 25 25 19 16 14 18 17 22 25 20 15 15 9 -2 7 16 17 16 18 18 17 20 14
46 44 43 42 42 42 40 39 38 39 38 34 25 25 31 32 32 29 22 20 20 23 24 26 27 25 19 16 19 18 16 17 24 28 26 20 15 2 -5 10 16 13 17 17 15 17 12
46 44 43 43 42 41 39 39 38 38 39 34 32 22 25 21 25 27 23 20 19 18 22 22 20 20 18 13 15 16 16 17 20 23 21 19 12 16 15 18 18 17 14 12 9 8 6
44 43 43 43 39 39 38 39 38 38 39 32 29 28 27 24 23 24 24 20 17 18 19 19 18 18 16 14 15 14 15 14 14 18 18 20 19 18 14 16 16 12 11 10 9 11 14
43 42 41 40 39 38 37 37 37 37 39 33 32 31 27 23 22 21 19 20 18 16 16 19 18 16 15 17 17 18 18 18 18 16 16 15 16 11 3 13 10 3 10 10 20 24 24
42 41 41 40 39 37 37 37 37 38 39 36 32 31 24 18 18 17 18 18 16 16 14 18 18 16 20 22 23 22 22 20 19 18 18 17 15 14 7 12 -6 22 26 27 25 25 27
40 40 40 39 37 36 36 37 38 40 41 36 35 30 25 19 20 19 18 20 22 22 22 23 25 25 25 23 17 16 17 19 21 23 21 19 17 14 10 11 10 23 25 23 23 22 25
40 40 39 38 37 37 37 38 39 40 39 35 35 35 27 19 19 22 18 20 18 20 20 22 26 26 24 22 19 13 12 17 17 22 22 20 20 16 17 12 8 20 22 25 28 19 24
40 40 39 38 38 37 38 38 40 39 39 33 33 35 28 24 27 23 16 18 23 22 20 22 23 21 24 21 16 14 16 20 17 18 21 20 19 17 16 16 18 24 25 26 18 18 24
40 39 38 38 38 38 38 38 40 39 37 32 33 35 28 26 27 28 25 22 23 22 18 22 18 19 20 15 15 17 17 22 20 21 23 21 19 17 17 16 14 25 22 18 23 26 25
40 39 39 39 38 38 37 39 40 39 36 33 29 35 34 26 26 30 29 28 24 22 23 24 19 24 22 17 20 21 20 22 20 18 25 19 23 20 21 19 26 27 25 26 27 24 24

GFSGBSN_sfc_30mbdewp_102.txt.gz
Dewpoint
50 49 49 49 50 51 51 51 52 53 53 54 55 57 58 58 57 55 54 52 50 49 46 45 44 45 36 26 29 33 52 47 40 38 25 24 19 17 12 10 12 17 11 11 13 13 14
48 48 49 48 49 50 50 51 52 53 53 53 52 54 57 57 57 56 54 51 50 47 46 45 44 45 36 34 33 15 32 41 35 32 24 21 17 15 10 8 9 13 16 16 19 19 19
47 48 47 49 50 51 51 51 50 51 53 53 52 51 53 56 56 56 53 51 48 47 45 44 43 41 37 37 32 24 29 26 32 28 23 20 17 15 14 14 15 18 16 15 17 17 15
46 46 46 48 49 51 51 50 49 50 52 53 54 53 53 55 56 55 53 50 48 45 43 41 42 40 38 37 35 33 29 25 31 32 26 21 23 22 22 20 18 16 17 15 17 17 18
45 45 46 47 48 51 50 49 49 51 51 52 53 53 53 54 56 54 51 49 46 44 44 43 41 40 37 37 34 34 33 28 23 31 27 29 26 23 24 20 15 16 13 15 15 20 18
44 45 46 46 48 49 48 49 51 52 51 52 53 53 53 54 55 52 49 46 45 44 43 42 38 40 40 37 32 31 37 31 23 19 28 28 25 22 21 17 15 15 14 14 14 15 17
45 44 46 47 48 47 48 50 52 51 51 52 54 54 53 55 53 49 46 44 41 39 41 40 38 37 36 32 32 31 36 31 20 20 22 23 20 17 17 17 16 16 14 13 15 15 15
45 45 47 46 46 47 48 51 52 53 54 55 55 54 53 54 50 47 46 42 41 41 38 39 39 39 39 36 31 29 33 24 16 15 20 22 21 21 19 17 15 16 14 12 13 12 9
47 47 45 44 46 48 49 52 54 55 56 56 55 54 54 51 48 46 44 42 38 38 36 37 37 37 38 37 36 34 30 27 22 18 12 23 23 19 16 17 16 15 12 11 8 14 18
45 44 42 46 47 49 50 52 53 56 55 54 55 55 52 49 44 42 39 40 37 38 32 29 31 33 36 36 34 36 32 30 30 30 25 25 23 21 19 17 16 12 12 11 13 17 11
45 43 45 48 49 49 50 51 53 56 55 55 55 51 48 46 42 40 40 41 39 35 21 23 25 28 31 33 29 31 36 28 28 27 28 26 23 25 25 18 16 13 16 18 17 17 16
45 44 47 47 47 47 48 48 49 50 52 51 49 47 43 41 42 42 41 41 39 30 22 23 19 23 27 29 28 27 34 30 32 36 36 32 32 31 29 29 27 21 20 20 20 17 14
45 44 47 47 46 45 45 45 45 45 45 44 44 43 42 43 38 43 42 39 28 24 22 21 21 26 23 21 24 26 33 29 29 28 28 29 27 22 23 21 24 24 17 16 14 13 9
45 44 47 47 47 47 46 46 45 45 45 45 44 43 43 42 44 43 41 32 23 26 19 13 13 18 24 21 21 22 31 30 29 22 19 18 17 17 19 17 17 21 16 15 11 6 6
44 44 45 46 46 46 46 46 45 45 44 42 41 40 40 43 44 43 35 26 26 23 22 18 18 23 21 19 15 18 21 24 19 19 17 15 16 20 18 19 21 16 16 15 13 14 11
43 44 44 47 46 45 45 45 45 43 41 37 34 35 36 41 43 40 32 26 23 19 17 18 19 29 23 15 16 17 17 16 15 19 19 19 16 19 15 18 16 22 20 18 17 10 7
42 44 44 46 45 45 44 44 43 42 39 37 30 29 37 41 42 35 26 23 22 22 19 22 22 25 25 16 16 25 18 18 20 19 21 19 14 15 14 14 12 14 19 25 23 19 12
42 42 46 46 44 43 43 44 43 43 40 36 33 28 39 43 31 31 25 22 23 21 22 24 28 26 25 21 26 23 20 20 27 25 20 18 13 7 11 19 16 11 17 16 12 10 16
42 40 44 46 45 44 43 43 42 42 39 33 33 31 39 39 26 25 25 21 22 22 22 26 25 28 21 22 16 26 27 29 28 25 19 15 11 11 9 15 17 14 18 17 18 15 10
41 41 43 45 45 44 43 41 41 41 39 36 29 26 33 35 34 27 23 21 21 22 22 25 26 28 23 19 18 18 19 21 27 25 26 17 9 3 -0 10 15 15 15 14 16 14 6
40 41 41 44 44 43 42 39 39 41 39 35 29 27 24 25 28 27 24 21 20 19 24 22 23 28 30 18 16 17 16 20 21 23 22 17 6 8 11 12 11 11 11 9 6 4 2
39 40 41 44 43 43 41 39 38 40 39 35 32 23 24 20 24 25 25 19 18 20 21 19 23 20 22 23 18 15 15 15 14 18 18 19 15 13 7 10 10 8 6 6 6 5 2
39 41 42 44 43 42 40 39 39 39 37 34 33 32 24 23 20 24 21 19 19 19 22 25 21 18 16 17 18 18 18 18 17 15 15 12 16 9 -4 7 6 -0 7 5 4 8 16
43 43 42 44 41 38 38 38 39 38 37 37 32 31 28 21 16 22 18 20 18 18 19 19 18 17 20 22 21 19 17 16 14 16 13 11 11 8 2 7 5 21 25 26 24 23 27
41 41 43 41 40 39 37 36 37 37 38 39 35 32 27 22 16 20 19 18 19 20 19 20 24 25 24 20 16 15 17 18 22 22 14 14 14 15 14 11 11 22 24 25 24 23 26
42 42 41 41 39 38 38 35 38 39 40 41 36 36 29 26 20 20 20 20 17 18 20 23 26 28 26 21 18 11 8 11 17 21 24 19 17 18 15 13 8 24 23 24 28 19 24
41 41 40 38 39 38 38 38 39 41 42 39 34 38 29 30 26 23 18 19 22 20 18 22 22 22 26 23 20 17 15 18 16 18 20 20 20 16 15 14 21 25 23 26 19 20 23
41 41 39 39 39 38 38 39 41 41 40 35 35 36 31 28 28 28 26 23 24 20 17 24 20 21 21 17 16 19 19 20 21 25 24 20 18 17 16 16 16 24 23 22 24 26 25
40 39 39 39 39 39 38 40 40 39 38 35 32 35 34 28 27 30 30 28 27 25 22 24 22 23 23 17 18 20 21 24 21 19 26 21 24 23 23 22 25 25 25 26 28 26 25

GFSGBSN_sfc_30mbdewp_105.txt.gz
Dewpoint
49 50 49 49 49 49 49 51 52 52 52 53 54 54 54 55 57 58 56 54 52 51 49 46 45 44 40 39 39 44 48 48 39 37 26 26 25 24 23 23 19 19 19 18 14 13 14
47 48 48 49 48 49 49 50 52 51 51 51 52 53 54 53 54 57 57 54 52 51 48 45 44 44 40 40 43 42 30 37 30 32 30 27 26 25 23 21 18 17 15 16 17 14 15
47 47 47 48 49 49 50 51 52 51 51 50 51 53 54 53 53 55 56 54 52 49 46 44 43 40 40 41 43 39 28 30 36 33 32 31 27 24 22 21 21 19 16 17 16 17 18
46 46 46 47 48 49 49 51 52 51 50 50 51 51 52 53 53 53 56 53 51 48 45 42 41 39 41 43 42 41 39 31 30 31 31 29 27 22 22 22 21 21 20 18 21 19 18
46 46 46 48 48 48 48 50 50 49 50 51 51 52 52 53 53 53 55 52 49 47 44 43 42 42 39 40 39 38 37 35 33 30 31 31 24 26 24 24 22 24 20 20 20 21 18
44 45 46 46 47 48 50 49 48 49 51 52 52 52 53 53 53 54 52 49 47 45 44 42 41 40 39 36 37 33 34 35 33 30 28 30 26 27 25 24 24 25 23 22 19 20 18
45 46 45 45 47 48 46 47 48 49 51 52 53 53 53 54 53 51 47 46 43 41 41 39 37 35 36 35 34 32 35 34 30 24 21 26 25 25 26 27 25 24 24 24 19 19 18
45 46 46 46 46 45 45 47 49 50 51 53 54 54 54 54 53 48 49 45 44 42 39 41 40 38 37 38 35 35 32 31 28 25 24 24 26 26 26 25 25 25 22 22 23 21 16
45 46 46 44 42 44 46 48 49 51 51 53 55 55 55 54 50 49 47 47 41 43 39 37 35 36 36 35 35 34 33 31 28 24 22 21 25 26 26 27 30 30 26 20 24 26 18
45 47 47 44 42 46 48 49 49 51 52 54 55 55 54 51 47 48 45 40 40 45 34 28 30 32 33 34 33 34 35 32 29 25 24 23 24 26 26 28 30 28 28 21 24 19 12
46 46 47 45 45 48 48 49 50 51 53 55 54 54 51 48 44 44 41 39 39 42 22 16 24 31 30 33 27 26 32 33 29 27 31 27 26 26 25 27 25 29 26 26 25 16 14
46 46 46 46 47 48 48 48 48 51 54 55 54 50 49 46 45 45 41 40 42 31 19 20 21 22 25 31 29 24 29 33 33 33 36 34 37 32 26 24 27 32 30 24 23 18 17
44 46 46 45 47 47 47 46 46 47 49 51 49 47 45 44 41 44 42 40 30 25 26 23 19 21 22 23 24 23 26 31 29 29 29 32 31 34 31 30 29 31 31 22 20 21 20
44 45 45 45 46 46 45 45 44 45 45 46 45 44 44 43 44 43 40 35 25 24 25 20 19 19 22 23 22 21 23 28 28 29 29 29 27 30 30 28 29 27 28 20 17 16 16
43 43 44 44 45 46 47 46 46 46 45 44 43 42 42 43 44 43 37 28 28 31 26 22 18 19 20 21 21 20 20 27 27 28 26 23 19 20 21 22 22 29 24 21 19 19 16
42 42 44 43 44 47 47 47 46 45 44 42 39 38 39 44 46 41 33 30 28 25 21 19 19 27 21 21 20 15 16 23 27 31 26 26 22 19 18 18 19 21 25 17 21 18 10
41 42 43 43 44 48 46 46 46 44 42 39 40 36 39 43 43 35 29 27 25 23 19 20 20 26 23 23 18 16 20 19 26 19 21 23 21 20 17 16 17 17 28 26 27 22 16
40 41 42 43 42 47 46 45 45 43 38 37 35 32 40 43 31 32 28 27 24 22 21 21 24 24 23 24 18 26 22 20 24 19 21 24 22 19 15 19 18 16 14 22 24 18 24
38 40 42 42 41 43 45 45 44 43 40 37 36 33 40 41 27 29 27 25 22 22 21 24 24 24 23 25 22 32 24 28 29 24 22 21 19 13 12 15 15 12 12 15 17 17 9
37 39 41 41 42 46 45 45 45 44 41 39 34 28 32 34 34 30 24 24 21 22 22 25 30 26 24 23 22 27 29 29 26 23 26 22 16 14 12 13 14 13 11 12 13 14 7
37 38 41 41 42 41 45 44 44 43 41 39 36 31 30 26 29 27 28 24 22 20 21 22 28 26 26 23 22 22 23 24 24 23 20 19 15 11 8 9 8 10 11 10 8 8 4
37 40 40 41 41 40 46 44 43 43 41 37 34 28 26 25 25 26 28 26 20 21 20 22 23 25 28 27 22 18 19 19 16 18 16 17 12 13 8 8 7 3 2 2 2 2 2
38 41 39 40 42 42 45 43 42 42 40 36 36 34 27 25 24 26 27 22 21 24 23 25 25 22 26 27 21 20 19 19 18 17 16 15 17 9 -2 5 2 -4 4 3 1 -0 6
41 39 39 39 41 40 44 41 41 42 39 38 38 35 29 24 24 23 22 22 22 25 22 23 26 19 21 21 19 18 18 17 16 15 16 12 11 7 1 4 -3 19 23 23 22 20 24
39 39 40 42 42 43 43 41 41 41 39 39 41 35 32 29 18 22 23 20 24 22 27 19 21 22 21 18 15 13 12 13 14 12 10 9 9 11 12 5 12 18 22 26 24 25 26
39 40 43 42 42 44 41 40 40 40 39 38 38 39 35 31 19 23 21 23 22 21 21 24 26 26 22 16 15 8 8 6 13 17 17 16 18 17 13 11 7 24 22 23 27 19 23
39 43 42 42 41 41 39 39 39 37 38 38 38 40 34 34 27 26 24 22 23 21 20 22 23 23 23 20 18 13 12 13 13 15 19 18 19 16 13 12 22 25 23 26 20 20 24
40 42 43 41 40 39 38 37 39 40 41 40 39 38 36 31 28 27 25 24 23 20 20 22 20 21 17 17 14 17 18 16 20 27 20 17 15 14 13 16 18 24 24 22 25 26 24
43 41 39 40 39 39 36 39 41 42 41 41 38 36 35 31 29 30 30 30 29 27 21 23 22 17 21 17 16 18 20 22 21 17 26 22 27 26 23 23 25 25 25 26 26 25 26

GFSGBSN_sfc_30mbdewp_108.txt.gz
Dewpoint
50 50 50 50 50 49 49 50 51 52 52 52 52 52 53 53 54 54 56 57 55 53 51 49 46 45 42 42 43 45 45 45 38 31 32 31 28 28 27 27 27 26 24 23 22 21 20
48 49 48 49 49 49 48 49 51 52 52 52 52 51 52 53 54 54 53 57 55 53 51 48 45 44 41 40 43 44 43 39 35 33 33 33 31 31 29 29 27 26 24 23 21 18 17
48 48 48 48 49 49 49 50 51 52 53 52 52 51 52 52 52 54 53 54 54 52 50 46 44 42 41 41 41 41 40 36 33 37 34 34 34 31 30 29 28 26 23 22 23 23 21
47 47 47 48 48 49 49 49 49 51 52 51 50 51 52 51 51 53 53 54 54 52 49 45 42 41 40 41 41 41 40 38 39 32 32 33 34 32 30 29 26 25 25 24 26 25 24
46 45 46 47 48 48 48 49 50 51 50 50 51 52 52 52 52 53 54 54 52 50 46 44 43 42 37 40 40 39 39 37 38 35 31 32 33 31 29 27 26 26 25 26 26 27 24
44 46 46 47 47 48 49 50 49 49 49 50 51 52 53 53 52 53 54 51 49 47 45 43 43 40 39 33 33 36 33 37 36 35 33 31 30 30 27 25 25 23 22 23 25 27 26
43 44 45 46 47 47 48 47 47 48 50 50 51 52 53 54 53 53 48 47 44 42 42 40 37 34 34 33 34 33 32 34 32 33 30 28 26 25 22 22 24 24 23 24 24 25 27
45 43 44 45 46 46 45 44 47 49 50 50 51 51 53 54 54 49 48 46 43 43 39 42 41 38 36 34 33 31 33 29 29 28 26 24 20 20 21 22 24 25 27 27 29 27 25
46 45 44 45 46 45 45 45 48 50 49 50 51 52 53 54 52 49 48 47 43 44 38 34 36 39 36 36 33 31 31 31 27 26 25 23 22 21 21 24 23 23 23 26 27 27 27
48 47 46 45 46 46 46 47 48 49 50 50 51 52 55 54 48 48 47 44 46 45 34 25 26 30 32 33 30 32 32 31 29 26 26 25 24 23 20 23 23 22 26 27 27 28 27
46 48 47 47 46 47 47 48 48 48 49 50 51 55 53 50 48 46 43 42 45 43 19 4 18 29 29 28 26 26 31 31 29 28 27 26 25 26 23 22 21 25 32 32 33 31 28
44 46 46 47 47 47 48 48 48 47 49 51 54 54 51 47 47 45 41 44 45 32 19 14 22 26 26 28 28 25 26 30 32 29 30 31 36 35 31 30 28 33 33 31 32 30 24
45 45 45 46 46 46 47 47 46 46 48 53 54 53 50 47 43 42 44 44 32 25 17 13 15 20 21 22 26 27 25 26 29 30 29 29 31 32 32 29 26 29 31 24 22 23 19
45 46 45 45 46 45 47 45 45 46 45 46 46 46 45 45 44 43 45 37 26 17 19 19 20 16 18 20 21 24 23 21 28 28 24 23 24 28 32 28 26 26 29 22 18 20 18
43 45 45 44 45 45 46 46 45 45 45 45 44 43 42 45 46 46 40 30 27 24 21 22 20 18 17 19 21 22 23 21 22 30 29 23 23 28 29 29 28 31 29 28 24 25 25
41 43 44 44 44 44 44 46 46 46 46 44 40 40 40 45 46 43 34 31 31 31 33 29 25 27 20 20 21 27 21 23 20 31 27 31 22 28 27 26 25 28 29 28 28 20 19
38 40 41 43 44 44 44 45 47 46 46 45 41 36 41 45 44 35 29 32 32 33 31 23 23 21 25 23 23 30 31 23 23 28 28 32 22 25 26 21 16 20 20 31 32 22 21
38 39 41 42 42 43 43 45 48 46 45 42 39 32 41 44 31 31 30 32 33 31 23 20 22 23 23 24 23 20 27 29 30 33 30 28 23 21 21 18 18 19 19 30 28 26 29
37 38 39 40 42 43 42 40 47 46 44 37 36 33 41 41 27 28 30 29 30 23 23 21 21 23 24 24 23 25 28 31 28 23 22 25 23 17 22 21 17 16 19 17 21 19 14
35 35 37 39 40 42 43 42 44 46 42 40 36 28 32 33 34 31 28 28 29 23 22 22 23 27 23 23 22 26 30 29 26 25 24 25 20 19 19 21 17 15 13 12 12 17 12
36 36 36 38 39 41 42 43 43 45 43 39 34 33 29 26 28 31 31 25 26 24 21 24 26 26 24 21 21 24 29 28 26 23 23 22 19 17 16 10 9 12 9 9 8 8 10
35 36 38 39 39 41 41 41 43 45 44 38 33 34 33 25 28 30 30 29 23 22 22 20 25 25 25 24 23 22 29 24 24 21 22 24 22 20 15 11 8 5 2 2 5 5 1
36 36 37 38 40 41 41 42 42 45 42 35 36 35 35 28 32 28 27 27 27 24 24 21 24 25 25 27 28 24 25 24 21 23 23 19 18 13 9 9 4 -1 6 1 4 3 9
36 35 36 38 40 40 41 41 43 44 41 35 37 38 34 26 25 28 24 24 24 26 30 26 30 29 30 26 21 20 21 20 21 21 19 17 15 11 5 5 -3 19 22 21 21 26 25
38 38 40 40 40 41 40 43 45 44 42 39 41 39 36 30 28 24 24 26 25 32 31 23 27 30 22 19 19 17 14 13 14 14 13 12 12 7 7 4 16 17 22 24 23 26 25
39 39 39 39 40 40 41 41 44 42 43 41 40 41 38 31 30 25 25 27 32 32 28 25 25 23 21 20 18 15 12 10 13 15 9 9 11 16 13 11 6 23 21 23 26 20 23
40 40 40 39 40 41 42 44 42 42 41 40 40 41 39 32 32 34 31 32 31 29 23 25 25 24 23 21 21 16 17 10 14 13 12 14 16 15 14 11 23 26 22 25 20 20 25
40 39 42 43 43 43 44 42 41 40 42 41 39 39 39 33 31 35 33 33 29 26 23 25 21 21 21 20 17 18 22 15 22 27 16 14 14 14 14 12 15 25 24 23 25 26 25
40 43 43 42 42 41 41 41 39 38 39 40 37 40 40 37 31 32 30 30 30 29 29 24 21 20 21 17 14 17 20 21 22 18 27 24 28 26 24 23 25 26 26 27 29 26 25

GFSGBSN_sfc_30mbdewp_111.txt.gz
Dewpoint
51 51 51 51 51 50 49 50 51 51 52 53 52 52 52 51 51 54 54 53 56 56 54 52 49 46 42 41 43 46 49 47 40 30 28 28 31 29 27 27 28 27 27 28 27 25 24
49 49 49 49 49 49 49 49 50 51 52 53 53 52 52 52 52 53 53 53 54 56 53 52 48 44 41 38 41 42 43 44 35 32 31 32 34 33 31 30 30 30 30 29 28 25 24
48 49 49 49 49 49 49 50 50 51 51 52 53 53 52 52 52 50 50 53 54 55 53 51 47 42 41 41 43 41 41 41 39 36 34 35 34 33 33 32 33 30 27 26 26 25 24
48 48 48 48 48 49 49 50 50 50 50 52 52 51 51 52 52 50 50 52 53 54 52 49 45 42 40 43 43 42 43 42 40 39 33 32 32 31 31 31 29 28 27 24 26 26 27
47 47 45 46 47 48 49 49 50 50 51 51 51 51 52 52 53 51 51 53 54 53 50 46 43 42 40 41 41 41 41 39 38 38 37 32 31 31 32 30 28 28 25 25 26 27 28
45 45 46 47 48 48 48 49 50 50 49 49 50 51 52 52 53 53 53 52 50 48 46 45 43 41 41 32 38 39 39 38 37 37 36 33 31 28 30 29 25 23 24 25 24 24 29
45 44 44 45 47 47 47 48 48 47 48 50 50 51 52 52 53 52 49 47 44 43 43 40 40 40 34 35 33 36 33 34 35 35 33 33 30 27 29 30 28 26 24 22 23 27 28
47 46 45 44 45 46 47 46 46 46 49 50 50 50 51 52 54 50 48 45 43 43 40 42 41 40 37 36 34 33 34 30 32 29 31 30 27 28 28 27 25 22 21 23 25 25 27
48 48 46 45 45 45 46 46 47 47 49 50 50 50 51 52 52 50 47 46 46 45 38 37 42 42 41 40 37 34 33 32 29 29 28 27 26 26 24 22 20 20 22 23 22 24 28
47 48 48 46 46 45 47 48 47 48 49 49 50 50 51 53 48 49 47 49 45 46 34 31 30 35 38 37 34 36 35 32 29 28 28 26 27 27 26 24 23 21 24 29 30 30 27
45 45 47 47 48 48 47 48 47 48 49 48 49 50 51 50 48 47 46 46 46 43 9 15 21 31 33 34 30 30 35 33 30 29 29 27 27 26 28 28 30 27 32 32 32 30 29
46 46 46 47 47 47 48 48 47 48 46 46 49 51 53 51 49 47 44 44 44 32 20 18 25 26 28 32 28 29 29 31 32 30 30 29 34 34 34 32 30 32 32 30 30 31 24
44 45 46 46 46 47 47 47 48 46 46 47 50 53 52 49 45 43 44 45 32 25 20 10 18 25 26 26 27 27 26 27 28 28 28 30 31 33 34 32 31 33 28 23 21 23 19
43 44 45 46 46 46 46 47 47 46 46 46 46 51 47 47 45 43 45 38 25 23 21 15 18 17 20 21 22 26 26 26 29 29 26 26 23 27 33 32 28 29 27 22 17 19 23
41 42 44 45 46 46 46 47 46 46 45 45 45 43 42 45 45 46 42 30 27 26 21 21 18 16 17 19 19 20 25 25 25 29 27 25 22 29 29 31 31 30 28 28 26 24 21
40 41 42 45 45 45 45 45 46 46 45 44 41 40 40 46 47 45 37 29 30 30 26 29 26 26 18 17 18 21 28 26 25 27 30 29 24 27 29 31 31 29 30 27 28 19 18
39 39 40 42 43 43 44 44 45 46 46 45 41 37 42 47 45 38 30 32 33 32 30 30 29 28 27 24 24 28 31 32 31 30 30 31 28 25 26 29 27 27 28 30 31 29 22
39 39 39 40 42 43 44 45 44 46 47 43 39 32 42 45 33 32 31 33 33 33 32 33 29 28 28 25 23 23 28 31 30 32 32 32 29 23 23 27 29 24 25 27 26 24 28
38 39 39 39 40 42 43 44 42 45 46 40 35 32 42 41 27 28 32 30 32 33 35 33 24 23 23 23 24 26 28 34 29 30 35 36 31 23 20 25 27 23 20 27 28 29 22
38 38 39 38 38 39 41 43 43 42 44 41 35 28 32 33 32 31 28 31 33 36 30 30 23 23 25 24 26 25 31 29 29 27 26 28 25 20 17 23 26 18 17 19 22 16 15
38 38 38 36 36 38 40 41 43 42 43 42 35 31 30 26 28 30 32 31 28 31 27 25 25 24 26 24 24 23 27 32 28 25 25 27 24 21 20 24 16 10 11 14 16 14 11
36 37 36 36 36 36 37 41 42 43 45 37 32 32 34 29 28 29 30 32 31 29 30 23 25 27 27 25 24 24 32 33 26 22 25 27 25 21 20 18 10 8 7 4 4 5 5
33 35 36 36 36 37 37 40 41 42 41 33 37 38 35 32 31 28 26 27 29 28 27 25 23 25 27 27 30 27 32 31 26 22 23 23 21 20 20 16 13 5 14 15 20 25 23
36 36 36 36 35 37 38 41 42 42 42 38 36 36 33 28 31 29 27 28 28 28 31 30 29 29 31 29 24 27 31 30 25 26 26 23 20 18 10 6 6 20 23 24 26 26 25
34 35 35 35 36 37 39 41 42 42 42 40 41 38 35 29 30 28 30 27 27 27 33 35 32 32 31 23 21 17 15 15 18 20 22 21 18 9 7 8 19 20 24 21 22 24 24
39 38 38 37 38 39 40 41 42 42 42 41 41 40 36 32 28 34 29 28 30 32 32 33 32 30 23 22 20 21 17 15 13 13 14 12 15 13 14 12 9 21 25 27 26 18 24
39 38 39 39 40 41 41 41 40 43 44 41 38 40 38 32 34 36 33 33 36 34 31 28 25 23 25 21 20 19 19 14 14 15 11 11 15 15 15 15 22 26 25 26 15 16 24
39 40 40 40 40 40 41 42 41 44 44 41 39 41 39 32 34 36 36 35 36 34 29 26 22 23 23 20 22 23 25 21 21 23 13 15 15 16 17 15 16 26 26 22 25 26 24
39 39 39 39 39 40 41 41 42 43 42 40 37 40 42 34 35 36 35 36 36 35 29 27 23 21 24 22 19 20 23 21 23 21 27 19 25 23 24 22 25 26 26 28 27 25 25

GFSGBSN_sfc_30mbdewp_114.txt.gz
Dewpoint
52 52 52 51 50 49 49 50 50 51 51 51 53 52 52 51 51 52 53 53 54 53 56 54 52 47 43 42 42 45 47 49 42 31 29 27 31 31 28 28 30 30 29 30 30 30 29
50 50 50 50 49 49 49 50 50 50 51 51 52 53 52 52 52 52 52 52 53 53 56 54 51 45 42 36 40 41 41 43 41 34 32 30 33 34 32 31 31 31 31 30 29 28 27
49 50 50 49 49 49 49 49 50 50 51 50 52 53 53 52 52 52 50 49 52 51 54 54 50 43 42 40 43 43 42 41 41 35 33 34 34 33 33 31 33 31 29 29 29 27 26
48 49 49 49 48 49 49 50 50 51 51 51 52 52 51 52 52 52 50 49 52 50 54 52 47 42 40 44 44 43 43 42 42 42 39 37 35 31 31 31 30 29 28 26 25 26 26
48 48 48 47 47 48 48 49 49 50 51 51 51 51 51 51 52 52 52 52 52 53 53 48 44 43 40 43 41 42 43 40 40 40 40 37 32 30 31 29 29 28 23 25 25 27 26
46 46 46 47 48 48 49 48 49 50 50 49 49 50 51 52 52 52 53 52 51 49 47 46 45 40 41 32 38 39 42 40 39 38 37 34 30 29 30 30 19 19 24 24 24 25 27
46 46 46 46 47 47 47 47 48 49 47 48 50 51 51 51 52 52 49 47 44 42 43 39 39 40 34 37 38 38 37 39 37 35 34 33 29 28 28 30 29 27 26 26 26 24 25
48 47 46 46 46 45 46 47 47 48 47 49 50 50 50 51 52 51 48 44 42 43 39 42 42 41 38 37 34 35 35 35 33 31 34 33 31 32 31 29 29 29 28 25 23 23 24
48 48 48 47 46 45 45 46 47 48 48 49 50 50 50 50 53 50 47 45 47 46 39 39 41 41 40 40 36 33 34 32 31 30 30 29 28 28 29 28 27 26 24 22 21 28 27
48 48 48 48 47 47 47 47 48 48 48 49 50 49 49 50 48 49 47 48 49 46 33 29 36 38 41 40 36 37 33 33 30 29 29 29 29 28 27 26 26 24 29 29 29 27 23
47 47 48 48 48 48 48 48 48 48 48 49 47 47 49 52 46 47 47 49 48 43 -15 16 30 38 40 34 31 34 36 33 29 29 29 28 27 27 26 26 29 28 32 30 30 28 29
47 47 46 46 47 47 48 48 48 48 48 46 46 47 49 50 49 47 48 47 45 31 -8 14 28 33 36 33 32 31 34 34 33 31 31 29 33 30 29 31 30 34 30 29 30 30 22
45 46 46 46 47 47 47 47 48 48 47 46 46 47 50 49 44 47 46 45 31 22 20 14 22 33 31 30 31 28 29 30 28 28 28 30 30 34 35 32 32 31 27 23 19 20 17
44 45 44 46 46 46 47 47 47 47 46 46 46 46 49 50 47 46 46 38 24 24 20 18 20 23 26 29 29 28 26 27 28 27 26 25 22 31 33 31 29 30 28 22 15 18 21
43 43 43 44 45 47 47 47 46 47 46 45 44 43 44 46 46 48 41 29 23 23 24 21 18 16 17 24 23 26 26 25 26 30 25 25 25 28 32 33 29 29 26 27 26 25 21
42 42 42 43 44 46 46 46 46 47 46 45 41 41 41 46 47 46 37 30 29 28 27 27 26 26 21 17 19 20 24 29 26 28 30 28 24 27 29 31 31 29 30 26 27 18 18
40 40 41 42 43 44 44 44 44 47 46 45 40 37 41 47 46 40 30 30 30 30 31 28 27 28 27 24 24 27 26 31 31 31 30 30 28 27 30 29 29 30 28 30 27 27 21
40 40 41 40 41 42 42 43 43 46 46 45 40 31 42 45 34 32 31 32 32 32 33 32 33 31 29 27 25 24 28 29 31 30 30 35 31 28 25 30 30 29 28 30 24 22 28
39 39 39 39 40 41 42 42 43 43 45 42 35 34 41 41 28 29 32 34 33 33 31 31 31 31 28 25 26 28 27 34 31 34 34 36 32 26 26 27 28 27 25 27 28 30 25
39 38 39 39 39 40 41 42 43 42 44 41 33 28 32 33 33 32 29 31 31 34 35 35 32 31 24 23 26 26 30 32 30 32 37 38 32 29 22 23 24 21 21 26 28 25 21
38 38 38 38 39 39 39 40 42 43 41 41 33 30 31 26 28 31 30 28 26 31 34 34 33 29 26 23 24 25 31 30 27 29 29 32 28 27 24 25 24 20 10 15 22 23 18
38 38 38 38 38 37 37 39 41 41 41 38 31 31 33 29 28 29 31 30 28 28 29 32 32 33 28 24 24 24 28 32 27 24 27 30 27 29 27 25 17 8 8 6 5 15 26
36 37 38 38 38 37 37 38 39 41 40 35 36 38 36 31 28 28 26 26 28 31 30 29 30 29 27 28 29 27 32 33 31 25 26 28 29 26 23 27 25 16 11 18 24 25 25
36 36 36 36 36 36 36 38 39 40 40 37 37 37 33 27 30 27 27 27 27 28 29 30 32 28 30 31 32 32 31 30 26 25 26 25 26 25 21 23 16 21 27 26 25 25 27
35 35 36 36 36 36 37 38 40 41 40 38 39 36 34 27 30 31 31 31 28 28 28 33 33 34 32 30 28 27 25 27 27 26 25 24 27 23 17 15 20 22 24 25 22 23 25
34 34 34 34 36 37 38 38 39 41 41 40 39 41 37 31 28 31 31 32 30 28 31 34 38 39 28 25 24 21 17 18 18 20 25 25 22 17 15 10 11 21 25 26 22 14 24
36 38 37 36 38 38 38 39 40 41 41 40 40 42 37 31 33 34 32 30 34 33 30 32 35 32 28 25 23 20 19 17 15 15 17 16 15 12 13 13 21 25 27 26 14 16 24
37 39 39 39 39 39 39 39 41 40 42 42 39 42 37 33 34 35 36 35 36 33 28 32 30 29 24 19 22 23 22 23 18 20 15 16 12 14 17 16 15 26 26 21 22 25 25
39 39 40 40 40 40 41 41 41 42 40 41 37 41 42 34 34 38 38 38 38 36 30 30 25 24 24 21 23 24 26 28 23 18 26 12 17 18 22 18 26 27 27 27 25 24 25

GFSGBSN_sfc_30mbdewp_117.txt.gz
Dewpoint
54 54 54 53 52 51 50 50 51 51 51 51 51 52 52 52 51 52 52 52 53 53 53 56 52 48 44 42 35 45 45 47 44 33 32 29 31 31 29 29 31 30 30 31 31 29 29
53 53 52 51 51 49 49 50 50 50 50 50 51 52 53 52 51 52 52 50 49 53 53 55 51 46 44 34 39 41 42 41 43 39 33 29 33 33 32 32 31 31 31 31 30 30 30
52 51 51 51 50 50 49 50 50 50 50 50 50 52 52 52 51 52 50 48 49 50 50 55 50 44 42 38 43 43 43 42 41 38 34 33 33 33 33 30 32 31 30 29 28 27 27
51 50 50 51 50 49 49 50 50 50 51 51 51 51 51 51 51 52 50 48 49 49 49 54 49 43 40 44 44 44 43 43 43 42 41 40 37 33 30 31 31 29 29 25 25 26 26
49 49 49 50 49 49 48 49 49 49 50 51 50 50 50 51 51 52 52 51 49 51 53 49 44 43 38 43 39 41 44 41 40 41 40 39 36 33 30 29 28 29 23 25 24 26 26
48 49 49 49 47 47 47 48 48 49 50 50 48 49 50 51 51 52 53 51 51 50 48 46 45 39 39 26 35 40 44 41 39 38 37 37 33 30 30 28 19 19 24 25 24 24 25
47 46 47 48 47 47 45 48 48 49 49 47 48 50 50 50 51 52 50 47 42 41 44 40 39 37 35 37 38 38 41 40 38 37 34 32 30 28 29 29 28 28 27 26 27 28 27
48 48 47 47 47 46 46 47 48 48 48 47 48 50 50 50 51 52 48 43 40 43 38 41 41 40 39 39 33 34 39 36 36 33 34 33 31 31 31 29 29 29 27 28 28 27 25
49 49 49 48 48 47 46 46 47 47 48 47 48 49 50 50 50 51 47 44 47 45 39 38 42 41 40 40 35 31 35 35 33 32 32 32 29 31 32 31 29 29 28 28 26 28 28
48 48 48 48 48 48 47 47 47 48 48 48 49 49 49 49 48 48 46 48 48 45 30 24 36 39 40 40 35 35 34 33 31 29 30 30 31 28 28 29 29 27 27 28 28 26 23
47 47 47 48 48 48 48 48 48 48 48 48 49 47 48 50 45 44 45 48 48 42 -15 20 35 39 40 37 31 36 34 33 30 30 30 28 28 28 28 27 27 26 31 29 29 28 27
47 48 47 48 48 49 48 49 48 48 48 48 47 46 47 48 49 47 48 48 45 22 -26 13 35 36 37 36 33 36 34 34 32 30 30 29 32 29 28 29 29 33 30 29 31 28 22
46 46 46 47 47 46 48 48 47 48 48 48 47 47 47 48 42 48 47 45 29 9 14 12 28 35 34 32 30 31 33 29 27 27 27 29 29 32 33 30 33 30 27 26 22 21 18
45 46 46 46 46 46 47 47 47 47 48 47 46 46 48 47 47 47 46 38 21 20 17 21 25 31 29 30 29 29 31 30 30 28 26 24 21 32 34 31 30 29 28 24 16 16 19
45 46 46 46 45 46 45 46 47 47 47 47 45 43 45 48 48 48 41 28 22 22 24 20 13 15 22 27 25 28 27 29 29 29 24 25 25 29 33 32 31 29 27 27 25 26 22
45 44 45 45 44 44 46 47 47 47 47 46 42 41 42 46 48 46 37 28 28 26 26 28 18 19 13 14 24 26 26 27 27 29 28 27 24 28 30 32 31 29 29 24 26 17 17
42 43 44 43 43 43 43 46 46 45 47 46 40 37 40 48 47 41 30 28 27 29 28 25 25 26 28 26 22 22 23 28 29 29 29 29 27 26 31 29 28 29 28 28 26 24 18
43 42 43 43 43 43 43 43 44 45 46 44 40 32 40 47 35 33 31 32 31 30 30 29 32 31 27 27 26 24 26 29 32 32 29 33 31 27 27 29 31 30 28 30 22 22 26
41 40 41 41 42 42 43 43 43 43 45 42 35 35 40 42 28 28 31 31 32 30 30 31 28 30 32 29 27 27 27 33 31 32 32 35 30 26 26 29 32 32 29 29 29 28 25
41 40 39 40 40 41 42 41 41 42 44 41 34 28 32 35 35 30 29 31 31 35 33 35 32 31 30 28 28 26 29 33 31 33 39 36 32 26 20 23 28 29 30 29 29 26 24
40 40 40 40 40 40 41 41 42 41 42 41 35 30 31 26 29 31 30 29 28 30 33 34 30 32 30 27 26 27 30 30 28 37 37 33 27 30 31 30 31 30 30 29 26 27 24
39 38 39 39 39 39 40 41 42 41 41 39 30 30 33 30 29 30 30 27 28 28 28 33 32 32 34 29 30 24 28 29 27 31 30 32 26 28 26 28 26 26 21 8 21 25 26
39 39 39 39 39 39 39 40 41 41 40 36 36 37 34 30 28 28 27 27 26 28 28 29 30 32 31 31 33 33 30 31 31 27 27 29 28 27 23 28 30 25 22 14 22 25 26
38 38 38 38 37 38 38 38 40 39 39 37 37 34 30 24 28 27 26 27 27 27 28 30 30 29 32 36 37 36 32 29 30 26 29 28 29 28 23 26 17 23 27 26 23 25 28
37 37 37 37 37 37 38 38 39 39 39 37 38 35 32 26 25 30 29 27 27 27 27 28 30 35 36 34 31 28 27 28 28 27 26 28 27 24 20 20 21 22 25 24 20 22 27
34 35 36 36 37 37 38 38 38 39 39 39 36 39 36 29 27 32 31 31 29 30 29 29 35 40 37 31 28 22 19 22 24 26 26 28 27 24 22 17 15 18 25 27 20 15 26
34 35 33 34 35 36 37 38 39 39 39 39 37 39 37 30 33 34 30 30 32 31 29 31 35 35 35 28 24 21 19 20 20 21 24 26 25 21 20 16 18 25 26 25 11 12 25
35 38 36 34 33 34 36 38 39 39 39 39 37 41 36 32 34 35 34 33 35 33 28 32 31 31 29 26 25 24 20 18 17 18 19 20 21 19 17 16 12 26 26 21 22 25 24
39 38 38 39 40 37 37 38 38 39 40 40 37 41 41 34 33 36 36 37 37 37 31 33 29 30 30 28 25 27 26 26 21 15 24 17 19 15 19 17 25 28 26 26 25 24 22

GFSGBSN_sfc_30mbdewp_123.txt.gz
Dewpoint
60 59 58 58 57 56 55 53 53 52 52 52 51 51 52 52 52 51 51 52 50 50 52 53 54 50 45 33 22 46 44 45 41 36 34 32 32 30 27 29 31 30 30 32 32 31 31
57 57 57 57 57 55 54 53 52 52 51 51 51 50 51 52 52 51 51 51 48 49 50 52 52 48 44 19 36 43 43 40 39 39 33 32 34 33 33 32 31 32 31 31 31 30 30
56 55 55 56 55 55 54 53 52 51 51 51 51 50 51 52 51 51 51 50 47 49 48 49 50 44 42 24 42 43 43 41 41 38 37 34 34 33 33 31 32 31 29 28 27 27 26
55 55 55 55 54 53 52 51 51 51 51 50 50 51 51 50 50 51 51 51 48 47 47 52 48 43 29 43 44 43 43 41 43 41 39 40 39 34 32 32 30 29 28 17 23 25 27
54 54 54 54 53 53 52 51 50 50 50 51 51 51 50 49 50 51 51 51 49 48 51 49 45 42 27 40 35 39 42 37 42 41 40 40 37 35 31 29 26 28 14 23 21 25 25
54 53 53 53 53 52 51 51 50 49 49 50 50 49 49 50 49 50 51 51 51 49 47 46 44 35 32 21 34 42 43 41 40 39 39 38 34 33 31 28 7 11 20 25 22 22 26
54 52 52 52 52 51 51 50 50 49 48 49 49 47 49 49 49 50 49 45 40 39 42 33 34 30 34 38 39 40 42 39 38 37 32 35 33 28 30 30 25 24 23 24 27 28 29
51 53 52 51 51 51 50 49 49 47 47 48 47 48 49 49 49 50 47 42 37 43 34 39 39 39 40 40 32 33 41 34 35 27 34 32 31 33 31 31 29 29 28 27 29 29 28
49 52 50 50 50 50 50 49 49 48 47 48 47 48 49 49 47 49 44 43 47 45 37 34 40 38 37 38 32 30 38 37 35 32 33 28 26 33 31 30 29 29 28 28 28 29 28
48 49 51 49 48 48 49 49 48 47 47 47 47 48 48 47 46 43 41 44 46 46 20 17 36 39 40 38 27 35 38 36 33 31 33 32 33 31 32 30 30 28 30 30 29 26 22
46 48 49 49 48 47 47 48 48 48 48 47 47 49 47 49 42 43 42 47 47 36 -16 22 37 41 40 31 34 36 34 34 31 31 30 25 28 30 29 29 31 26 29 28 28 27 28
46 47 47 48 49 48 47 47 48 48 49 48 48 48 47 47 47 45 48 48 40 12 -20 24 36 37 36 37 35 33 32 33 32 30 30 26 31 29 28 31 29 30 30 29 30 28 22
40 45 47 47 48 48 48 48 48 48 48 48 48 48 46 45 39 46 48 45 21 3 4 21 30 37 34 32 33 31 30 30 27 25 26 29 29 30 30 29 32 29 28 20 21 21 19
38 39 43 47 47 47 48 49 48 48 47 47 48 47 46 45 46 47 46 37 12 5 7 20 33 36 30 31 29 33 29 28 30 26 27 24 17 28 30 28 27 29 25 20 16 17 17
36 39 40 42 46 48 47 48 49 47 47 46 47 45 44 44 46 47 40 26 16 19 21 12 24 27 29 30 27 30 27 26 29 29 18 23 21 31 33 32 29 29 27 28 26 26 24
37 38 40 43 45 46 47 46 45 47 46 47 42 41 40 43 47 43 34 25 26 25 26 26 4 12 16 25 26 28 29 30 26 29 28 25 21 28 32 32 31 30 30 27 30 20 17
36 38 39 39 40 45 45 48 46 46 46 45 40 35 38 46 46 36 28 26 25 29 28 23 23 25 25 19 27 27 26 27 30 30 29 28 25 26 32 31 29 29 28 28 28 27 18
36 37 38 40 42 43 46 46 47 45 46 42 38 29 41 46 32 31 28 27 27 27 26 27 29 30 25 27 26 24 25 25 31 30 29 30 28 25 26 32 31 30 29 29 25 24 26
35 37 38 38 39 40 42 45 46 45 45 40 34 32 41 43 26 27 27 26 28 29 27 28 27 29 31 27 23 26 25 30 33 30 30 33 30 24 25 31 33 31 31 31 31 30 24
35 37 37 39 40 41 42 46 46 44 44 40 34 28 33 36 35 29 25 25 26 29 29 30 31 30 29 27 30 27 27 31 32 32 38 35 30 25 21 25 29 29 30 31 31 26 25
35 36 37 39 39 42 45 45 44 43 43 39 34 30 31 27 30 30 29 28 26 26 30 31 28 31 28 26 26 26 27 28 30 32 36 33 25 28 28 27 27 26 25 28 28 29 25
33 35 36 38 39 42 44 44 43 42 42 38 31 30 32 29 31 29 27 25 24 27 28 32 31 31 32 29 27 24 28 29 27 33 35 34 26 28 26 29 30 28 28 28 28 29 29
35 36 36 38 36 42 40 43 42 41 43 36 34 37 30 29 29 29 29 26 26 27 28 29 32 31 30 31 33 33 34 32 31 31 31 31 30 27 23 25 28 25 26 27 27 28 28
37 38 37 39 39 39 43 42 39 39 41 37 36 34 29 25 28 27 29 29 26 27 26 28 30 28 31 36 35 35 34 34 34 33 33 31 30 29 23 25 18 19 26 27 27 28 27
38 39 39 38 40 40 43 42 40 40 40 37 38 35 31 26 27 27 27 28 29 30 29 28 30 32 36 34 28 26 27 28 28 31 32 32 29 24 22 21 22 20 24 24 24 22 27
38 39 39 38 41 41 40 41 40 40 40 37 39 38 33 27 26 28 28 28 26 26 27 28 30 33 33 28 28 20 17 21 21 27 32 32 30 27 24 19 14 17 25 26 23 19 26
35 38 38 39 39 39 39 39 40 39 40 37 37 38 35 29 29 31 28 27 28 27 26 29 32 33 33 28 24 19 19 23 15 22 24 26 27 24 22 20 20 22 26 22 18 16 27
33 33 34 35 37 39 39 39 39 39 40 37 35 38 33 30 29 34 34 32 32 30 25 29 31 32 31 26 22 22 22 23 24 24 24 22 22 22 23 20 16 26 24 19 23 26 29
33 34 35 34 35 35 37 39 39 39 38 37 32 37 37 32 29 37 36 36 35 35 31 33 29 31 31 27 27 26 25 26 23 21 24 23 24 21 22 21 25 28 27 27 27 26 27

GFSGBSN_sfc_30mbdewp_126.txt.gz
Dewpoint
62 62 62 61 60 60 59 57 55 54 53 53 52 52 53 52 52 51 51 51 51 49 50 52 54 51 42 25 14 43 43 42 40 38 36 34 31 28 20 21 25 23 24 29 29 30 29
56 56 60 60 59 58 57 56 54 52 52 52 52 51 50 51 52 51 51 51 49 48 50 51 53 49 39 18 34 41 40 38 38 38 35 34 32 31 27 27 27 30 29 28 27 24 25
55 56 55 56 57 57 56 55 54 53 52 51 51 50 50 52 52 51 51 51 48 48 49 48 51 44 37 20 35 39 41 37 37 36 32 33 33 28 31 29 31 29 24 22 20 22 22
54 55 55 55 55 55 55 54 54 53 52 51 50 51 50 51 50 50 51 51 50 48 48 51 49 43 26 38 39 39 38 37 38 36 39 38 37 33 32 31 28 23 24 10 21 22 25
55 54 55 54 54 54 53 52 52 52 51 50 51 51 51 49 49 50 51 51 50 49 50 50 44 41 23 38 33 35 36 29 34 35 38 40 36 31 30 24 20 23 3 12 13 20 20
52 54 54 54 54 54 53 52 52 52 51 51 50 50 49 49 49 50 50 50 50 49 47 44 43 34 29 20 32 40 40 36 35 31 35 34 32 27 26 22 3 2 11 16 9 18 21
50 50 54 53 54 53 53 52 52 51 51 50 49 49 48 49 49 50 50 44 38 39 41 24 29 24 29 36 38 39 39 38 33 28 22 32 25 18 14 22 19 17 14 12 14 21 24
49 49 49 54 54 53 52 52 52 51 51 50 49 47 49 49 49 50 48 39 33 43 27 33 32 33 35 38 33 36 39 31 29 19 27 30 22 18 28 27 26 21 19 16 18 25 26
47 48 49 49 54 53 52 51 52 50 50 49 49 48 48 49 49 48 43 39 46 45 29 23 32 32 30 33 21 27 37 32 26 21 25 12 19 28 29 26 22 22 20 17 19 23 24
45 45 48 48 50 52 51 49 51 50 49 48 48 48 48 48 44 42 41 41 47 47 17 12 29 33 35 29 23 25 36 28 29 18 22 21 22 25 25 21 23 14 22 23 23 22 15
42 43 43 47 49 52 51 50 49 49 48 49 47 48 48 48 41 39 40 41 45 42 1 18 31 38 37 20 29 30 32 33 21 27 27 20 28 27 23 21 26 17 27 25 25 24 23
38 40 41 43 47 49 50 48 48 48 48 48 47 47 48 47 47 44 48 46 43 18 -1 23 34 35 33 30 33 33 27 33 25 28 29 20 29 26 22 29 28 28 27 28 27 23 16
38 37 41 41 43 45 49 50 47 48 47 48 48 48 45 45 38 46 49 45 24 11 1 20 29 34 30 27 33 30 25 25 23 23 23 23 25 26 28 26 30 27 24 16 13 17 10
34 39 37 41 41 43 44 49 49 47 47 48 48 48 44 43 47 47 48 36 15 -1 -1 20 29 32 27 26 30 29 25 22 25 23 19 20 19 25 27 22 21 25 23 14 7 5 10
34 35 39 38 40 41 43 47 49 49 48 47 48 46 42 46 47 48 40 26 8 2 5 11 30 26 26 27 25 29 27 23 24 26 12 16 12 26 29 27 25 26 25 23 18 18 21
33 34 36 38 39 40 43 44 47 48 49 48 44 43 41 46 46 42 34 23 17 19 21 17 14 19 15 24 24 25 26 26 23 25 25 21 12 25 31 30 29 28 27 26 25 16 14
34 34 36 36 39 40 40 43 43 48 50 48 42 36 41 45 40 35 27 23 19 24 27 24 12 13 12 20 22 23 20 26 29 28 26 22 19 23 30 28 23 28 27 27 25 22 15
34 34 35 36 37 39 40 42 43 45 46 46 38 30 41 42 31 30 27 24 20 20 26 26 29 26 20 24 21 23 19 20 31 31 28 27 24 17 23 23 26 23 21 23 23 20 25
34 34 34 35 37 37 39 40 41 44 47 42 34 35 43 38 25 26 23 24 24 21 23 22 24 26 27 24 21 22 25 32 32 28 30 31 29 21 18 26 29 26 24 23 25 25 25
33 34 34 35 36 37 39 40 40 43 47 41 35 29 34 37 27 22 20 19 20 25 26 28 28 27 25 23 24 21 23 31 33 33 36 34 25 23 17 20 29 31 31 29 28 28 23
33 33 34 35 37 37 39 40 41 44 45 38 34 31 33 27 29 22 22 19 17 20 24 25 27 28 25 22 22 22 23 23 27 28 30 28 21 19 20 20 21 26 25 24 24 27 25
32 33 34 33 35 36 39 40 42 43 42 35 31 31 33 32 27 24 23 23 18 18 21 22 22 21 22 22 20 17 22 24 23 27 29 31 21 20 17 18 18 17 19 18 19 20 20
32 33 33 34 36 36 39 40 40 44 42 33 34 38 30 29 29 27 26 23 21 23 25 24 25 26 26 26 27 26 30 30 30 28 27 29 26 23 18 17 19 21 21 20 19 20 21
32 34 34 36 36 36 38 39 40 46 42 37 38 36 33 27 28 26 22 23 21 20 22 23 27 28 28 33 34 32 31 29 29 29 29 26 27 25 20 22 18 17 20 21 19 21 22
33 36 37 38 38 38 39 41 41 43 42 39 40 36 33 29 26 26 25 24 25 28 28 26 28 30 33 30 25 24 23 27 28 25 24 27 25 24 20 14 14 14 19 24 25 20 21
36 38 38 38 37 39 39 42 40 42 43 40 40 40 35 28 26 27 26 26 26 26 30 30 31 32 31 28 24 18 13 16 13 25 29 24 26 23 18 15 11 18 16 26 26 20 20
37 37 37 39 38 40 39 41 41 40 41 39 38 39 34 29 30 31 29 26 26 25 23 27 29 31 31 26 22 17 14 15 15 15 22 26 27 23 22 19 16 22 25 25 19 17 27
33 34 37 38 38 40 40 40 38 40 39 36 37 37 29 29 30 32 31 29 28 27 22 28 30 30 30 25 20 17 18 14 14 20 15 17 19 23 25 21 19 28 25 20 28 29 31
33 34 35 35 36 39 38 38 39 41 39 37 35 38 36 28 29 33 32 33 34 32 26 28 23 27 27 24 22 20 19 21 18 15 18 20 23 20 23 20 29 26 30 30 29 29 31